<?xml version="1.0" encoding="UTF-8" standalone="no" ?>
<gpx xmlns="http://www.topografix.com/GPX/1/1" xmlns:xsi="http://www.w3.org/2001/XMLSchema-instance" xsi:schemaLocation="http://www.topografix.com/GPX/1/1 http://www.topografix.com/GPX/1/1/gpx.xsd" version="1.1" creator="VisuGPX - https://www.visugpx.com">
  <metadata>
    <name>Col Grand Manche 2823-Pointe MT</name>
    <desc><![CDATA[Fontcouverte - Col Grand Manche 2823-Pointe MT]]></desc>
  </metadata>
  <trk>
    <name><![CDATA[Col_Grand_Manche_2823_23 MAG 2019]]></name>
    <trkseg>
      <trkpt lat="45.03437" lon="6.54502">
        <ele>1875.67</ele>
        <time>2019-05-23T04:59:16Z</time>
      </trkpt>
      <trkpt lat="45.03435" lon="6.545">
        <ele>1874.23</ele>
        <time>2019-05-23T04:59:37Z</time>
      </trkpt>
      <trkpt lat="45.03425" lon="6.54511">
        <ele>1874.23</ele>
        <time>2019-05-23T05:00:13Z</time>
      </trkpt>
      <trkpt lat="45.03428" lon="6.54509">
        <ele>1874.23</ele>
        <time>2019-05-23T05:01:01Z</time>
      </trkpt>
      <trkpt lat="45.0343" lon="6.54512">
        <ele>1874.71</ele>
        <time>2019-05-23T05:01:45Z</time>
      </trkpt>
      <trkpt lat="45.03431" lon="6.54508">
        <ele>1874.71</ele>
        <time>2019-05-23T05:02:18Z</time>
      </trkpt>
      <trkpt lat="45.03435" lon="6.54501">
        <ele>1874.23</ele>
        <time>2019-05-23T05:02:43Z</time>
      </trkpt>
      <trkpt lat="45.03439" lon="6.54501">
        <ele>1874.71</ele>
        <time>2019-05-23T05:03:15Z</time>
      </trkpt>
      <trkpt lat="45.03438" lon="6.54509">
        <ele>1874.23</ele>
        <time>2019-05-23T05:03:52Z</time>
      </trkpt>
      <trkpt lat="45.03435" lon="6.54513">
        <ele>1874.23</ele>
        <time>2019-05-23T05:04:24Z</time>
      </trkpt>
      <trkpt lat="45.03435" lon="6.54511">
        <ele>1874.23</ele>
        <time>2019-05-23T05:05:06Z</time>
      </trkpt>
      <trkpt lat="45.03433" lon="6.5451">
        <ele>1873.75</ele>
        <time>2019-05-23T05:05:34Z</time>
      </trkpt>
      <trkpt lat="45.03433" lon="6.54515">
        <ele>1873.75</ele>
        <time>2019-05-23T05:06:07Z</time>
      </trkpt>
      <trkpt lat="45.03431" lon="6.5451">
        <ele>1873.75</ele>
        <time>2019-05-23T05:06:41Z</time>
      </trkpt>
      <trkpt lat="45.03436" lon="6.54511">
        <ele>1873.75</ele>
        <time>2019-05-23T05:07:23Z</time>
      </trkpt>
      <trkpt lat="45.03439" lon="6.54512">
        <ele>1873.75</ele>
        <time>2019-05-23T05:08:00Z</time>
      </trkpt>
      <trkpt lat="45.03438" lon="6.54514">
        <ele>1874.71</ele>
        <time>2019-05-23T05:08:34Z</time>
      </trkpt>
      <trkpt lat="45.03439" lon="6.54512">
        <ele>1873.27</ele>
        <time>2019-05-23T05:08:57Z</time>
      </trkpt>
      <trkpt lat="45.03439" lon="6.54513">
        <ele>1873.27</ele>
        <time>2019-05-23T05:09:19Z</time>
      </trkpt>
      <trkpt lat="45.03436" lon="6.54514">
        <ele>1872.79</ele>
        <time>2019-05-23T05:09:54Z</time>
      </trkpt>
      <trkpt lat="45.03437" lon="6.54524">
        <ele>1873.27</ele>
        <time>2019-05-23T05:10:30Z</time>
      </trkpt>
      <trkpt lat="45.03438" lon="6.54516">
        <ele>1871.82</ele>
        <time>2019-05-23T05:10:51Z</time>
      </trkpt>
      <trkpt lat="45.03438" lon="6.54514">
        <ele>1875.19</ele>
        <time>2019-05-23T05:10:53Z</time>
      </trkpt>
      <trkpt lat="45.03439" lon="6.54502">
        <ele>1874.23</ele>
        <time>2019-05-23T05:11:14Z</time>
      </trkpt>
      <trkpt lat="45.03428" lon="6.54502">
        <ele>1874.23</ele>
        <time>2019-05-23T05:11:30Z</time>
      </trkpt>
      <trkpt lat="45.03419" lon="6.54512">
        <ele>1874.71</ele>
        <time>2019-05-23T05:11:50Z</time>
      </trkpt>
      <trkpt lat="45.0341" lon="6.54519">
        <ele>1874.23</ele>
        <time>2019-05-23T05:12:04Z</time>
      </trkpt>
      <trkpt lat="45.03404" lon="6.54526">
        <ele>1873.75</ele>
        <time>2019-05-23T05:12:17Z</time>
      </trkpt>
      <trkpt lat="45.03401" lon="6.54529">
        <ele>1874.23</ele>
        <time>2019-05-23T05:12:31Z</time>
      </trkpt>
      <trkpt lat="45.03404" lon="6.54525">
        <ele>1873.75</ele>
        <time>2019-05-23T05:12:53Z</time>
      </trkpt>
      <trkpt lat="45.03402" lon="6.54529">
        <ele>1873.75</ele>
        <time>2019-05-23T05:13:21Z</time>
      </trkpt>
      <trkpt lat="45.03401" lon="6.54527">
        <ele>1873.75</ele>
        <time>2019-05-23T05:13:50Z</time>
      </trkpt>
      <trkpt lat="45.03401" lon="6.54526">
        <ele>1873.75</ele>
        <time>2019-05-23T05:14:13Z</time>
      </trkpt>
      <trkpt lat="45.03405" lon="6.54526">
        <ele>1873.27</ele>
        <time>2019-05-23T05:14:37Z</time>
      </trkpt>
      <trkpt lat="45.03401" lon="6.54528">
        <ele>1873.27</ele>
        <time>2019-05-23T05:15:09Z</time>
      </trkpt>
      <trkpt lat="45.034" lon="6.5453">
        <ele>1872.79</ele>
        <time>2019-05-23T05:15:28Z</time>
      </trkpt>
      <trkpt lat="45.03406" lon="6.54532">
        <ele>1872.79</ele>
        <time>2019-05-23T05:16:01Z</time>
      </trkpt>
      <trkpt lat="45.03398" lon="6.54533">
        <ele>1872.79</ele>
        <time>2019-05-23T05:16:27Z</time>
      </trkpt>
      <trkpt lat="45.034" lon="6.54532">
        <ele>1872.3</ele>
        <time>2019-05-23T05:16:36Z</time>
      </trkpt>
      <trkpt lat="45.03398" lon="6.54516">
        <ele>1872.3</ele>
        <time>2019-05-23T05:16:46Z</time>
      </trkpt>
      <trkpt lat="45.03397" lon="6.54513">
        <ele>1871.82</ele>
        <time>2019-05-23T05:16:48Z</time>
      </trkpt>
      <trkpt lat="45.03393" lon="6.54489">
        <ele>1872.3</ele>
        <time>2019-05-23T05:17:05Z</time>
      </trkpt>
      <trkpt lat="45.03391" lon="6.54473">
        <ele>1873.27</ele>
        <time>2019-05-23T05:17:19Z</time>
      </trkpt>
      <trkpt lat="45.03392" lon="6.54453">
        <ele>1874.23</ele>
        <time>2019-05-23T05:17:32Z</time>
      </trkpt>
      <trkpt lat="45.03393" lon="6.54437">
        <ele>1874.71</ele>
        <time>2019-05-23T05:17:44Z</time>
      </trkpt>
      <trkpt lat="45.03392" lon="6.5442">
        <ele>1875.67</ele>
        <time>2019-05-23T05:17:57Z</time>
      </trkpt>
      <trkpt lat="45.03386" lon="6.54418">
        <ele>1875.67</ele>
        <time>2019-05-23T05:18:11Z</time>
      </trkpt>
      <trkpt lat="45.03374" lon="6.54439">
        <ele>1876.63</ele>
        <time>2019-05-23T05:18:28Z</time>
      </trkpt>
      <trkpt lat="45.03372" lon="6.54446">
        <ele>1877.11</ele>
        <time>2019-05-23T05:18:35Z</time>
      </trkpt>
      <trkpt lat="45.0336" lon="6.54458">
        <ele>1878.55</ele>
        <time>2019-05-23T05:18:50Z</time>
      </trkpt>
      <trkpt lat="45.03346" lon="6.54467">
        <ele>1880.96</ele>
        <time>2019-05-23T05:19:10Z</time>
      </trkpt>
      <trkpt lat="45.03336" lon="6.5447">
        <ele>1882.4</ele>
        <time>2019-05-23T05:19:26Z</time>
      </trkpt>
      <trkpt lat="45.03327" lon="6.54485">
        <ele>1884.8</ele>
        <time>2019-05-23T05:19:43Z</time>
      </trkpt>
      <trkpt lat="45.0332" lon="6.54488">
        <ele>1887.21</ele>
        <time>2019-05-23T05:20:02Z</time>
      </trkpt>
      <trkpt lat="45.03312" lon="6.54497">
        <ele>1889.61</ele>
        <time>2019-05-23T05:20:21Z</time>
      </trkpt>
      <trkpt lat="45.03308" lon="6.54502">
        <ele>1891.53</ele>
        <time>2019-05-23T05:20:35Z</time>
      </trkpt>
      <trkpt lat="45.03298" lon="6.54506">
        <ele>1893.93</ele>
        <time>2019-05-23T05:20:54Z</time>
      </trkpt>
      <trkpt lat="45.03291" lon="6.54518">
        <ele>1895.86</ele>
        <time>2019-05-23T05:21:10Z</time>
      </trkpt>
      <trkpt lat="45.03286" lon="6.54525">
        <ele>1897.3</ele>
        <time>2019-05-23T05:21:24Z</time>
      </trkpt>
      <trkpt lat="45.03281" lon="6.54534">
        <ele>1899.22</ele>
        <time>2019-05-23T05:21:41Z</time>
      </trkpt>
      <trkpt lat="45.03272" lon="6.54533">
        <ele>1901.14</ele>
        <time>2019-05-23T05:21:58Z</time>
      </trkpt>
      <trkpt lat="45.03264" lon="6.54535">
        <ele>1903.55</ele>
        <time>2019-05-23T05:22:17Z</time>
      </trkpt>
      <trkpt lat="45.03255" lon="6.54545">
        <ele>1904.99</ele>
        <time>2019-05-23T05:22:33Z</time>
      </trkpt>
      <trkpt lat="45.03247" lon="6.54549">
        <ele>1907.39</ele>
        <time>2019-05-23T05:22:49Z</time>
      </trkpt>
      <trkpt lat="45.03238" lon="6.54558">
        <ele>1908.83</ele>
        <time>2019-05-23T05:23:05Z</time>
      </trkpt>
      <trkpt lat="45.03224" lon="6.5455">
        <ele>1911.72</ele>
        <time>2019-05-23T05:23:29Z</time>
      </trkpt>
      <trkpt lat="45.03206" lon="6.54547">
        <ele>1912.68</ele>
        <time>2019-05-23T05:23:46Z</time>
      </trkpt>
      <trkpt lat="45.03201" lon="6.54559">
        <ele>1914.6</ele>
        <time>2019-05-23T05:24:02Z</time>
      </trkpt>
      <trkpt lat="45.03188" lon="6.5457">
        <ele>1916.53</ele>
        <time>2019-05-23T05:24:19Z</time>
      </trkpt>
      <trkpt lat="45.03182" lon="6.5458">
        <ele>1917.97</ele>
        <time>2019-05-23T05:24:34Z</time>
      </trkpt>
      <trkpt lat="45.03176" lon="6.54591">
        <ele>1920.85</ele>
        <time>2019-05-23T05:24:52Z</time>
      </trkpt>
      <trkpt lat="45.03164" lon="6.54588">
        <ele>1922.29</ele>
        <time>2019-05-23T05:25:08Z</time>
      </trkpt>
      <trkpt lat="45.03149" lon="6.54587">
        <ele>1924.7</ele>
        <time>2019-05-23T05:25:27Z</time>
      </trkpt>
      <trkpt lat="45.0314" lon="6.54591">
        <ele>1924.22</ele>
        <time>2019-05-23T05:25:42Z</time>
      </trkpt>
      <trkpt lat="45.03128" lon="6.54598">
        <ele>1924.7</ele>
        <time>2019-05-23T05:25:59Z</time>
      </trkpt>
      <trkpt lat="45.03117" lon="6.546">
        <ele>1925.66</ele>
        <time>2019-05-23T05:26:14Z</time>
      </trkpt>
      <trkpt lat="45.03112" lon="6.546">
        <ele>1926.62</ele>
        <time>2019-05-23T05:26:29Z</time>
      </trkpt>
      <trkpt lat="45.03106" lon="6.54598">
        <ele>1928.54</ele>
        <time>2019-05-23T05:26:44Z</time>
      </trkpt>
      <trkpt lat="45.03101" lon="6.54595">
        <ele>1931.43</ele>
        <time>2019-05-23T05:27:03Z</time>
      </trkpt>
      <trkpt lat="45.0309" lon="6.54605">
        <ele>1934.31</ele>
        <time>2019-05-23T05:27:19Z</time>
      </trkpt>
      <trkpt lat="45.03085" lon="6.54612">
        <ele>1936.71</ele>
        <time>2019-05-23T05:27:35Z</time>
      </trkpt>
      <trkpt lat="45.03079" lon="6.54616">
        <ele>1938.64</ele>
        <time>2019-05-23T05:27:54Z</time>
      </trkpt>
      <trkpt lat="45.03065" lon="6.54624">
        <ele>1938.64</ele>
        <time>2019-05-23T05:28:09Z</time>
      </trkpt>
      <trkpt lat="45.03061" lon="6.54628">
        <ele>1938.16</ele>
        <time>2019-05-23T05:28:14Z</time>
      </trkpt>
      <trkpt lat="45.03054" lon="6.5464">
        <ele>1938.16</ele>
        <time>2019-05-23T05:28:27Z</time>
      </trkpt>
      <trkpt lat="45.03049" lon="6.54647">
        <ele>1938.64</ele>
        <time>2019-05-23T05:28:44Z</time>
      </trkpt>
      <trkpt lat="45.03047" lon="6.54654">
        <ele>1938.64</ele>
        <time>2019-05-23T05:29:03Z</time>
      </trkpt>
      <trkpt lat="45.0304" lon="6.54659">
        <ele>1940.08</ele>
        <time>2019-05-23T05:29:18Z</time>
      </trkpt>
      <trkpt lat="45.03033" lon="6.54663">
        <ele>1943.44</ele>
        <time>2019-05-23T05:29:35Z</time>
      </trkpt>
      <trkpt lat="45.03027" lon="6.5467">
        <ele>1943.44</ele>
        <time>2019-05-23T05:29:50Z</time>
      </trkpt>
      <trkpt lat="45.03017" lon="6.54674">
        <ele>1945.85</ele>
        <time>2019-05-23T05:30:08Z</time>
      </trkpt>
      <trkpt lat="45.03011" lon="6.54684">
        <ele>1947.29</ele>
        <time>2019-05-23T05:30:23Z</time>
      </trkpt>
      <trkpt lat="45.0301" lon="6.54694">
        <ele>1949.69</ele>
        <time>2019-05-23T05:30:40Z</time>
      </trkpt>
      <trkpt lat="45.03003" lon="6.54699">
        <ele>1951.61</ele>
        <time>2019-05-23T05:30:54Z</time>
      </trkpt>
      <trkpt lat="45.02995" lon="6.54697">
        <ele>1952.57</ele>
        <time>2019-05-23T05:31:06Z</time>
      </trkpt>
      <trkpt lat="45.02985" lon="6.54689">
        <ele>1954.02</ele>
        <time>2019-05-23T05:31:21Z</time>
      </trkpt>
      <trkpt lat="45.02968" lon="6.54685">
        <ele>1955.94</ele>
        <time>2019-05-23T05:31:46Z</time>
      </trkpt>
      <trkpt lat="45.02961" lon="6.54695">
        <ele>1956.9</ele>
        <time>2019-05-23T05:32:01Z</time>
      </trkpt>
      <trkpt lat="45.02958" lon="6.54696">
        <ele>1957.38</ele>
        <time>2019-05-23T05:32:05Z</time>
      </trkpt>
      <trkpt lat="45.02942" lon="6.54703">
        <ele>1959.78</ele>
        <time>2019-05-23T05:32:23Z</time>
      </trkpt>
      <trkpt lat="45.02931" lon="6.54702">
        <ele>1961.71</ele>
        <time>2019-05-23T05:32:39Z</time>
      </trkpt>
      <trkpt lat="45.0292" lon="6.54695">
        <ele>1962.67</ele>
        <time>2019-05-23T05:32:55Z</time>
      </trkpt>
      <trkpt lat="45.02913" lon="6.5469">
        <ele>1964.11</ele>
        <time>2019-05-23T05:33:12Z</time>
      </trkpt>
      <trkpt lat="45.02905" lon="6.54688">
        <ele>1966.03</ele>
        <time>2019-05-23T05:33:27Z</time>
      </trkpt>
      <trkpt lat="45.02899" lon="6.54684">
        <ele>1967.48</ele>
        <time>2019-05-23T05:33:40Z</time>
      </trkpt>
      <trkpt lat="45.02891" lon="6.54678">
        <ele>1969.88</ele>
        <time>2019-05-23T05:33:59Z</time>
      </trkpt>
      <trkpt lat="45.02887" lon="6.54673">
        <ele>1971.32</ele>
        <time>2019-05-23T05:34:13Z</time>
      </trkpt>
      <trkpt lat="45.02885" lon="6.54665">
        <ele>1973.72</ele>
        <time>2019-05-23T05:34:31Z</time>
      </trkpt>
      <trkpt lat="45.02879" lon="6.54658">
        <ele>1976.13</ele>
        <time>2019-05-23T05:34:47Z</time>
      </trkpt>
      <trkpt lat="45.02878" lon="6.54655">
        <ele>1976.13</ele>
        <time>2019-05-23T05:34:50Z</time>
      </trkpt>
      <trkpt lat="45.02872" lon="6.54652">
        <ele>1978.05</ele>
        <time>2019-05-23T05:35:04Z</time>
      </trkpt>
      <trkpt lat="45.02867" lon="6.54649">
        <ele>1979.97</ele>
        <time>2019-05-23T05:35:18Z</time>
      </trkpt>
      <trkpt lat="45.02862" lon="6.54647">
        <ele>1981.41</ele>
        <time>2019-05-23T05:35:33Z</time>
      </trkpt>
      <trkpt lat="45.02861" lon="6.54639">
        <ele>1982.86</ele>
        <time>2019-05-23T05:35:49Z</time>
      </trkpt>
      <trkpt lat="45.02861" lon="6.54634">
        <ele>1984.78</ele>
        <time>2019-05-23T05:36:03Z</time>
      </trkpt>
      <trkpt lat="45.02861" lon="6.54629">
        <ele>1986.22</ele>
        <time>2019-05-23T05:36:16Z</time>
      </trkpt>
      <trkpt lat="45.02861" lon="6.54621">
        <ele>1988.62</ele>
        <time>2019-05-23T05:36:34Z</time>
      </trkpt>
      <trkpt lat="45.02864" lon="6.54616">
        <ele>1990.55</ele>
        <time>2019-05-23T05:36:50Z</time>
      </trkpt>
      <trkpt lat="45.02866" lon="6.54607">
        <ele>1992.95</ele>
        <time>2019-05-23T05:37:07Z</time>
      </trkpt>
      <trkpt lat="45.02869" lon="6.54598">
        <ele>1994.87</ele>
        <time>2019-05-23T05:37:23Z</time>
      </trkpt>
      <trkpt lat="45.02858" lon="6.54587">
        <ele>1997.28</ele>
        <time>2019-05-23T05:37:42Z</time>
      </trkpt>
      <trkpt lat="45.02858" lon="6.54579">
        <ele>1999.68</ele>
        <time>2019-05-23T05:37:58Z</time>
      </trkpt>
      <trkpt lat="45.0286" lon="6.5457">
        <ele>2001.6</ele>
        <time>2019-05-23T05:38:14Z</time>
      </trkpt>
      <trkpt lat="45.02863" lon="6.54561">
        <ele>2004.01</ele>
        <time>2019-05-23T05:38:33Z</time>
      </trkpt>
      <trkpt lat="45.02867" lon="6.54554">
        <ele>2005.93</ele>
        <time>2019-05-23T05:38:49Z</time>
      </trkpt>
      <trkpt lat="45.02874" lon="6.54549">
        <ele>2006.89</ele>
        <time>2019-05-23T05:39:03Z</time>
      </trkpt>
      <trkpt lat="45.02881" lon="6.54544">
        <ele>2008.81</ele>
        <time>2019-05-23T05:39:19Z</time>
      </trkpt>
      <trkpt lat="45.0288" lon="6.54539">
        <ele>2009.77</ele>
        <time>2019-05-23T05:39:34Z</time>
      </trkpt>
      <trkpt lat="45.02884" lon="6.54534">
        <ele>2010.73</ele>
        <time>2019-05-23T05:39:49Z</time>
      </trkpt>
      <trkpt lat="45.02882" lon="6.54523">
        <ele>2012.18</ele>
        <time>2019-05-23T05:40:04Z</time>
      </trkpt>
      <trkpt lat="45.02881" lon="6.54515">
        <ele>2012.66</ele>
        <time>2019-05-23T05:40:17Z</time>
      </trkpt>
      <trkpt lat="45.02882" lon="6.54505">
        <ele>2014.58</ele>
        <time>2019-05-23T05:40:31Z</time>
      </trkpt>
      <trkpt lat="45.02888" lon="6.54498">
        <ele>2016.02</ele>
        <time>2019-05-23T05:40:47Z</time>
      </trkpt>
      <trkpt lat="45.02893" lon="6.54485">
        <ele>2017.94</ele>
        <time>2019-05-23T05:41:04Z</time>
      </trkpt>
      <trkpt lat="45.02897" lon="6.54474">
        <ele>2019.39</ele>
        <time>2019-05-23T05:41:20Z</time>
      </trkpt>
      <trkpt lat="45.02901" lon="6.54463">
        <ele>2020.83</ele>
        <time>2019-05-23T05:41:37Z</time>
      </trkpt>
      <trkpt lat="45.02902" lon="6.54454">
        <ele>2021.79</ele>
        <time>2019-05-23T05:41:50Z</time>
      </trkpt>
      <trkpt lat="45.02903" lon="6.54446">
        <ele>2023.71</ele>
        <time>2019-05-23T05:42:05Z</time>
      </trkpt>
      <trkpt lat="45.02909" lon="6.54439">
        <ele>2025.15</ele>
        <time>2019-05-23T05:42:19Z</time>
      </trkpt>
      <trkpt lat="45.02913" lon="6.54431">
        <ele>2026.12</ele>
        <time>2019-05-23T05:42:36Z</time>
      </trkpt>
      <trkpt lat="45.02916" lon="6.54424">
        <ele>2028.04</ele>
        <time>2019-05-23T05:42:50Z</time>
      </trkpt>
      <trkpt lat="45.02918" lon="6.54416">
        <ele>2029.96</ele>
        <time>2019-05-23T05:43:05Z</time>
      </trkpt>
      <trkpt lat="45.02922" lon="6.54411">
        <ele>2031.88</ele>
        <time>2019-05-23T05:43:24Z</time>
      </trkpt>
      <trkpt lat="45.02926" lon="6.54404">
        <ele>2034.29</ele>
        <time>2019-05-23T05:43:39Z</time>
      </trkpt>
      <trkpt lat="45.02929" lon="6.54396">
        <ele>2035.73</ele>
        <time>2019-05-23T05:43:53Z</time>
      </trkpt>
      <trkpt lat="45.02927" lon="6.54386">
        <ele>2038.13</ele>
        <time>2019-05-23T05:44:10Z</time>
      </trkpt>
      <trkpt lat="45.02927" lon="6.54379">
        <ele>2039.57</ele>
        <time>2019-05-23T05:44:27Z</time>
      </trkpt>
      <trkpt lat="45.02933" lon="6.54371">
        <ele>2043.42</ele>
        <time>2019-05-23T05:44:47Z</time>
      </trkpt>
      <trkpt lat="45.02934" lon="6.54364">
        <ele>2043.9</ele>
        <time>2019-05-23T05:45:01Z</time>
      </trkpt>
      <trkpt lat="45.02938" lon="6.54357">
        <ele>2045.82</ele>
        <time>2019-05-23T05:45:18Z</time>
      </trkpt>
      <trkpt lat="45.02943" lon="6.54351">
        <ele>2047.26</ele>
        <time>2019-05-23T05:45:34Z</time>
      </trkpt>
      <trkpt lat="45.02944" lon="6.54343">
        <ele>2049.19</ele>
        <time>2019-05-23T05:45:47Z</time>
      </trkpt>
      <trkpt lat="45.02945" lon="6.54329">
        <ele>2051.11</ele>
        <time>2019-05-23T05:46:05Z</time>
      </trkpt>
      <trkpt lat="45.02948" lon="6.54322">
        <ele>2053.03</ele>
        <time>2019-05-23T05:46:19Z</time>
      </trkpt>
      <trkpt lat="45.0295" lon="6.54312">
        <ele>2054.96</ele>
        <time>2019-05-23T05:46:33Z</time>
      </trkpt>
      <trkpt lat="45.02947" lon="6.54301">
        <ele>2056.88</ele>
        <time>2019-05-23T05:46:48Z</time>
      </trkpt>
      <trkpt lat="45.02946" lon="6.5429">
        <ele>2058.32</ele>
        <time>2019-05-23T05:47:05Z</time>
      </trkpt>
      <trkpt lat="45.02945" lon="6.54278">
        <ele>2060.24</ele>
        <time>2019-05-23T05:47:21Z</time>
      </trkpt>
      <trkpt lat="45.02946" lon="6.54268">
        <ele>2062.17</ele>
        <time>2019-05-23T05:47:38Z</time>
      </trkpt>
      <trkpt lat="45.02938" lon="6.54257">
        <ele>2064.57</ele>
        <time>2019-05-23T05:47:57Z</time>
      </trkpt>
      <trkpt lat="45.02938" lon="6.54247">
        <ele>2066.49</ele>
        <time>2019-05-23T05:48:12Z</time>
      </trkpt>
      <trkpt lat="45.02935" lon="6.54237">
        <ele>2068.89</ele>
        <time>2019-05-23T05:48:28Z</time>
      </trkpt>
      <trkpt lat="45.02938" lon="6.54226">
        <ele>2070.82</ele>
        <time>2019-05-23T05:48:44Z</time>
      </trkpt>
      <trkpt lat="45.02942" lon="6.54214">
        <ele>2072.26</ele>
        <time>2019-05-23T05:49:00Z</time>
      </trkpt>
      <trkpt lat="45.02944" lon="6.542">
        <ele>2073.7</ele>
        <time>2019-05-23T05:49:16Z</time>
      </trkpt>
      <trkpt lat="45.02945" lon="6.54184">
        <ele>2075.14</ele>
        <time>2019-05-23T05:49:33Z</time>
      </trkpt>
      <trkpt lat="45.02944" lon="6.5417">
        <ele>2078.03</ele>
        <time>2019-05-23T05:49:49Z</time>
      </trkpt>
      <trkpt lat="45.02949" lon="6.54162">
        <ele>2078.99</ele>
        <time>2019-05-23T05:50:04Z</time>
      </trkpt>
      <trkpt lat="45.02951" lon="6.54148">
        <ele>2079.47</ele>
        <time>2019-05-23T05:50:18Z</time>
      </trkpt>
      <trkpt lat="45.02955" lon="6.54137">
        <ele>2080.91</ele>
        <time>2019-05-23T05:50:32Z</time>
      </trkpt>
      <trkpt lat="45.0296" lon="6.54121">
        <ele>2081.87</ele>
        <time>2019-05-23T05:50:48Z</time>
      </trkpt>
      <trkpt lat="45.02963" lon="6.54107">
        <ele>2083.31</ele>
        <time>2019-05-23T05:51:03Z</time>
      </trkpt>
      <trkpt lat="45.0297" lon="6.54096">
        <ele>2084.76</ele>
        <time>2019-05-23T05:51:18Z</time>
      </trkpt>
      <trkpt lat="45.02978" lon="6.54085">
        <ele>2086.68</ele>
        <time>2019-05-23T05:51:35Z</time>
      </trkpt>
      <trkpt lat="45.02987" lon="6.54074">
        <ele>2087.64</ele>
        <time>2019-05-23T05:51:52Z</time>
      </trkpt>
      <trkpt lat="45.02991" lon="6.54064">
        <ele>2087.64</ele>
        <time>2019-05-23T05:52:11Z</time>
      </trkpt>
      <trkpt lat="45.02995" lon="6.54047">
        <ele>2089.08</ele>
        <time>2019-05-23T05:52:29Z</time>
      </trkpt>
      <trkpt lat="45.02996" lon="6.54038">
        <ele>2089.56</ele>
        <time>2019-05-23T05:52:41Z</time>
      </trkpt>
      <trkpt lat="45.03001" lon="6.54027">
        <ele>2090.04</ele>
        <time>2019-05-23T05:52:54Z</time>
      </trkpt>
      <trkpt lat="45.03002" lon="6.54016">
        <ele>2091.49</ele>
        <time>2019-05-23T05:53:08Z</time>
      </trkpt>
      <trkpt lat="45.03005" lon="6.54001">
        <ele>2092.93</ele>
        <time>2019-05-23T05:53:26Z</time>
      </trkpt>
      <trkpt lat="45.0301" lon="6.53988">
        <ele>2095.81</ele>
        <time>2019-05-23T05:53:43Z</time>
      </trkpt>
      <trkpt lat="45.03015" lon="6.53975">
        <ele>2095.33</ele>
        <time>2019-05-23T05:53:58Z</time>
      </trkpt>
      <trkpt lat="45.0302" lon="6.53964">
        <ele>2095.81</ele>
        <time>2019-05-23T05:54:12Z</time>
      </trkpt>
      <trkpt lat="45.03024" lon="6.53953">
        <ele>2096.77</ele>
        <time>2019-05-23T05:54:26Z</time>
      </trkpt>
      <trkpt lat="45.03026" lon="6.53944">
        <ele>2098.21</ele>
        <time>2019-05-23T05:54:39Z</time>
      </trkpt>
      <trkpt lat="45.03027" lon="6.53934">
        <ele>2099.66</ele>
        <time>2019-05-23T05:54:53Z</time>
      </trkpt>
      <trkpt lat="45.0303" lon="6.53931">
        <ele>2100.14</ele>
        <time>2019-05-23T05:55:07Z</time>
      </trkpt>
      <trkpt lat="45.03027" lon="6.53922">
        <ele>2101.58</ele>
        <time>2019-05-23T05:55:21Z</time>
      </trkpt>
      <trkpt lat="45.03025" lon="6.53916">
        <ele>2103.5</ele>
        <time>2019-05-23T05:55:36Z</time>
      </trkpt>
      <trkpt lat="45.03029" lon="6.53913">
        <ele>2104.46</ele>
        <time>2019-05-23T05:55:51Z</time>
      </trkpt>
      <trkpt lat="45.03037" lon="6.53909">
        <ele>2105.91</ele>
        <time>2019-05-23T05:56:07Z</time>
      </trkpt>
      <trkpt lat="45.03043" lon="6.53903">
        <ele>2107.83</ele>
        <time>2019-05-23T05:56:23Z</time>
      </trkpt>
      <trkpt lat="45.0305" lon="6.53897">
        <ele>2109.27</ele>
        <time>2019-05-23T05:56:39Z</time>
      </trkpt>
      <trkpt lat="45.03055" lon="6.53891">
        <ele>2110.71</ele>
        <time>2019-05-23T05:56:53Z</time>
      </trkpt>
      <trkpt lat="45.03061" lon="6.53883">
        <ele>2112.15</ele>
        <time>2019-05-23T05:57:12Z</time>
      </trkpt>
      <trkpt lat="45.03064" lon="6.53875">
        <ele>2114.08</ele>
        <time>2019-05-23T05:57:26Z</time>
      </trkpt>
      <trkpt lat="45.03064" lon="6.53873">
        <ele>2114.56</ele>
        <time>2019-05-23T05:57:44Z</time>
      </trkpt>
      <trkpt lat="45.03064" lon="6.53866">
        <ele>2115.52</ele>
        <time>2019-05-23T05:58:02Z</time>
      </trkpt>
      <trkpt lat="45.03062" lon="6.53855">
        <ele>2117.44</ele>
        <time>2019-05-23T05:58:20Z</time>
      </trkpt>
      <trkpt lat="45.0306" lon="6.53849">
        <ele>2119.36</ele>
        <time>2019-05-23T05:58:36Z</time>
      </trkpt>
      <trkpt lat="45.03057" lon="6.53843">
        <ele>2120.81</ele>
        <time>2019-05-23T05:58:49Z</time>
      </trkpt>
      <trkpt lat="45.03052" lon="6.53834">
        <ele>2123.21</ele>
        <time>2019-05-23T05:59:08Z</time>
      </trkpt>
      <trkpt lat="45.03045" lon="6.53834">
        <ele>2124.65</ele>
        <time>2019-05-23T05:59:22Z</time>
      </trkpt>
      <trkpt lat="45.03047" lon="6.53829">
        <ele>2124.17</ele>
        <time>2019-05-23T05:59:38Z</time>
      </trkpt>
      <trkpt lat="45.03049" lon="6.5381">
        <ele>2125.61</ele>
        <time>2019-05-23T06:00:00Z</time>
      </trkpt>
      <trkpt lat="45.03036" lon="6.538">
        <ele>2127.05</ele>
        <time>2019-05-23T06:00:23Z</time>
      </trkpt>
      <trkpt lat="45.03022" lon="6.53793">
        <ele>2127.53</ele>
        <time>2019-05-23T06:00:46Z</time>
      </trkpt>
      <trkpt lat="45.03019" lon="6.5379">
        <ele>2128.02</ele>
        <time>2019-05-23T06:01:05Z</time>
      </trkpt>
      <trkpt lat="45.03018" lon="6.5379">
        <ele>2128.02</ele>
        <time>2019-05-23T06:01:29Z</time>
      </trkpt>
      <trkpt lat="45.03012" lon="6.53782">
        <ele>2127.53</ele>
        <time>2019-05-23T06:01:50Z</time>
      </trkpt>
      <trkpt lat="45.03009" lon="6.53779">
        <ele>2128.98</ele>
        <time>2019-05-23T06:01:53Z</time>
      </trkpt>
      <trkpt lat="45.03004" lon="6.53762">
        <ele>2129.46</ele>
        <time>2019-05-23T06:02:08Z</time>
      </trkpt>
      <trkpt lat="45.03" lon="6.53757">
        <ele>2128.98</ele>
        <time>2019-05-23T06:02:13Z</time>
      </trkpt>
      <trkpt lat="45.0299" lon="6.53746">
        <ele>2129.94</ele>
        <time>2019-05-23T06:02:30Z</time>
      </trkpt>
      <trkpt lat="45.02981" lon="6.53735">
        <ele>2129.94</ele>
        <time>2019-05-23T06:02:45Z</time>
      </trkpt>
      <trkpt lat="45.02967" lon="6.53724">
        <ele>2130.9</ele>
        <time>2019-05-23T06:02:58Z</time>
      </trkpt>
      <trkpt lat="45.02957" lon="6.53714">
        <ele>2131.86</ele>
        <time>2019-05-23T06:03:13Z</time>
      </trkpt>
      <trkpt lat="45.02947" lon="6.53705">
        <ele>2133.78</ele>
        <time>2019-05-23T06:03:31Z</time>
      </trkpt>
      <trkpt lat="45.02942" lon="6.537">
        <ele>2135.23</ele>
        <time>2019-05-23T06:03:46Z</time>
      </trkpt>
      <trkpt lat="45.02936" lon="6.53691">
        <ele>2137.63</ele>
        <time>2019-05-23T06:04:03Z</time>
      </trkpt>
      <trkpt lat="45.02924" lon="6.53684">
        <ele>2139.55</ele>
        <time>2019-05-23T06:04:22Z</time>
      </trkpt>
      <trkpt lat="45.02917" lon="6.53677">
        <ele>2141.47</ele>
        <time>2019-05-23T06:04:37Z</time>
      </trkpt>
      <trkpt lat="45.02913" lon="6.5367">
        <ele>2142.92</ele>
        <time>2019-05-23T06:04:52Z</time>
      </trkpt>
      <trkpt lat="45.02907" lon="6.53662">
        <ele>2144.36</ele>
        <time>2019-05-23T06:05:07Z</time>
      </trkpt>
      <trkpt lat="45.02898" lon="6.53655">
        <ele>2143.88</ele>
        <time>2019-05-23T06:05:22Z</time>
      </trkpt>
      <trkpt lat="45.02891" lon="6.53645">
        <ele>2143.4</ele>
        <time>2019-05-23T06:05:36Z</time>
      </trkpt>
      <trkpt lat="45.02884" lon="6.53634">
        <ele>2144.36</ele>
        <time>2019-05-23T06:05:52Z</time>
      </trkpt>
      <trkpt lat="45.02874" lon="6.5363">
        <ele>2145.8</ele>
        <time>2019-05-23T06:06:06Z</time>
      </trkpt>
      <trkpt lat="45.0287" lon="6.53628">
        <ele>2146.28</ele>
        <time>2019-05-23T06:06:14Z</time>
      </trkpt>
      <trkpt lat="45.02857" lon="6.53624">
        <ele>2147.72</ele>
        <time>2019-05-23T06:06:30Z</time>
      </trkpt>
      <trkpt lat="45.02846" lon="6.5363">
        <ele>2147.72</ele>
        <time>2019-05-23T06:06:51Z</time>
      </trkpt>
      <trkpt lat="45.02838" lon="6.5362">
        <ele>2149.16</ele>
        <time>2019-05-23T06:07:14Z</time>
      </trkpt>
      <trkpt lat="45.02836" lon="6.5362">
        <ele>2149.65</ele>
        <time>2019-05-23T06:07:17Z</time>
      </trkpt>
      <trkpt lat="45.02825" lon="6.53619">
        <ele>2151.09</ele>
        <time>2019-05-23T06:07:32Z</time>
      </trkpt>
      <trkpt lat="45.02819" lon="6.53619">
        <ele>2152.53</ele>
        <time>2019-05-23T06:07:44Z</time>
      </trkpt>
      <trkpt lat="45.02813" lon="6.53621">
        <ele>2153.97</ele>
        <time>2019-05-23T06:08:01Z</time>
      </trkpt>
      <trkpt lat="45.02805" lon="6.53617">
        <ele>2154.93</ele>
        <time>2019-05-23T06:08:19Z</time>
      </trkpt>
      <trkpt lat="45.02799" lon="6.53615">
        <ele>2154.45</ele>
        <time>2019-05-23T06:08:33Z</time>
      </trkpt>
      <trkpt lat="45.02801" lon="6.53617">
        <ele>2154.45</ele>
        <time>2019-05-23T06:09:00Z</time>
      </trkpt>
      <trkpt lat="45.02799" lon="6.53618">
        <ele>2154.93</ele>
        <time>2019-05-23T06:09:21Z</time>
      </trkpt>
      <trkpt lat="45.02796" lon="6.53616">
        <ele>2155.41</ele>
        <time>2019-05-23T06:09:51Z</time>
      </trkpt>
      <trkpt lat="45.02796" lon="6.53616">
        <ele>2155.89</ele>
        <time>2019-05-23T06:10:12Z</time>
      </trkpt>
      <trkpt lat="45.02798" lon="6.53613">
        <ele>2158.3</ele>
        <time>2019-05-23T06:10:30Z</time>
      </trkpt>
      <trkpt lat="45.02798" lon="6.53611">
        <ele>2155.41</ele>
        <time>2019-05-23T06:10:37Z</time>
      </trkpt>
      <trkpt lat="45.02796" lon="6.53612">
        <ele>2155.89</ele>
        <time>2019-05-23T06:10:53Z</time>
      </trkpt>
      <trkpt lat="45.02795" lon="6.53615">
        <ele>2156.37</ele>
        <time>2019-05-23T06:11:10Z</time>
      </trkpt>
      <trkpt lat="45.02795" lon="6.53618">
        <ele>2157.34</ele>
        <time>2019-05-23T06:11:24Z</time>
      </trkpt>
      <trkpt lat="45.02794" lon="6.53615">
        <ele>2157.82</ele>
        <time>2019-05-23T06:11:44Z</time>
      </trkpt>
      <trkpt lat="45.02783" lon="6.53609">
        <ele>2158.3</ele>
        <time>2019-05-23T06:11:58Z</time>
      </trkpt>
      <trkpt lat="45.0278" lon="6.53607">
        <ele>2158.3</ele>
        <time>2019-05-23T06:12:18Z</time>
      </trkpt>
      <trkpt lat="45.02774" lon="6.53603">
        <ele>2159.26</ele>
        <time>2019-05-23T06:12:35Z</time>
      </trkpt>
      <trkpt lat="45.02765" lon="6.536">
        <ele>2161.18</ele>
        <time>2019-05-23T06:12:52Z</time>
      </trkpt>
      <trkpt lat="45.02759" lon="6.53597">
        <ele>2163.58</ele>
        <time>2019-05-23T06:13:05Z</time>
      </trkpt>
      <trkpt lat="45.02748" lon="6.53594">
        <ele>2165.99</ele>
        <time>2019-05-23T06:13:22Z</time>
      </trkpt>
      <trkpt lat="45.02746" lon="6.53596">
        <ele>2166.95</ele>
        <time>2019-05-23T06:13:36Z</time>
      </trkpt>
      <trkpt lat="45.02742" lon="6.53592">
        <ele>2167.43</ele>
        <time>2019-05-23T06:13:57Z</time>
      </trkpt>
      <trkpt lat="45.02736" lon="6.536">
        <ele>2168.39</ele>
        <time>2019-05-23T06:14:11Z</time>
      </trkpt>
      <trkpt lat="45.02731" lon="6.53596">
        <ele>2169.83</ele>
        <time>2019-05-23T06:14:23Z</time>
      </trkpt>
      <trkpt lat="45.02725" lon="6.53595">
        <ele>2171.27</ele>
        <time>2019-05-23T06:14:35Z</time>
      </trkpt>
      <trkpt lat="45.02722" lon="6.53596">
        <ele>2171.76</ele>
        <time>2019-05-23T06:14:48Z</time>
      </trkpt>
      <trkpt lat="45.02717" lon="6.53594">
        <ele>2172.72</ele>
        <time>2019-05-23T06:15:08Z</time>
      </trkpt>
      <trkpt lat="45.02713" lon="6.53594">
        <ele>2172.72</ele>
        <time>2019-05-23T06:15:22Z</time>
      </trkpt>
      <trkpt lat="45.02711" lon="6.53595">
        <ele>2173.2</ele>
        <time>2019-05-23T06:15:37Z</time>
      </trkpt>
      <trkpt lat="45.02711" lon="6.53597">
        <ele>2174.16</ele>
        <time>2019-05-23T06:15:51Z</time>
      </trkpt>
      <trkpt lat="45.02702" lon="6.53594">
        <ele>2175.6</ele>
        <time>2019-05-23T06:16:05Z</time>
      </trkpt>
      <trkpt lat="45.02696" lon="6.53594">
        <ele>2176.08</ele>
        <time>2019-05-23T06:16:22Z</time>
      </trkpt>
      <trkpt lat="45.02687" lon="6.53593">
        <ele>2177.52</ele>
        <time>2019-05-23T06:16:36Z</time>
      </trkpt>
      <trkpt lat="45.02678" lon="6.53593">
        <ele>2177.52</ele>
        <time>2019-05-23T06:16:51Z</time>
      </trkpt>
      <trkpt lat="45.02671" lon="6.53594">
        <ele>2178.97</ele>
        <time>2019-05-23T06:17:05Z</time>
      </trkpt>
      <trkpt lat="45.02665" lon="6.53594">
        <ele>2180.89</ele>
        <time>2019-05-23T06:17:21Z</time>
      </trkpt>
      <trkpt lat="45.02658" lon="6.53592">
        <ele>2182.81</ele>
        <time>2019-05-23T06:17:36Z</time>
      </trkpt>
      <trkpt lat="45.02649" lon="6.5359">
        <ele>2184.73</ele>
        <time>2019-05-23T06:17:53Z</time>
      </trkpt>
      <trkpt lat="45.02645" lon="6.53593">
        <ele>2186.18</ele>
        <time>2019-05-23T06:18:06Z</time>
      </trkpt>
      <trkpt lat="45.02637" lon="6.53593">
        <ele>2187.62</ele>
        <time>2019-05-23T06:18:20Z</time>
      </trkpt>
      <trkpt lat="45.02635" lon="6.53593">
        <ele>2188.1</ele>
        <time>2019-05-23T06:18:24Z</time>
      </trkpt>
      <trkpt lat="45.0263" lon="6.53596">
        <ele>2190.02</ele>
        <time>2019-05-23T06:18:39Z</time>
      </trkpt>
      <trkpt lat="45.02629" lon="6.53595">
        <ele>2190.02</ele>
        <time>2019-05-23T06:19:04Z</time>
      </trkpt>
      <trkpt lat="45.02622" lon="6.53593">
        <ele>2191.46</ele>
        <time>2019-05-23T06:19:17Z</time>
      </trkpt>
      <trkpt lat="45.02613" lon="6.53594">
        <ele>2192.9</ele>
        <time>2019-05-23T06:19:31Z</time>
      </trkpt>
      <trkpt lat="45.02604" lon="6.53593">
        <ele>2194.35</ele>
        <time>2019-05-23T06:19:46Z</time>
      </trkpt>
      <trkpt lat="45.02596" lon="6.53591">
        <ele>2195.31</ele>
        <time>2019-05-23T06:20:00Z</time>
      </trkpt>
      <trkpt lat="45.02588" lon="6.53589">
        <ele>2196.27</ele>
        <time>2019-05-23T06:20:13Z</time>
      </trkpt>
      <trkpt lat="45.02578" lon="6.53585">
        <ele>2197.71</ele>
        <time>2019-05-23T06:20:29Z</time>
      </trkpt>
      <trkpt lat="45.0257" lon="6.53583">
        <ele>2199.63</ele>
        <time>2019-05-23T06:20:45Z</time>
      </trkpt>
      <trkpt lat="45.02563" lon="6.53584">
        <ele>2201.08</ele>
        <time>2019-05-23T06:21:00Z</time>
      </trkpt>
      <trkpt lat="45.02558" lon="6.53583">
        <ele>2202.52</ele>
        <time>2019-05-23T06:21:13Z</time>
      </trkpt>
      <trkpt lat="45.0255" lon="6.53577">
        <ele>2203.96</ele>
        <time>2019-05-23T06:21:31Z</time>
      </trkpt>
      <trkpt lat="45.02543" lon="6.53575">
        <ele>2206.36</ele>
        <time>2019-05-23T06:21:51Z</time>
      </trkpt>
      <trkpt lat="45.02542" lon="6.53573">
        <ele>2207.32</ele>
        <time>2019-05-23T06:22:10Z</time>
      </trkpt>
      <trkpt lat="45.02539" lon="6.53572">
        <ele>2208.29</ele>
        <time>2019-05-23T06:22:31Z</time>
      </trkpt>
      <trkpt lat="45.02533" lon="6.53564">
        <ele>2210.21</ele>
        <time>2019-05-23T06:22:47Z</time>
      </trkpt>
      <trkpt lat="45.0253" lon="6.53557">
        <ele>2211.65</ele>
        <time>2019-05-23T06:23:01Z</time>
      </trkpt>
      <trkpt lat="45.02524" lon="6.53558">
        <ele>2213.57</ele>
        <time>2019-05-23T06:23:17Z</time>
      </trkpt>
      <trkpt lat="45.0252" lon="6.53567">
        <ele>2215.5</ele>
        <time>2019-05-23T06:23:32Z</time>
      </trkpt>
      <trkpt lat="45.02516" lon="6.53559">
        <ele>2216.94</ele>
        <time>2019-05-23T06:23:44Z</time>
      </trkpt>
      <trkpt lat="45.02512" lon="6.53548">
        <ele>2219.82</ele>
        <time>2019-05-23T06:23:58Z</time>
      </trkpt>
      <trkpt lat="45.02509" lon="6.53543">
        <ele>2220.3</ele>
        <time>2019-05-23T06:24:14Z</time>
      </trkpt>
      <trkpt lat="45.02508" lon="6.53538">
        <ele>2221.26</ele>
        <time>2019-05-23T06:24:30Z</time>
      </trkpt>
      <trkpt lat="45.02507" lon="6.53545">
        <ele>2222.22</ele>
        <time>2019-05-23T06:24:49Z</time>
      </trkpt>
      <trkpt lat="45.02499" lon="6.53545">
        <ele>2223.19</ele>
        <time>2019-05-23T06:25:06Z</time>
      </trkpt>
      <trkpt lat="45.02498" lon="6.53539">
        <ele>2223.67</ele>
        <time>2019-05-23T06:25:21Z</time>
      </trkpt>
      <trkpt lat="45.02497" lon="6.53535">
        <ele>2224.15</ele>
        <time>2019-05-23T06:25:47Z</time>
      </trkpt>
      <trkpt lat="45.02497" lon="6.53535">
        <ele>2224.15</ele>
        <time>2019-05-23T06:26:14Z</time>
      </trkpt>
      <trkpt lat="45.02495" lon="6.53545">
        <ele>2224.63</ele>
        <time>2019-05-23T06:26:32Z</time>
      </trkpt>
      <trkpt lat="45.02493" lon="6.53549">
        <ele>2224.63</ele>
        <time>2019-05-23T06:26:48Z</time>
      </trkpt>
      <trkpt lat="45.02493" lon="6.53556">
        <ele>2226.55</ele>
        <time>2019-05-23T06:27:01Z</time>
      </trkpt>
      <trkpt lat="45.0249" lon="6.53553">
        <ele>2228.47</ele>
        <time>2019-05-23T06:27:15Z</time>
      </trkpt>
      <trkpt lat="45.02483" lon="6.53556">
        <ele>2230.88</ele>
        <time>2019-05-23T06:27:30Z</time>
      </trkpt>
      <trkpt lat="45.02475" lon="6.5356">
        <ele>2232.32</ele>
        <time>2019-05-23T06:27:44Z</time>
      </trkpt>
      <trkpt lat="45.02467" lon="6.5356">
        <ele>2234.72</ele>
        <time>2019-05-23T06:28:00Z</time>
      </trkpt>
      <trkpt lat="45.02463" lon="6.53561">
        <ele>2235.68</ele>
        <time>2019-05-23T06:28:14Z</time>
      </trkpt>
      <trkpt lat="45.02459" lon="6.53558">
        <ele>2236.64</ele>
        <time>2019-05-23T06:28:25Z</time>
      </trkpt>
      <trkpt lat="45.02449" lon="6.53555">
        <ele>2237.13</ele>
        <time>2019-05-23T06:28:39Z</time>
      </trkpt>
      <trkpt lat="45.02442" lon="6.53552">
        <ele>2237.13</ele>
        <time>2019-05-23T06:28:54Z</time>
      </trkpt>
      <trkpt lat="45.02435" lon="6.53551">
        <ele>2238.09</ele>
        <time>2019-05-23T06:29:06Z</time>
      </trkpt>
      <trkpt lat="45.02431" lon="6.53555">
        <ele>2239.05</ele>
        <time>2019-05-23T06:29:18Z</time>
      </trkpt>
      <trkpt lat="45.02424" lon="6.53562">
        <ele>2241.45</ele>
        <time>2019-05-23T06:29:34Z</time>
      </trkpt>
      <trkpt lat="45.02422" lon="6.53557">
        <ele>2242.41</ele>
        <time>2019-05-23T06:29:49Z</time>
      </trkpt>
      <trkpt lat="45.02419" lon="6.5355">
        <ele>2245.3</ele>
        <time>2019-05-23T06:30:02Z</time>
      </trkpt>
      <trkpt lat="45.02411" lon="6.53543">
        <ele>2246.26</ele>
        <time>2019-05-23T06:30:16Z</time>
      </trkpt>
      <trkpt lat="45.02407" lon="6.53541">
        <ele>2246.74</ele>
        <time>2019-05-23T06:30:26Z</time>
      </trkpt>
      <trkpt lat="45.02403" lon="6.53542">
        <ele>2246.26</ele>
        <time>2019-05-23T06:30:40Z</time>
      </trkpt>
      <trkpt lat="45.0239" lon="6.53537">
        <ele>2246.74</ele>
        <time>2019-05-23T06:30:56Z</time>
      </trkpt>
      <trkpt lat="45.02376" lon="6.5353">
        <ele>2246.26</ele>
        <time>2019-05-23T06:31:12Z</time>
      </trkpt>
      <trkpt lat="45.02373" lon="6.5353">
        <ele>2246.26</ele>
        <time>2019-05-23T06:31:16Z</time>
      </trkpt>
      <trkpt lat="45.02362" lon="6.53528">
        <ele>2246.74</ele>
        <time>2019-05-23T06:31:30Z</time>
      </trkpt>
      <trkpt lat="45.02352" lon="6.53528">
        <ele>2247.7</ele>
        <time>2019-05-23T06:31:43Z</time>
      </trkpt>
      <trkpt lat="45.02341" lon="6.53528">
        <ele>2248.18</ele>
        <time>2019-05-23T06:31:57Z</time>
      </trkpt>
      <trkpt lat="45.0233" lon="6.53527">
        <ele>2249.14</ele>
        <time>2019-05-23T06:32:11Z</time>
      </trkpt>
      <trkpt lat="45.02319" lon="6.53528">
        <ele>2250.58</ele>
        <time>2019-05-23T06:32:26Z</time>
      </trkpt>
      <trkpt lat="45.02308" lon="6.53528">
        <ele>2251.06</ele>
        <time>2019-05-23T06:32:40Z</time>
      </trkpt>
      <trkpt lat="45.02296" lon="6.53527">
        <ele>2251.06</ele>
        <time>2019-05-23T06:32:55Z</time>
      </trkpt>
      <trkpt lat="45.02283" lon="6.53527">
        <ele>2252.03</ele>
        <time>2019-05-23T06:33:10Z</time>
      </trkpt>
      <trkpt lat="45.02272" lon="6.5353">
        <ele>2252.99</ele>
        <time>2019-05-23T06:33:24Z</time>
      </trkpt>
      <trkpt lat="45.02261" lon="6.53533">
        <ele>2254.91</ele>
        <time>2019-05-23T06:33:40Z</time>
      </trkpt>
      <trkpt lat="45.02252" lon="6.53533">
        <ele>2256.35</ele>
        <time>2019-05-23T06:33:54Z</time>
      </trkpt>
      <trkpt lat="45.02244" lon="6.53528">
        <ele>2257.31</ele>
        <time>2019-05-23T06:34:08Z</time>
      </trkpt>
      <trkpt lat="45.02236" lon="6.53524">
        <ele>2258.27</ele>
        <time>2019-05-23T06:34:21Z</time>
      </trkpt>
      <trkpt lat="45.02226" lon="6.53517">
        <ele>2257.31</ele>
        <time>2019-05-23T06:34:34Z</time>
      </trkpt>
      <trkpt lat="45.02217" lon="6.53508">
        <ele>2258.27</ele>
        <time>2019-05-23T06:34:50Z</time>
      </trkpt>
      <trkpt lat="45.02209" lon="6.53503">
        <ele>2260.68</ele>
        <time>2019-05-23T06:35:08Z</time>
      </trkpt>
      <trkpt lat="45.02202" lon="6.53497">
        <ele>2262.6</ele>
        <time>2019-05-23T06:35:23Z</time>
      </trkpt>
      <trkpt lat="45.02196" lon="6.53496">
        <ele>2263.56</ele>
        <time>2019-05-23T06:35:36Z</time>
      </trkpt>
      <trkpt lat="45.02189" lon="6.5349">
        <ele>2265.48</ele>
        <time>2019-05-23T06:35:51Z</time>
      </trkpt>
      <trkpt lat="45.02179" lon="6.53489">
        <ele>2268.37</ele>
        <time>2019-05-23T06:36:13Z</time>
      </trkpt>
      <trkpt lat="45.02173" lon="6.5349">
        <ele>2269.33</ele>
        <time>2019-05-23T06:36:27Z</time>
      </trkpt>
      <trkpt lat="45.02167" lon="6.53485">
        <ele>2269.33</ele>
        <time>2019-05-23T06:36:41Z</time>
      </trkpt>
      <trkpt lat="45.02162" lon="6.53475">
        <ele>2269.81</ele>
        <time>2019-05-23T06:36:59Z</time>
      </trkpt>
      <trkpt lat="45.02158" lon="6.53465">
        <ele>2271.73</ele>
        <time>2019-05-23T06:37:18Z</time>
      </trkpt>
      <trkpt lat="45.02155" lon="6.53453">
        <ele>2273.66</ele>
        <time>2019-05-23T06:37:38Z</time>
      </trkpt>
      <trkpt lat="45.02148" lon="6.53444">
        <ele>2275.58</ele>
        <time>2019-05-23T06:37:54Z</time>
      </trkpt>
      <trkpt lat="45.02144" lon="6.53437">
        <ele>2277.5</ele>
        <time>2019-05-23T06:38:10Z</time>
      </trkpt>
      <trkpt lat="45.0214" lon="6.53435">
        <ele>2279.42</ele>
        <time>2019-05-23T06:38:26Z</time>
      </trkpt>
      <trkpt lat="45.02136" lon="6.53434">
        <ele>2280.87</ele>
        <time>2019-05-23T06:38:40Z</time>
      </trkpt>
      <trkpt lat="45.02128" lon="6.53434">
        <ele>2282.31</ele>
        <time>2019-05-23T06:38:59Z</time>
      </trkpt>
      <trkpt lat="45.02127" lon="6.53437">
        <ele>2282.31</ele>
        <time>2019-05-23T06:39:22Z</time>
      </trkpt>
      <trkpt lat="45.02128" lon="6.53438">
        <ele>2281.83</ele>
        <time>2019-05-23T06:39:49Z</time>
      </trkpt>
      <trkpt lat="45.02128" lon="6.53439">
        <ele>2282.31</ele>
        <time>2019-05-23T06:40:12Z</time>
      </trkpt>
      <trkpt lat="45.0213" lon="6.53443">
        <ele>2282.31</ele>
        <time>2019-05-23T06:40:32Z</time>
      </trkpt>
      <trkpt lat="45.02127" lon="6.53441">
        <ele>2282.79</ele>
        <time>2019-05-23T06:41:00Z</time>
      </trkpt>
      <trkpt lat="45.02126" lon="6.5344">
        <ele>2282.79</ele>
        <time>2019-05-23T06:41:19Z</time>
      </trkpt>
      <trkpt lat="45.02127" lon="6.53443">
        <ele>2283.27</ele>
        <time>2019-05-23T06:41:37Z</time>
      </trkpt>
      <trkpt lat="45.02128" lon="6.53442">
        <ele>2283.75</ele>
        <time>2019-05-23T06:41:56Z</time>
      </trkpt>
      <trkpt lat="45.02125" lon="6.53443">
        <ele>2283.75</ele>
        <time>2019-05-23T06:42:07Z</time>
      </trkpt>
      <trkpt lat="45.02121" lon="6.53445">
        <ele>2284.23</ele>
        <time>2019-05-23T06:42:20Z</time>
      </trkpt>
      <trkpt lat="45.02115" lon="6.53449">
        <ele>2284.71</ele>
        <time>2019-05-23T06:42:32Z</time>
      </trkpt>
      <trkpt lat="45.02108" lon="6.5345">
        <ele>2286.15</ele>
        <time>2019-05-23T06:42:45Z</time>
      </trkpt>
      <trkpt lat="45.021" lon="6.53451">
        <ele>2287.59</ele>
        <time>2019-05-23T06:42:59Z</time>
      </trkpt>
      <trkpt lat="45.02099" lon="6.53451">
        <ele>2288.08</ele>
        <time>2019-05-23T06:43:15Z</time>
      </trkpt>
      <trkpt lat="45.02091" lon="6.53453">
        <ele>2288.08</ele>
        <time>2019-05-23T06:43:31Z</time>
      </trkpt>
      <trkpt lat="45.02086" lon="6.53455">
        <ele>2288.56</ele>
        <time>2019-05-23T06:43:48Z</time>
      </trkpt>
      <trkpt lat="45.02079" lon="6.53461">
        <ele>2289.04</ele>
        <time>2019-05-23T06:44:04Z</time>
      </trkpt>
      <trkpt lat="45.02072" lon="6.53465">
        <ele>2290</ele>
        <time>2019-05-23T06:44:20Z</time>
      </trkpt>
      <trkpt lat="45.02064" lon="6.5347">
        <ele>2290.96</ele>
        <time>2019-05-23T06:44:33Z</time>
      </trkpt>
      <trkpt lat="45.02057" lon="6.53473">
        <ele>2292.88</ele>
        <time>2019-05-23T06:44:48Z</time>
      </trkpt>
      <trkpt lat="45.02048" lon="6.53474">
        <ele>2293.84</ele>
        <time>2019-05-23T06:45:04Z</time>
      </trkpt>
      <trkpt lat="45.02044" lon="6.53472">
        <ele>2294.8</ele>
        <time>2019-05-23T06:45:16Z</time>
      </trkpt>
      <trkpt lat="45.02037" lon="6.5347">
        <ele>2296.73</ele>
        <time>2019-05-23T06:45:31Z</time>
      </trkpt>
      <trkpt lat="45.02032" lon="6.53468">
        <ele>2297.69</ele>
        <time>2019-05-23T06:45:42Z</time>
      </trkpt>
      <trkpt lat="45.02025" lon="6.53465">
        <ele>2298.65</ele>
        <time>2019-05-23T06:45:56Z</time>
      </trkpt>
      <trkpt lat="45.02019" lon="6.53462">
        <ele>2299.61</ele>
        <time>2019-05-23T06:46:09Z</time>
      </trkpt>
      <trkpt lat="45.02014" lon="6.53464">
        <ele>2301.53</ele>
        <time>2019-05-23T06:46:24Z</time>
      </trkpt>
      <trkpt lat="45.0201" lon="6.53463">
        <ele>2302.01</ele>
        <time>2019-05-23T06:46:38Z</time>
      </trkpt>
      <trkpt lat="45.02011" lon="6.53463">
        <ele>2302.01</ele>
        <time>2019-05-23T06:46:55Z</time>
      </trkpt>
      <trkpt lat="45.02009" lon="6.5346">
        <ele>2302.49</ele>
        <time>2019-05-23T06:47:14Z</time>
      </trkpt>
      <trkpt lat="45.02009" lon="6.53462">
        <ele>2302.49</ele>
        <time>2019-05-23T06:47:40Z</time>
      </trkpt>
      <trkpt lat="45.02003" lon="6.53461">
        <ele>2302.49</ele>
        <time>2019-05-23T06:47:53Z</time>
      </trkpt>
      <trkpt lat="45.01997" lon="6.53465">
        <ele>2302.01</ele>
        <time>2019-05-23T06:48:02Z</time>
      </trkpt>
      <trkpt lat="45.01989" lon="6.53467">
        <ele>2301.53</ele>
        <time>2019-05-23T06:48:15Z</time>
      </trkpt>
      <trkpt lat="45.0198" lon="6.53469">
        <ele>2301.53</ele>
        <time>2019-05-23T06:48:29Z</time>
      </trkpt>
      <trkpt lat="45.01971" lon="6.5347">
        <ele>2301.53</ele>
        <time>2019-05-23T06:48:43Z</time>
      </trkpt>
      <trkpt lat="45.01961" lon="6.53472">
        <ele>2302.49</ele>
        <time>2019-05-23T06:48:58Z</time>
      </trkpt>
      <trkpt lat="45.01955" lon="6.53472">
        <ele>2303.94</ele>
        <time>2019-05-23T06:49:12Z</time>
      </trkpt>
      <trkpt lat="45.0195" lon="6.53472">
        <ele>2303.46</ele>
        <time>2019-05-23T06:49:22Z</time>
      </trkpt>
      <trkpt lat="45.01944" lon="6.53469">
        <ele>2305.86</ele>
        <time>2019-05-23T06:49:38Z</time>
      </trkpt>
      <trkpt lat="45.01937" lon="6.53466">
        <ele>2307.3</ele>
        <time>2019-05-23T06:49:50Z</time>
      </trkpt>
      <trkpt lat="45.01933" lon="6.53461">
        <ele>2308.74</ele>
        <time>2019-05-23T06:50:04Z</time>
      </trkpt>
      <trkpt lat="45.01925" lon="6.53457">
        <ele>2310.67</ele>
        <time>2019-05-23T06:50:22Z</time>
      </trkpt>
      <trkpt lat="45.01918" lon="6.53452">
        <ele>2312.59</ele>
        <time>2019-05-23T06:50:37Z</time>
      </trkpt>
      <trkpt lat="45.01911" lon="6.53449">
        <ele>2314.03</ele>
        <time>2019-05-23T06:50:54Z</time>
      </trkpt>
      <trkpt lat="45.01909" lon="6.53449">
        <ele>2314.03</ele>
        <time>2019-05-23T06:51:09Z</time>
      </trkpt>
      <trkpt lat="45.01909" lon="6.5345">
        <ele>2314.99</ele>
        <time>2019-05-23T06:51:24Z</time>
      </trkpt>
      <trkpt lat="45.01905" lon="6.53446">
        <ele>2316.43</ele>
        <time>2019-05-23T06:51:42Z</time>
      </trkpt>
      <trkpt lat="45.01897" lon="6.53444">
        <ele>2317.88</ele>
        <time>2019-05-23T06:51:58Z</time>
      </trkpt>
      <trkpt lat="45.01896" lon="6.53443">
        <ele>2321.24</ele>
        <time>2019-05-23T06:52:07Z</time>
      </trkpt>
      <trkpt lat="45.01896" lon="6.53443">
        <ele>2319.32</ele>
        <time>2019-05-23T06:52:08Z</time>
      </trkpt>
      <trkpt lat="45.01888" lon="6.53443">
        <ele>2320.28</ele>
        <time>2019-05-23T06:52:24Z</time>
      </trkpt>
      <trkpt lat="45.0188" lon="6.5344">
        <ele>2321.24</ele>
        <time>2019-05-23T06:52:38Z</time>
      </trkpt>
      <trkpt lat="45.01874" lon="6.53438">
        <ele>2322.68</ele>
        <time>2019-05-23T06:52:54Z</time>
      </trkpt>
      <trkpt lat="45.0187" lon="6.5344">
        <ele>2324.61</ele>
        <time>2019-05-23T06:53:10Z</time>
      </trkpt>
      <trkpt lat="45.01864" lon="6.53437">
        <ele>2327.01</ele>
        <time>2019-05-23T06:53:28Z</time>
      </trkpt>
      <trkpt lat="45.0186" lon="6.53435">
        <ele>2328.45</ele>
        <time>2019-05-23T06:53:41Z</time>
      </trkpt>
      <trkpt lat="45.01856" lon="6.53434">
        <ele>2329.89</ele>
        <time>2019-05-23T06:53:56Z</time>
      </trkpt>
      <trkpt lat="45.01851" lon="6.53431">
        <ele>2331.33</ele>
        <time>2019-05-23T06:54:13Z</time>
      </trkpt>
      <trkpt lat="45.01849" lon="6.5343">
        <ele>2333.74</ele>
        <time>2019-05-23T06:54:29Z</time>
      </trkpt>
      <trkpt lat="45.01844" lon="6.5343">
        <ele>2335.18</ele>
        <time>2019-05-23T06:54:44Z</time>
      </trkpt>
      <trkpt lat="45.0184" lon="6.53429">
        <ele>2336.62</ele>
        <time>2019-05-23T06:54:58Z</time>
      </trkpt>
      <trkpt lat="45.01836" lon="6.5343">
        <ele>2338.06</ele>
        <time>2019-05-23T06:55:12Z</time>
      </trkpt>
      <trkpt lat="45.01834" lon="6.53431">
        <ele>2339.99</ele>
        <time>2019-05-23T06:55:25Z</time>
      </trkpt>
      <trkpt lat="45.0183" lon="6.53431">
        <ele>2341.91</ele>
        <time>2019-05-23T06:55:40Z</time>
      </trkpt>
      <trkpt lat="45.01826" lon="6.53433">
        <ele>2343.35</ele>
        <time>2019-05-23T06:55:54Z</time>
      </trkpt>
      <trkpt lat="45.01823" lon="6.53435">
        <ele>2344.79</ele>
        <time>2019-05-23T06:56:10Z</time>
      </trkpt>
      <trkpt lat="45.01819" lon="6.53436">
        <ele>2346.72</ele>
        <time>2019-05-23T06:56:23Z</time>
      </trkpt>
      <trkpt lat="45.01817" lon="6.53437">
        <ele>2347.68</ele>
        <time>2019-05-23T06:56:35Z</time>
      </trkpt>
      <trkpt lat="45.01813" lon="6.5344">
        <ele>2349.6</ele>
        <time>2019-05-23T06:56:49Z</time>
      </trkpt>
      <trkpt lat="45.01809" lon="6.53442">
        <ele>2350.56</ele>
        <time>2019-05-23T06:57:02Z</time>
      </trkpt>
      <trkpt lat="45.01805" lon="6.53444">
        <ele>2352</ele>
        <time>2019-05-23T06:57:16Z</time>
      </trkpt>
      <trkpt lat="45.01803" lon="6.53445">
        <ele>2353.44</ele>
        <time>2019-05-23T06:57:29Z</time>
      </trkpt>
      <trkpt lat="45.018" lon="6.53447">
        <ele>2354.89</ele>
        <time>2019-05-23T06:57:43Z</time>
      </trkpt>
      <trkpt lat="45.01798" lon="6.53443">
        <ele>2356.33</ele>
        <time>2019-05-23T06:57:59Z</time>
      </trkpt>
      <trkpt lat="45.01796" lon="6.53442">
        <ele>2357.29</ele>
        <time>2019-05-23T06:58:11Z</time>
      </trkpt>
      <trkpt lat="45.01792" lon="6.53438">
        <ele>2358.25</ele>
        <time>2019-05-23T06:58:25Z</time>
      </trkpt>
      <trkpt lat="45.01789" lon="6.53434">
        <ele>2359.21</ele>
        <time>2019-05-23T06:58:38Z</time>
      </trkpt>
      <trkpt lat="45.01787" lon="6.53428">
        <ele>2360.65</ele>
        <time>2019-05-23T06:58:53Z</time>
      </trkpt>
      <trkpt lat="45.01784" lon="6.53428">
        <ele>2362.1</ele>
        <time>2019-05-23T06:59:06Z</time>
      </trkpt>
      <trkpt lat="45.01781" lon="6.53428">
        <ele>2363.54</ele>
        <time>2019-05-23T06:59:20Z</time>
      </trkpt>
      <trkpt lat="45.01777" lon="6.53428">
        <ele>2365.46</ele>
        <time>2019-05-23T06:59:35Z</time>
      </trkpt>
      <trkpt lat="45.01774" lon="6.53429">
        <ele>2366.42</ele>
        <time>2019-05-23T06:59:50Z</time>
      </trkpt>
      <trkpt lat="45.01769" lon="6.53432">
        <ele>2367.38</ele>
        <time>2019-05-23T07:00:05Z</time>
      </trkpt>
      <trkpt lat="45.01765" lon="6.53431">
        <ele>2368.83</ele>
        <time>2019-05-23T07:00:18Z</time>
      </trkpt>
      <trkpt lat="45.01762" lon="6.53428">
        <ele>2370.27</ele>
        <time>2019-05-23T07:00:33Z</time>
      </trkpt>
      <trkpt lat="45.0176" lon="6.53425">
        <ele>2371.71</ele>
        <time>2019-05-23T07:00:49Z</time>
      </trkpt>
      <trkpt lat="45.01757" lon="6.5343">
        <ele>2373.15</ele>
        <time>2019-05-23T07:01:05Z</time>
      </trkpt>
      <trkpt lat="45.01755" lon="6.53434">
        <ele>2374.59</ele>
        <time>2019-05-23T07:01:20Z</time>
      </trkpt>
      <trkpt lat="45.01753" lon="6.53438">
        <ele>2376.04</ele>
        <time>2019-05-23T07:01:33Z</time>
      </trkpt>
      <trkpt lat="45.01753" lon="6.53437">
        <ele>2376.52</ele>
        <time>2019-05-23T07:01:49Z</time>
      </trkpt>
      <trkpt lat="45.01751" lon="6.53432">
        <ele>2377.96</ele>
        <time>2019-05-23T07:02:06Z</time>
      </trkpt>
      <trkpt lat="45.01748" lon="6.53427">
        <ele>2378.92</ele>
        <time>2019-05-23T07:02:20Z</time>
      </trkpt>
      <trkpt lat="45.01747" lon="6.53434">
        <ele>2379.4</ele>
        <time>2019-05-23T07:02:32Z</time>
      </trkpt>
      <trkpt lat="45.01746" lon="6.5344">
        <ele>2381.32</ele>
        <time>2019-05-23T07:02:47Z</time>
      </trkpt>
      <trkpt lat="45.01745" lon="6.53436">
        <ele>2381.8</ele>
        <time>2019-05-23T07:03:02Z</time>
      </trkpt>
      <trkpt lat="45.01743" lon="6.5343">
        <ele>2382.76</ele>
        <time>2019-05-23T07:03:16Z</time>
      </trkpt>
      <trkpt lat="45.0174" lon="6.53422">
        <ele>2383.73</ele>
        <time>2019-05-23T07:03:31Z</time>
      </trkpt>
      <trkpt lat="45.0174" lon="6.53417">
        <ele>2384.69</ele>
        <time>2019-05-23T07:03:44Z</time>
      </trkpt>
      <trkpt lat="45.01741" lon="6.53417">
        <ele>2384.69</ele>
        <time>2019-05-23T07:04:06Z</time>
      </trkpt>
      <trkpt lat="45.0174" lon="6.53417">
        <ele>2385.17</ele>
        <time>2019-05-23T07:04:38Z</time>
      </trkpt>
      <trkpt lat="45.01741" lon="6.53417">
        <ele>2385.17</ele>
        <time>2019-05-23T07:04:59Z</time>
      </trkpt>
      <trkpt lat="45.01742" lon="6.53417">
        <ele>2385.17</ele>
        <time>2019-05-23T07:05:25Z</time>
      </trkpt>
      <trkpt lat="45.01741" lon="6.53416">
        <ele>2385.17</ele>
        <time>2019-05-23T07:05:57Z</time>
      </trkpt>
      <trkpt lat="45.01743" lon="6.53406">
        <ele>2389.01</ele>
        <time>2019-05-23T07:06:13Z</time>
      </trkpt>
      <trkpt lat="45.0174" lon="6.53399">
        <ele>2389.01</ele>
        <time>2019-05-23T07:06:31Z</time>
      </trkpt>
      <trkpt lat="45.0174" lon="6.534">
        <ele>2389.49</ele>
        <time>2019-05-23T07:06:52Z</time>
      </trkpt>
      <trkpt lat="45.01735" lon="6.53401">
        <ele>2391.42</ele>
        <time>2019-05-23T07:07:06Z</time>
      </trkpt>
      <trkpt lat="45.01734" lon="6.53395">
        <ele>2392.38</ele>
        <time>2019-05-23T07:07:17Z</time>
      </trkpt>
      <trkpt lat="45.01733" lon="6.53389">
        <ele>2393.82</ele>
        <time>2019-05-23T07:07:30Z</time>
      </trkpt>
      <trkpt lat="45.01733" lon="6.53383">
        <ele>2395.26</ele>
        <time>2019-05-23T07:07:42Z</time>
      </trkpt>
      <trkpt lat="45.01728" lon="6.53381">
        <ele>2397.18</ele>
        <time>2019-05-23T07:07:58Z</time>
      </trkpt>
      <trkpt lat="45.01724" lon="6.53378">
        <ele>2398.63</ele>
        <time>2019-05-23T07:08:12Z</time>
      </trkpt>
      <trkpt lat="45.0172" lon="6.53375">
        <ele>2400.07</ele>
        <time>2019-05-23T07:08:26Z</time>
      </trkpt>
      <trkpt lat="45.01716" lon="6.53372">
        <ele>2401.03</ele>
        <time>2019-05-23T07:08:39Z</time>
      </trkpt>
      <trkpt lat="45.01714" lon="6.53369">
        <ele>2402.47</ele>
        <time>2019-05-23T07:08:52Z</time>
      </trkpt>
      <trkpt lat="45.0171" lon="6.53365">
        <ele>2403.91</ele>
        <time>2019-05-23T07:09:05Z</time>
      </trkpt>
      <trkpt lat="45.01707" lon="6.53361">
        <ele>2404.88</ele>
        <time>2019-05-23T07:09:19Z</time>
      </trkpt>
      <trkpt lat="45.01706" lon="6.53357">
        <ele>2406.32</ele>
        <time>2019-05-23T07:09:32Z</time>
      </trkpt>
      <trkpt lat="45.01705" lon="6.53353">
        <ele>2407.76</ele>
        <time>2019-05-23T07:09:44Z</time>
      </trkpt>
      <trkpt lat="45.01704" lon="6.53347">
        <ele>2409.2</ele>
        <time>2019-05-23T07:09:59Z</time>
      </trkpt>
      <trkpt lat="45.017" lon="6.53344">
        <ele>2410.64</ele>
        <time>2019-05-23T07:10:13Z</time>
      </trkpt>
      <trkpt lat="45.01697" lon="6.53341">
        <ele>2412.09</ele>
        <time>2019-05-23T07:10:26Z</time>
      </trkpt>
      <trkpt lat="45.01693" lon="6.5334">
        <ele>2413.53</ele>
        <time>2019-05-23T07:10:38Z</time>
      </trkpt>
      <trkpt lat="45.0169" lon="6.53338">
        <ele>2414.97</ele>
        <time>2019-05-23T07:10:52Z</time>
      </trkpt>
      <trkpt lat="45.01686" lon="6.53337">
        <ele>2416.41</ele>
        <time>2019-05-23T07:11:06Z</time>
      </trkpt>
      <trkpt lat="45.01683" lon="6.53335">
        <ele>2417.85</ele>
        <time>2019-05-23T07:11:20Z</time>
      </trkpt>
      <trkpt lat="45.01679" lon="6.53333">
        <ele>2419.78</ele>
        <time>2019-05-23T07:11:34Z</time>
      </trkpt>
      <trkpt lat="45.01678" lon="6.5333">
        <ele>2420.74</ele>
        <time>2019-05-23T07:11:45Z</time>
      </trkpt>
      <trkpt lat="45.01677" lon="6.53326">
        <ele>2421.22</ele>
        <time>2019-05-23T07:12:01Z</time>
      </trkpt>
      <trkpt lat="45.01675" lon="6.53327">
        <ele>2421.7</ele>
        <time>2019-05-23T07:12:15Z</time>
      </trkpt>
      <trkpt lat="45.01673" lon="6.53325">
        <ele>2421.7</ele>
        <time>2019-05-23T07:12:28Z</time>
      </trkpt>
      <trkpt lat="45.01668" lon="6.53324">
        <ele>2422.18</ele>
        <time>2019-05-23T07:12:42Z</time>
      </trkpt>
      <trkpt lat="45.01661" lon="6.53318">
        <ele>2424.1</ele>
        <time>2019-05-23T07:12:56Z</time>
      </trkpt>
      <trkpt lat="45.01653" lon="6.53313">
        <ele>2425.06</ele>
        <time>2019-05-23T07:13:08Z</time>
      </trkpt>
      <trkpt lat="45.01649" lon="6.5331">
        <ele>2426.02</ele>
        <time>2019-05-23T07:13:24Z</time>
      </trkpt>
      <trkpt lat="45.01648" lon="6.53312">
        <ele>2426.5</ele>
        <time>2019-05-23T07:13:39Z</time>
      </trkpt>
      <trkpt lat="45.01646" lon="6.53313">
        <ele>2426.99</ele>
        <time>2019-05-23T07:13:53Z</time>
      </trkpt>
      <trkpt lat="45.01647" lon="6.53312">
        <ele>2426.02</ele>
        <time>2019-05-23T07:14:08Z</time>
      </trkpt>
      <trkpt lat="45.01644" lon="6.53314">
        <ele>2425.54</ele>
        <time>2019-05-23T07:14:39Z</time>
      </trkpt>
      <trkpt lat="45.01642" lon="6.53316">
        <ele>2426.02</ele>
        <time>2019-05-23T07:15:04Z</time>
      </trkpt>
      <trkpt lat="45.01641" lon="6.53316">
        <ele>2426.02</ele>
        <time>2019-05-23T07:15:37Z</time>
      </trkpt>
      <trkpt lat="45.01643" lon="6.53312">
        <ele>2426.02</ele>
        <time>2019-05-23T07:16:06Z</time>
      </trkpt>
      <trkpt lat="45.01648" lon="6.53311">
        <ele>2426.5</ele>
        <time>2019-05-23T07:16:42Z</time>
      </trkpt>
      <trkpt lat="45.01648" lon="6.5331">
        <ele>2426.5</ele>
        <time>2019-05-23T07:17:13Z</time>
      </trkpt>
      <trkpt lat="45.01643" lon="6.53314">
        <ele>2426.5</ele>
        <time>2019-05-23T07:17:47Z</time>
      </trkpt>
      <trkpt lat="45.01646" lon="6.53308">
        <ele>2426.99</ele>
        <time>2019-05-23T07:18:26Z</time>
      </trkpt>
      <trkpt lat="45.01645" lon="6.53314">
        <ele>2426.99</ele>
        <time>2019-05-23T07:18:58Z</time>
      </trkpt>
      <trkpt lat="45.01643" lon="6.53315">
        <ele>2426.99</ele>
        <time>2019-05-23T07:19:28Z</time>
      </trkpt>
      <trkpt lat="45.01644" lon="6.53313">
        <ele>2426.99</ele>
        <time>2019-05-23T07:20:03Z</time>
      </trkpt>
      <trkpt lat="45.01646" lon="6.53313">
        <ele>2427.95</ele>
        <time>2019-05-23T07:20:19Z</time>
      </trkpt>
      <trkpt lat="45.01645" lon="6.53312">
        <ele>2427.95</ele>
        <time>2019-05-23T07:20:32Z</time>
      </trkpt>
      <trkpt lat="45.01646" lon="6.53317">
        <ele>2427.95</ele>
        <time>2019-05-23T07:20:49Z</time>
      </trkpt>
      <trkpt lat="45.01643" lon="6.53313">
        <ele>2428.43</ele>
        <time>2019-05-23T07:21:08Z</time>
      </trkpt>
      <trkpt lat="45.01635" lon="6.53314">
        <ele>2428.43</ele>
        <time>2019-05-23T07:21:20Z</time>
      </trkpt>
      <trkpt lat="45.01625" lon="6.53317">
        <ele>2428.91</ele>
        <time>2019-05-23T07:21:35Z</time>
      </trkpt>
      <trkpt lat="45.01614" lon="6.53319">
        <ele>2429.39</ele>
        <time>2019-05-23T07:21:50Z</time>
      </trkpt>
      <trkpt lat="45.01606" lon="6.53318">
        <ele>2429.39</ele>
        <time>2019-05-23T07:22:03Z</time>
      </trkpt>
      <trkpt lat="45.01598" lon="6.53321">
        <ele>2430.35</ele>
        <time>2019-05-23T07:22:17Z</time>
      </trkpt>
      <trkpt lat="45.01595" lon="6.53327">
        <ele>2431.31</ele>
        <time>2019-05-23T07:22:31Z</time>
      </trkpt>
      <trkpt lat="45.01594" lon="6.5333">
        <ele>2432.75</ele>
        <time>2019-05-23T07:22:43Z</time>
      </trkpt>
      <trkpt lat="45.01592" lon="6.53334">
        <ele>2434.2</ele>
        <time>2019-05-23T07:23:00Z</time>
      </trkpt>
      <trkpt lat="45.01589" lon="6.53338">
        <ele>2435.16</ele>
        <time>2019-05-23T07:23:13Z</time>
      </trkpt>
      <trkpt lat="45.01585" lon="6.53341">
        <ele>2437.08</ele>
        <time>2019-05-23T07:23:26Z</time>
      </trkpt>
      <trkpt lat="45.01579" lon="6.53344">
        <ele>2437.56</ele>
        <time>2019-05-23T07:23:39Z</time>
      </trkpt>
      <trkpt lat="45.01573" lon="6.53352">
        <ele>2438.52</ele>
        <time>2019-05-23T07:23:53Z</time>
      </trkpt>
      <trkpt lat="45.01566" lon="6.53356">
        <ele>2439.48</ele>
        <time>2019-05-23T07:24:08Z</time>
      </trkpt>
      <trkpt lat="45.01562" lon="6.53365">
        <ele>2440.44</ele>
        <time>2019-05-23T07:24:20Z</time>
      </trkpt>
      <trkpt lat="45.01558" lon="6.53375">
        <ele>2440.44</ele>
        <time>2019-05-23T07:24:33Z</time>
      </trkpt>
      <trkpt lat="45.01551" lon="6.53383">
        <ele>2441.41</ele>
        <time>2019-05-23T07:24:48Z</time>
      </trkpt>
      <trkpt lat="45.01541" lon="6.5339">
        <ele>2441.41</ele>
        <time>2019-05-23T07:25:05Z</time>
      </trkpt>
      <trkpt lat="45.01531" lon="6.53394">
        <ele>2441.89</ele>
        <time>2019-05-23T07:25:21Z</time>
      </trkpt>
      <trkpt lat="45.0152" lon="6.53401">
        <ele>2442.37</ele>
        <time>2019-05-23T07:25:36Z</time>
      </trkpt>
      <trkpt lat="45.01515" lon="6.53405">
        <ele>2441.89</ele>
        <time>2019-05-23T07:25:47Z</time>
      </trkpt>
      <trkpt lat="45.0151" lon="6.534">
        <ele>2441.41</ele>
        <time>2019-05-23T07:25:56Z</time>
      </trkpt>
      <trkpt lat="45.01503" lon="6.5339">
        <ele>2441.41</ele>
        <time>2019-05-23T07:26:10Z</time>
      </trkpt>
      <trkpt lat="45.015" lon="6.53387">
        <ele>2441.89</ele>
        <time>2019-05-23T07:26:17Z</time>
      </trkpt>
      <trkpt lat="45.01491" lon="6.5338">
        <ele>2442.37</ele>
        <time>2019-05-23T07:26:32Z</time>
      </trkpt>
      <trkpt lat="45.01482" lon="6.53376">
        <ele>2442.85</ele>
        <time>2019-05-23T07:26:48Z</time>
      </trkpt>
      <trkpt lat="45.01476" lon="6.53373">
        <ele>2443.81</ele>
        <time>2019-05-23T07:27:00Z</time>
      </trkpt>
      <trkpt lat="45.01469" lon="6.53369">
        <ele>2444.77</ele>
        <time>2019-05-23T07:27:16Z</time>
      </trkpt>
      <trkpt lat="45.01461" lon="6.53366">
        <ele>2446.21</ele>
        <time>2019-05-23T07:27:29Z</time>
      </trkpt>
      <trkpt lat="45.01456" lon="6.53365">
        <ele>2448.13</ele>
        <time>2019-05-23T07:27:44Z</time>
      </trkpt>
      <trkpt lat="45.0145" lon="6.53361">
        <ele>2449.1</ele>
        <time>2019-05-23T07:27:56Z</time>
      </trkpt>
      <trkpt lat="45.01445" lon="6.53356">
        <ele>2450.06</ele>
        <time>2019-05-23T07:28:09Z</time>
      </trkpt>
      <trkpt lat="45.01437" lon="6.5335">
        <ele>2451.02</ele>
        <time>2019-05-23T07:28:25Z</time>
      </trkpt>
      <trkpt lat="45.0143" lon="6.53346">
        <ele>2452.46</ele>
        <time>2019-05-23T07:28:40Z</time>
      </trkpt>
      <trkpt lat="45.01423" lon="6.5334">
        <ele>2453.42</ele>
        <time>2019-05-23T07:28:55Z</time>
      </trkpt>
      <trkpt lat="45.01417" lon="6.53336">
        <ele>2455.34</ele>
        <time>2019-05-23T07:29:11Z</time>
      </trkpt>
      <trkpt lat="45.0141" lon="6.53331">
        <ele>2456.31</ele>
        <time>2019-05-23T07:29:26Z</time>
      </trkpt>
      <trkpt lat="45.01405" lon="6.53325">
        <ele>2457.27</ele>
        <time>2019-05-23T07:29:41Z</time>
      </trkpt>
      <trkpt lat="45.01397" lon="6.53318">
        <ele>2458.23</ele>
        <time>2019-05-23T07:29:58Z</time>
      </trkpt>
      <trkpt lat="45.01391" lon="6.53315">
        <ele>2459.19</ele>
        <time>2019-05-23T07:30:11Z</time>
      </trkpt>
      <trkpt lat="45.01385" lon="6.53313">
        <ele>2460.63</ele>
        <time>2019-05-23T07:30:26Z</time>
      </trkpt>
      <trkpt lat="45.01377" lon="6.53311">
        <ele>2462.07</ele>
        <time>2019-05-23T07:30:43Z</time>
      </trkpt>
      <trkpt lat="45.01371" lon="6.53312">
        <ele>2463.52</ele>
        <time>2019-05-23T07:30:59Z</time>
      </trkpt>
      <trkpt lat="45.01366" lon="6.53309">
        <ele>2464.48</ele>
        <time>2019-05-23T07:31:13Z</time>
      </trkpt>
      <trkpt lat="45.0136" lon="6.53307">
        <ele>2465.44</ele>
        <time>2019-05-23T07:31:28Z</time>
      </trkpt>
      <trkpt lat="45.01354" lon="6.53307">
        <ele>2466.88</ele>
        <time>2019-05-23T07:31:44Z</time>
      </trkpt>
      <trkpt lat="45.01349" lon="6.5331">
        <ele>2468.32</ele>
        <time>2019-05-23T07:31:58Z</time>
      </trkpt>
      <trkpt lat="45.0135" lon="6.53319">
        <ele>2469.76</ele>
        <time>2019-05-23T07:32:11Z</time>
      </trkpt>
      <trkpt lat="45.01347" lon="6.53319">
        <ele>2470.24</ele>
        <time>2019-05-23T07:32:26Z</time>
      </trkpt>
      <trkpt lat="45.01337" lon="6.53316">
        <ele>2471.21</ele>
        <time>2019-05-23T07:32:42Z</time>
      </trkpt>
      <trkpt lat="45.01333" lon="6.53317">
        <ele>2471.69</ele>
        <time>2019-05-23T07:32:54Z</time>
      </trkpt>
      <trkpt lat="45.01327" lon="6.53318">
        <ele>2472.65</ele>
        <time>2019-05-23T07:33:10Z</time>
      </trkpt>
      <trkpt lat="45.0132" lon="6.53321">
        <ele>2473.61</ele>
        <time>2019-05-23T07:33:23Z</time>
      </trkpt>
      <trkpt lat="45.01311" lon="6.53323">
        <ele>2475.53</ele>
        <time>2019-05-23T07:33:41Z</time>
      </trkpt>
      <trkpt lat="45.01306" lon="6.53323">
        <ele>2476.49</ele>
        <time>2019-05-23T07:33:55Z</time>
      </trkpt>
      <trkpt lat="45.01298" lon="6.53322">
        <ele>2477.94</ele>
        <time>2019-05-23T07:34:10Z</time>
      </trkpt>
      <trkpt lat="45.01293" lon="6.53323">
        <ele>2478.9</ele>
        <time>2019-05-23T07:34:24Z</time>
      </trkpt>
      <trkpt lat="45.01288" lon="6.53322">
        <ele>2480.34</ele>
        <time>2019-05-23T07:34:38Z</time>
      </trkpt>
      <trkpt lat="45.01283" lon="6.53321">
        <ele>2481.78</ele>
        <time>2019-05-23T07:34:52Z</time>
      </trkpt>
      <trkpt lat="45.01277" lon="6.5332">
        <ele>2483.7</ele>
        <time>2019-05-23T07:35:07Z</time>
      </trkpt>
      <trkpt lat="45.01273" lon="6.53316">
        <ele>2485.15</ele>
        <time>2019-05-23T07:35:22Z</time>
      </trkpt>
      <trkpt lat="45.01269" lon="6.53307">
        <ele>2486.59</ele>
        <time>2019-05-23T07:35:36Z</time>
      </trkpt>
      <trkpt lat="45.01266" lon="6.53305">
        <ele>2488.03</ele>
        <time>2019-05-23T07:35:50Z</time>
      </trkpt>
      <trkpt lat="45.01261" lon="6.53302">
        <ele>2489.47</ele>
        <time>2019-05-23T07:36:04Z</time>
      </trkpt>
      <trkpt lat="45.01256" lon="6.53298">
        <ele>2490.91</ele>
        <time>2019-05-23T07:36:17Z</time>
      </trkpt>
      <trkpt lat="45.01252" lon="6.53296">
        <ele>2492.36</ele>
        <time>2019-05-23T07:36:31Z</time>
      </trkpt>
      <trkpt lat="45.01248" lon="6.53294">
        <ele>2493.8</ele>
        <time>2019-05-23T07:36:45Z</time>
      </trkpt>
      <trkpt lat="45.01241" lon="6.53288">
        <ele>2495.24</ele>
        <time>2019-05-23T07:37:00Z</time>
      </trkpt>
      <trkpt lat="45.01238" lon="6.53295">
        <ele>2496.2</ele>
        <time>2019-05-23T07:37:16Z</time>
      </trkpt>
      <trkpt lat="45.01226" lon="6.53294">
        <ele>2497.64</ele>
        <time>2019-05-23T07:37:34Z</time>
      </trkpt>
      <trkpt lat="45.01216" lon="6.53312">
        <ele>2498.6</ele>
        <time>2019-05-23T07:37:51Z</time>
      </trkpt>
      <trkpt lat="45.01214" lon="6.53319">
        <ele>2498.6</ele>
        <time>2019-05-23T07:38:06Z</time>
      </trkpt>
      <trkpt lat="45.01211" lon="6.53321">
        <ele>2498.12</ele>
        <time>2019-05-23T07:38:29Z</time>
      </trkpt>
      <trkpt lat="45.0121" lon="6.53326">
        <ele>2498.6</ele>
        <time>2019-05-23T07:38:48Z</time>
      </trkpt>
      <trkpt lat="45.01199" lon="6.53316">
        <ele>2498.12</ele>
        <time>2019-05-23T07:39:03Z</time>
      </trkpt>
      <trkpt lat="45.01195" lon="6.53331">
        <ele>2500.05</ele>
        <time>2019-05-23T07:39:19Z</time>
      </trkpt>
      <trkpt lat="45.01192" lon="6.53329">
        <ele>2501.49</ele>
        <time>2019-05-23T07:39:35Z</time>
      </trkpt>
      <trkpt lat="45.01188" lon="6.53324">
        <ele>2501.97</ele>
        <time>2019-05-23T07:39:52Z</time>
      </trkpt>
      <trkpt lat="45.01184" lon="6.53336">
        <ele>2503.41</ele>
        <time>2019-05-23T07:40:06Z</time>
      </trkpt>
      <trkpt lat="45.01179" lon="6.53336">
        <ele>2504.85</ele>
        <time>2019-05-23T07:40:18Z</time>
      </trkpt>
      <trkpt lat="45.01174" lon="6.53343">
        <ele>2504.85</ele>
        <time>2019-05-23T07:40:34Z</time>
      </trkpt>
      <trkpt lat="45.01168" lon="6.53349">
        <ele>2504.85</ele>
        <time>2019-05-23T07:40:48Z</time>
      </trkpt>
      <trkpt lat="45.01163" lon="6.53356">
        <ele>2504.85</ele>
        <time>2019-05-23T07:41:03Z</time>
      </trkpt>
      <trkpt lat="45.01156" lon="6.53364">
        <ele>2505.33</ele>
        <time>2019-05-23T07:41:21Z</time>
      </trkpt>
      <trkpt lat="45.01149" lon="6.53373">
        <ele>2503.89</ele>
        <time>2019-05-23T07:41:37Z</time>
      </trkpt>
      <trkpt lat="45.01142" lon="6.53382">
        <ele>2503.89</ele>
        <time>2019-05-23T07:41:52Z</time>
      </trkpt>
      <trkpt lat="45.01136" lon="6.53392">
        <ele>2504.85</ele>
        <time>2019-05-23T07:42:04Z</time>
      </trkpt>
      <trkpt lat="45.01133" lon="6.53395">
        <ele>2504.85</ele>
        <time>2019-05-23T07:42:09Z</time>
      </trkpt>
      <trkpt lat="45.01122" lon="6.53403">
        <ele>2506.29</ele>
        <time>2019-05-23T07:42:25Z</time>
      </trkpt>
      <trkpt lat="45.01115" lon="6.53411">
        <ele>2506.29</ele>
        <time>2019-05-23T07:42:39Z</time>
      </trkpt>
      <trkpt lat="45.01112" lon="6.53415">
        <ele>2506.77</ele>
        <time>2019-05-23T07:42:47Z</time>
      </trkpt>
      <trkpt lat="45.01107" lon="6.53425">
        <ele>2506.77</ele>
        <time>2019-05-23T07:43:01Z</time>
      </trkpt>
      <trkpt lat="45.011" lon="6.53433">
        <ele>2507.26</ele>
        <time>2019-05-23T07:43:13Z</time>
      </trkpt>
      <trkpt lat="45.01096" lon="6.53438">
        <ele>2508.22</ele>
        <time>2019-05-23T07:43:26Z</time>
      </trkpt>
      <trkpt lat="45.0109" lon="6.53445">
        <ele>2508.7</ele>
        <time>2019-05-23T07:43:40Z</time>
      </trkpt>
      <trkpt lat="45.01084" lon="6.53454">
        <ele>2509.66</ele>
        <time>2019-05-23T07:43:53Z</time>
      </trkpt>
      <trkpt lat="45.01077" lon="6.53465">
        <ele>2510.62</ele>
        <time>2019-05-23T07:44:09Z</time>
      </trkpt>
      <trkpt lat="45.01071" lon="6.53473">
        <ele>2511.58</ele>
        <time>2019-05-23T07:44:22Z</time>
      </trkpt>
      <trkpt lat="45.01066" lon="6.53481">
        <ele>2511.58</ele>
        <time>2019-05-23T07:44:34Z</time>
      </trkpt>
      <trkpt lat="45.01064" lon="6.53482">
        <ele>2511.58</ele>
        <time>2019-05-23T07:44:37Z</time>
      </trkpt>
      <trkpt lat="45.01059" lon="6.53486">
        <ele>2512.54</ele>
        <time>2019-05-23T07:44:49Z</time>
      </trkpt>
      <trkpt lat="45.01053" lon="6.53496">
        <ele>2512.54</ele>
        <time>2019-05-23T07:45:04Z</time>
      </trkpt>
      <trkpt lat="45.01045" lon="6.53514">
        <ele>2512.06</ele>
        <time>2019-05-23T07:45:22Z</time>
      </trkpt>
      <trkpt lat="45.01041" lon="6.53527">
        <ele>2512.54</ele>
        <time>2019-05-23T07:45:34Z</time>
      </trkpt>
      <trkpt lat="45.01035" lon="6.53537">
        <ele>2513.5</ele>
        <time>2019-05-23T07:45:49Z</time>
      </trkpt>
      <trkpt lat="45.01034" lon="6.53538">
        <ele>2514.95</ele>
        <time>2019-05-23T07:46:04Z</time>
      </trkpt>
      <trkpt lat="45.0103" lon="6.53543">
        <ele>2518.79</ele>
        <time>2019-05-23T07:46:22Z</time>
      </trkpt>
      <trkpt lat="45.01029" lon="6.53543">
        <ele>2517.35</ele>
        <time>2019-05-23T07:46:23Z</time>
      </trkpt>
      <trkpt lat="45.01024" lon="6.5355">
        <ele>2518.79</ele>
        <time>2019-05-23T07:46:38Z</time>
      </trkpt>
      <trkpt lat="45.01018" lon="6.53554">
        <ele>2520.23</ele>
        <time>2019-05-23T07:46:53Z</time>
      </trkpt>
      <trkpt lat="45.01018" lon="6.53554">
        <ele>2520.71</ele>
        <time>2019-05-23T07:47:12Z</time>
      </trkpt>
      <trkpt lat="45.01018" lon="6.53558">
        <ele>2521.68</ele>
        <time>2019-05-23T07:47:26Z</time>
      </trkpt>
      <trkpt lat="45.01012" lon="6.53562">
        <ele>2523.12</ele>
        <time>2019-05-23T07:47:39Z</time>
      </trkpt>
      <trkpt lat="45.01009" lon="6.53564">
        <ele>2524.08</ele>
        <time>2019-05-23T07:47:50Z</time>
      </trkpt>
      <trkpt lat="45.01007" lon="6.53566">
        <ele>2525.52</ele>
        <time>2019-05-23T07:48:04Z</time>
      </trkpt>
      <trkpt lat="45.01005" lon="6.53569">
        <ele>2526.96</ele>
        <time>2019-05-23T07:48:18Z</time>
      </trkpt>
      <trkpt lat="45.01003" lon="6.5357">
        <ele>2527.92</ele>
        <time>2019-05-23T07:48:33Z</time>
      </trkpt>
      <trkpt lat="45.01" lon="6.53567">
        <ele>2528.89</ele>
        <time>2019-05-23T07:48:45Z</time>
      </trkpt>
      <trkpt lat="45.00996" lon="6.53562">
        <ele>2529.85</ele>
        <time>2019-05-23T07:48:56Z</time>
      </trkpt>
      <trkpt lat="45.00992" lon="6.53559">
        <ele>2531.29</ele>
        <time>2019-05-23T07:49:09Z</time>
      </trkpt>
      <trkpt lat="45.00992" lon="6.53568">
        <ele>2532.73</ele>
        <time>2019-05-23T07:49:24Z</time>
      </trkpt>
      <trkpt lat="45.0099" lon="6.53572">
        <ele>2533.21</ele>
        <time>2019-05-23T07:49:37Z</time>
      </trkpt>
      <trkpt lat="45.00988" lon="6.53576">
        <ele>2535.13</ele>
        <time>2019-05-23T07:49:53Z</time>
      </trkpt>
      <trkpt lat="45.00986" lon="6.53582">
        <ele>2536.1</ele>
        <time>2019-05-23T07:50:08Z</time>
      </trkpt>
      <trkpt lat="45.00983" lon="6.53585">
        <ele>2537.54</ele>
        <time>2019-05-23T07:50:21Z</time>
      </trkpt>
      <trkpt lat="45.00982" lon="6.5359">
        <ele>2538.98</ele>
        <time>2019-05-23T07:50:36Z</time>
      </trkpt>
      <trkpt lat="45.0098" lon="6.53594">
        <ele>2540.42</ele>
        <time>2019-05-23T07:50:51Z</time>
      </trkpt>
      <trkpt lat="45.00978" lon="6.53598">
        <ele>2541.38</ele>
        <time>2019-05-23T07:51:04Z</time>
      </trkpt>
      <trkpt lat="45.00976" lon="6.53604">
        <ele>2543.31</ele>
        <time>2019-05-23T07:51:19Z</time>
      </trkpt>
      <trkpt lat="45.00975" lon="6.53609">
        <ele>2544.75</ele>
        <time>2019-05-23T07:51:34Z</time>
      </trkpt>
      <trkpt lat="45.00975" lon="6.53613">
        <ele>2545.71</ele>
        <time>2019-05-23T07:51:48Z</time>
      </trkpt>
      <trkpt lat="45.00975" lon="6.53618">
        <ele>2547.15</ele>
        <time>2019-05-23T07:52:03Z</time>
      </trkpt>
      <trkpt lat="45.00974" lon="6.5362">
        <ele>2548.59</ele>
        <time>2019-05-23T07:52:15Z</time>
      </trkpt>
      <trkpt lat="45.0097" lon="6.53619">
        <ele>2549.55</ele>
        <time>2019-05-23T07:52:28Z</time>
      </trkpt>
      <trkpt lat="45.00965" lon="6.53619">
        <ele>2550.51</ele>
        <time>2019-05-23T07:52:43Z</time>
      </trkpt>
      <trkpt lat="45.00963" lon="6.53619">
        <ele>2551.48</ele>
        <time>2019-05-23T07:52:55Z</time>
      </trkpt>
      <trkpt lat="45.0096" lon="6.5362">
        <ele>2552.92</ele>
        <time>2019-05-23T07:53:08Z</time>
      </trkpt>
      <trkpt lat="45.00956" lon="6.53619">
        <ele>2554.36</ele>
        <time>2019-05-23T07:53:22Z</time>
      </trkpt>
      <trkpt lat="45.00953" lon="6.5362">
        <ele>2555.8</ele>
        <time>2019-05-23T07:53:34Z</time>
      </trkpt>
      <trkpt lat="45.0095" lon="6.53617">
        <ele>2556.76</ele>
        <time>2019-05-23T07:53:49Z</time>
      </trkpt>
      <trkpt lat="45.00946" lon="6.53616">
        <ele>2557.73</ele>
        <time>2019-05-23T07:54:03Z</time>
      </trkpt>
      <trkpt lat="45.00943" lon="6.53614">
        <ele>2559.17</ele>
        <time>2019-05-23T07:54:15Z</time>
      </trkpt>
      <trkpt lat="45.0094" lon="6.53614">
        <ele>2560.13</ele>
        <time>2019-05-23T07:54:27Z</time>
      </trkpt>
      <trkpt lat="45.00939" lon="6.53618">
        <ele>2561.57</ele>
        <time>2019-05-23T07:54:41Z</time>
      </trkpt>
      <trkpt lat="45.00938" lon="6.53625">
        <ele>2563.01</ele>
        <time>2019-05-23T07:54:55Z</time>
      </trkpt>
      <trkpt lat="45.00937" lon="6.53628">
        <ele>2563.97</ele>
        <time>2019-05-23T07:55:08Z</time>
      </trkpt>
      <trkpt lat="45.00931" lon="6.5364">
        <ele>2565.42</ele>
        <time>2019-05-23T07:55:22Z</time>
      </trkpt>
      <trkpt lat="45.00931" lon="6.53634">
        <ele>2566.38</ele>
        <time>2019-05-23T07:55:36Z</time>
      </trkpt>
      <trkpt lat="45.00927" lon="6.53629">
        <ele>2567.82</ele>
        <time>2019-05-23T07:55:49Z</time>
      </trkpt>
      <trkpt lat="45.00923" lon="6.53625">
        <ele>2568.3</ele>
        <time>2019-05-23T07:56:00Z</time>
      </trkpt>
      <trkpt lat="45.00921" lon="6.53624">
        <ele>2569.26</ele>
        <time>2019-05-23T07:56:12Z</time>
      </trkpt>
      <trkpt lat="45.00917" lon="6.53619">
        <ele>2570.22</ele>
        <time>2019-05-23T07:56:23Z</time>
      </trkpt>
      <trkpt lat="45.00914" lon="6.53617">
        <ele>2571.66</ele>
        <time>2019-05-23T07:56:36Z</time>
      </trkpt>
      <trkpt lat="45.00913" lon="6.53619">
        <ele>2572.14</ele>
        <time>2019-05-23T07:56:45Z</time>
      </trkpt>
      <trkpt lat="45.00912" lon="6.53617">
        <ele>2573.11</ele>
        <time>2019-05-23T07:56:55Z</time>
      </trkpt>
      <trkpt lat="45.00909" lon="6.53616">
        <ele>2574.55</ele>
        <time>2019-05-23T07:57:05Z</time>
      </trkpt>
      <trkpt lat="45.00905" lon="6.53615">
        <ele>2575.99</ele>
        <time>2019-05-23T07:57:20Z</time>
      </trkpt>
      <trkpt lat="45.00903" lon="6.53617">
        <ele>2576.95</ele>
        <time>2019-05-23T07:57:34Z</time>
      </trkpt>
      <trkpt lat="45.009" lon="6.53621">
        <ele>2578.39</ele>
        <time>2019-05-23T07:57:50Z</time>
      </trkpt>
      <trkpt lat="45.00898" lon="6.53625">
        <ele>2579.84</ele>
        <time>2019-05-23T07:58:06Z</time>
      </trkpt>
      <trkpt lat="45.00894" lon="6.53626">
        <ele>2581.28</ele>
        <time>2019-05-23T07:58:19Z</time>
      </trkpt>
      <trkpt lat="45.00892" lon="6.5363">
        <ele>2582.72</ele>
        <time>2019-05-23T07:58:32Z</time>
      </trkpt>
      <trkpt lat="45.00891" lon="6.53631">
        <ele>2582.72</ele>
        <time>2019-05-23T07:58:48Z</time>
      </trkpt>
      <trkpt lat="45.0089" lon="6.53628">
        <ele>2583.68</ele>
        <time>2019-05-23T07:59:03Z</time>
      </trkpt>
      <trkpt lat="45.00887" lon="6.53623">
        <ele>2584.64</ele>
        <time>2019-05-23T07:59:19Z</time>
      </trkpt>
      <trkpt lat="45.00885" lon="6.53618">
        <ele>2586.08</ele>
        <time>2019-05-23T07:59:32Z</time>
      </trkpt>
      <trkpt lat="45.00884" lon="6.53614">
        <ele>2586.08</ele>
        <time>2019-05-23T07:59:56Z</time>
      </trkpt>
      <trkpt lat="45.00881" lon="6.53611">
        <ele>2587.53</ele>
        <time>2019-05-23T08:00:10Z</time>
      </trkpt>
      <trkpt lat="45.00878" lon="6.53611">
        <ele>2588.49</ele>
        <time>2019-05-23T08:00:33Z</time>
      </trkpt>
      <trkpt lat="45.00875" lon="6.53606">
        <ele>2589.93</ele>
        <time>2019-05-23T08:00:48Z</time>
      </trkpt>
      <trkpt lat="45.00872" lon="6.53605">
        <ele>2591.37</ele>
        <time>2019-05-23T08:01:02Z</time>
      </trkpt>
      <trkpt lat="45.0087" lon="6.53608">
        <ele>2592.81</ele>
        <time>2019-05-23T08:01:17Z</time>
      </trkpt>
      <trkpt lat="45.00868" lon="6.53607">
        <ele>2594.74</ele>
        <time>2019-05-23T08:01:33Z</time>
      </trkpt>
      <trkpt lat="45.00865" lon="6.53601">
        <ele>2595.7</ele>
        <time>2019-05-23T08:01:46Z</time>
      </trkpt>
      <trkpt lat="45.00863" lon="6.53602">
        <ele>2597.14</ele>
        <time>2019-05-23T08:01:59Z</time>
      </trkpt>
      <trkpt lat="45.00861" lon="6.53603">
        <ele>2598.1</ele>
        <time>2019-05-23T08:02:12Z</time>
      </trkpt>
      <trkpt lat="45.00858" lon="6.53597">
        <ele>2599.54</ele>
        <time>2019-05-23T08:02:26Z</time>
      </trkpt>
      <trkpt lat="45.00856" lon="6.53593">
        <ele>2600.5</ele>
        <time>2019-05-23T08:02:37Z</time>
      </trkpt>
      <trkpt lat="45.00854" lon="6.53592">
        <ele>2601.95</ele>
        <time>2019-05-23T08:02:52Z</time>
      </trkpt>
      <trkpt lat="45.00851" lon="6.53594">
        <ele>2602.91</ele>
        <time>2019-05-23T08:03:06Z</time>
      </trkpt>
      <trkpt lat="45.00847" lon="6.53598">
        <ele>2604.35</ele>
        <time>2019-05-23T08:03:21Z</time>
      </trkpt>
      <trkpt lat="45.00843" lon="6.53595">
        <ele>2605.79</ele>
        <time>2019-05-23T08:03:37Z</time>
      </trkpt>
      <trkpt lat="45.00838" lon="6.5359">
        <ele>2606.75</ele>
        <time>2019-05-23T08:03:51Z</time>
      </trkpt>
      <trkpt lat="45.00833" lon="6.53594">
        <ele>2608.19</ele>
        <time>2019-05-23T08:04:06Z</time>
      </trkpt>
      <trkpt lat="45.00832" lon="6.536">
        <ele>2609.64</ele>
        <time>2019-05-23T08:04:17Z</time>
      </trkpt>
      <trkpt lat="45.00831" lon="6.53603">
        <ele>2611.08</ele>
        <time>2019-05-23T08:04:31Z</time>
      </trkpt>
      <trkpt lat="45.00828" lon="6.53602">
        <ele>2612.04</ele>
        <time>2019-05-23T08:04:45Z</time>
      </trkpt>
      <trkpt lat="45.00824" lon="6.53598">
        <ele>2613</ele>
        <time>2019-05-23T08:04:56Z</time>
      </trkpt>
      <trkpt lat="45.00823" lon="6.53597">
        <ele>2613.96</ele>
        <time>2019-05-23T08:05:13Z</time>
      </trkpt>
      <trkpt lat="45.00819" lon="6.53598">
        <ele>2615.88</ele>
        <time>2019-05-23T08:05:26Z</time>
      </trkpt>
      <trkpt lat="45.00815" lon="6.53599">
        <ele>2616.85</ele>
        <time>2019-05-23T08:05:40Z</time>
      </trkpt>
      <trkpt lat="45.00812" lon="6.53597">
        <ele>2618.29</ele>
        <time>2019-05-23T08:05:53Z</time>
      </trkpt>
      <trkpt lat="45.00808" lon="6.53594">
        <ele>2619.25</ele>
        <time>2019-05-23T08:06:07Z</time>
      </trkpt>
      <trkpt lat="45.00805" lon="6.53593">
        <ele>2620.69</ele>
        <time>2019-05-23T08:06:22Z</time>
      </trkpt>
      <trkpt lat="45.008" lon="6.53594">
        <ele>2622.13</ele>
        <time>2019-05-23T08:06:38Z</time>
      </trkpt>
      <trkpt lat="45.00795" lon="6.53598">
        <ele>2623.58</ele>
        <time>2019-05-23T08:06:58Z</time>
      </trkpt>
      <trkpt lat="45.0079" lon="6.53599">
        <ele>2625.5</ele>
        <time>2019-05-23T08:07:17Z</time>
      </trkpt>
      <trkpt lat="45.00786" lon="6.536">
        <ele>2626.94</ele>
        <time>2019-05-23T08:07:33Z</time>
      </trkpt>
      <trkpt lat="45.00783" lon="6.53603">
        <ele>2628.38</ele>
        <time>2019-05-23T08:07:49Z</time>
      </trkpt>
      <trkpt lat="45.00779" lon="6.53603">
        <ele>2629.82</ele>
        <time>2019-05-23T08:08:07Z</time>
      </trkpt>
      <trkpt lat="45.00774" lon="6.53604">
        <ele>2631.27</ele>
        <time>2019-05-23T08:08:28Z</time>
      </trkpt>
      <trkpt lat="45.00774" lon="6.53599">
        <ele>2632.23</ele>
        <time>2019-05-23T08:08:44Z</time>
      </trkpt>
      <trkpt lat="45.0077" lon="6.53594">
        <ele>2633.67</ele>
        <time>2019-05-23T08:09:01Z</time>
      </trkpt>
      <trkpt lat="45.00768" lon="6.53589">
        <ele>2635.11</ele>
        <time>2019-05-23T08:09:19Z</time>
      </trkpt>
      <trkpt lat="45.00762" lon="6.53595">
        <ele>2636.55</ele>
        <time>2019-05-23T08:09:33Z</time>
      </trkpt>
      <trkpt lat="45.0076" lon="6.53601">
        <ele>2637.51</ele>
        <time>2019-05-23T08:09:47Z</time>
      </trkpt>
      <trkpt lat="45.00758" lon="6.53605">
        <ele>2638.96</ele>
        <time>2019-05-23T08:10:01Z</time>
      </trkpt>
      <trkpt lat="45.00756" lon="6.53604">
        <ele>2640.4</ele>
        <time>2019-05-23T08:10:16Z</time>
      </trkpt>
      <trkpt lat="45.00754" lon="6.53599">
        <ele>2641.36</ele>
        <time>2019-05-23T08:10:32Z</time>
      </trkpt>
      <trkpt lat="45.00751" lon="6.53596">
        <ele>2642.8</ele>
        <time>2019-05-23T08:10:46Z</time>
      </trkpt>
      <trkpt lat="45.00746" lon="6.53593">
        <ele>2643.76</ele>
        <time>2019-05-23T08:11:01Z</time>
      </trkpt>
      <trkpt lat="45.00744" lon="6.5359">
        <ele>2645.21</ele>
        <time>2019-05-23T08:11:18Z</time>
      </trkpt>
      <trkpt lat="45.00744" lon="6.53581">
        <ele>2646.65</ele>
        <time>2019-05-23T08:11:34Z</time>
      </trkpt>
      <trkpt lat="45.00741" lon="6.53579">
        <ele>2648.09</ele>
        <time>2019-05-23T08:11:49Z</time>
      </trkpt>
      <trkpt lat="45.00744" lon="6.53584">
        <ele>2647.61</ele>
        <time>2019-05-23T08:12:08Z</time>
      </trkpt>
      <trkpt lat="45.00744" lon="6.53585">
        <ele>2648.57</ele>
        <time>2019-05-23T08:12:14Z</time>
      </trkpt>
      <trkpt lat="45.00745" lon="6.53584">
        <ele>2647.61</ele>
        <time>2019-05-23T08:12:15Z</time>
      </trkpt>
      <trkpt lat="45.00755" lon="6.53583">
        <ele>2647.13</ele>
        <time>2019-05-23T08:12:32Z</time>
      </trkpt>
      <trkpt lat="45.00753" lon="6.53588">
        <ele>2647.13</ele>
        <time>2019-05-23T08:12:52Z</time>
      </trkpt>
      <trkpt lat="45.00756" lon="6.53589">
        <ele>2647.13</ele>
        <time>2019-05-23T08:13:16Z</time>
      </trkpt>
      <trkpt lat="45.00757" lon="6.53588">
        <ele>2648.09</ele>
        <time>2019-05-23T08:13:32Z</time>
      </trkpt>
      <trkpt lat="45.00754" lon="6.5359">
        <ele>2649.53</ele>
        <time>2019-05-23T08:13:56Z</time>
      </trkpt>
      <trkpt lat="45.0075" lon="6.53601">
        <ele>2650.97</ele>
        <time>2019-05-23T08:14:11Z</time>
      </trkpt>
      <trkpt lat="45.00745" lon="6.53605">
        <ele>2652.42</ele>
        <time>2019-05-23T08:14:26Z</time>
      </trkpt>
      <trkpt lat="45.00742" lon="6.5361">
        <ele>2653.86</ele>
        <time>2019-05-23T08:14:40Z</time>
      </trkpt>
      <trkpt lat="45.00741" lon="6.53612">
        <ele>2654.82</ele>
        <time>2019-05-23T08:14:53Z</time>
      </trkpt>
      <trkpt lat="45.00741" lon="6.5361">
        <ele>2655.3</ele>
        <time>2019-05-23T08:15:10Z</time>
      </trkpt>
      <trkpt lat="45.00736" lon="6.53605">
        <ele>2656.26</ele>
        <time>2019-05-23T08:15:29Z</time>
      </trkpt>
      <trkpt lat="45.00734" lon="6.53603">
        <ele>2657.7</ele>
        <time>2019-05-23T08:15:43Z</time>
      </trkpt>
      <trkpt lat="45.00731" lon="6.536">
        <ele>2658.66</ele>
        <time>2019-05-23T08:15:57Z</time>
      </trkpt>
      <trkpt lat="45.0073" lon="6.53599">
        <ele>2659.62</ele>
        <time>2019-05-23T08:16:10Z</time>
      </trkpt>
      <trkpt lat="45.00723" lon="6.53597">
        <ele>2661.07</ele>
        <time>2019-05-23T08:16:23Z</time>
      </trkpt>
      <trkpt lat="45.00721" lon="6.53594">
        <ele>2662.03</ele>
        <time>2019-05-23T08:16:35Z</time>
      </trkpt>
      <trkpt lat="45.0072" lon="6.5359">
        <ele>2662.99</ele>
        <time>2019-05-23T08:16:50Z</time>
      </trkpt>
      <trkpt lat="45.00714" lon="6.53585">
        <ele>2662.99</ele>
        <time>2019-05-23T08:17:09Z</time>
      </trkpt>
      <trkpt lat="45.00713" lon="6.53591">
        <ele>2662.99</ele>
        <time>2019-05-23T08:17:28Z</time>
      </trkpt>
      <trkpt lat="45.00716" lon="6.53601">
        <ele>2663.95</ele>
        <time>2019-05-23T08:17:44Z</time>
      </trkpt>
      <trkpt lat="45.00734" lon="6.53602">
        <ele>2664.91</ele>
        <time>2019-05-23T08:17:57Z</time>
      </trkpt>
      <trkpt lat="45.00733" lon="6.53606">
        <ele>2665.87</ele>
        <time>2019-05-23T08:18:13Z</time>
      </trkpt>
      <trkpt lat="45.0074" lon="6.5361">
        <ele>2667.31</ele>
        <time>2019-05-23T08:18:25Z</time>
      </trkpt>
      <trkpt lat="45.00741" lon="6.53615">
        <ele>2668.28</ele>
        <time>2019-05-23T08:18:38Z</time>
      </trkpt>
      <trkpt lat="45.00746" lon="6.53619">
        <ele>2669.24</ele>
        <time>2019-05-23T08:18:52Z</time>
      </trkpt>
      <trkpt lat="45.00755" lon="6.53625">
        <ele>2670.68</ele>
        <time>2019-05-23T08:19:10Z</time>
      </trkpt>
      <trkpt lat="45.00759" lon="6.53628">
        <ele>2671.64</ele>
        <time>2019-05-23T08:19:23Z</time>
      </trkpt>
      <trkpt lat="45.00763" lon="6.53633">
        <ele>2673.08</ele>
        <time>2019-05-23T08:19:37Z</time>
      </trkpt>
      <trkpt lat="45.00769" lon="6.53636">
        <ele>2674.04</ele>
        <time>2019-05-23T08:19:47Z</time>
      </trkpt>
      <trkpt lat="45.00778" lon="6.5364">
        <ele>2675.01</ele>
        <time>2019-05-23T08:19:59Z</time>
      </trkpt>
      <trkpt lat="45.00786" lon="6.53645">
        <ele>2676.45</ele>
        <time>2019-05-23T08:20:10Z</time>
      </trkpt>
      <trkpt lat="45.0079" lon="6.53647">
        <ele>2676.93</ele>
        <time>2019-05-23T08:20:20Z</time>
      </trkpt>
      <trkpt lat="45.00798" lon="6.53649">
        <ele>2678.37</ele>
        <time>2019-05-23T08:20:33Z</time>
      </trkpt>
      <trkpt lat="45.00799" lon="6.53652">
        <ele>2678.85</ele>
        <time>2019-05-23T08:20:43Z</time>
      </trkpt>
      <trkpt lat="45.008" lon="6.53659">
        <ele>2681.25</ele>
        <time>2019-05-23T08:20:56Z</time>
      </trkpt>
      <trkpt lat="45.00802" lon="6.53662">
        <ele>2682.22</ele>
        <time>2019-05-23T08:21:06Z</time>
      </trkpt>
      <trkpt lat="45.00805" lon="6.53666">
        <ele>2682.7</ele>
        <time>2019-05-23T08:21:17Z</time>
      </trkpt>
      <trkpt lat="45.00809" lon="6.5367">
        <ele>2684.14</ele>
        <time>2019-05-23T08:21:29Z</time>
      </trkpt>
      <trkpt lat="45.00817" lon="6.53671">
        <ele>2684.62</ele>
        <time>2019-05-23T08:21:39Z</time>
      </trkpt>
      <trkpt lat="45.00819" lon="6.53677">
        <ele>2685.58</ele>
        <time>2019-05-23T08:21:49Z</time>
      </trkpt>
      <trkpt lat="45.00821" lon="6.53676">
        <ele>2686.54</ele>
        <time>2019-05-23T08:22:03Z</time>
      </trkpt>
      <trkpt lat="45.0082" lon="6.53674">
        <ele>2687.5</ele>
        <time>2019-05-23T08:22:17Z</time>
      </trkpt>
      <trkpt lat="45.00817" lon="6.53674">
        <ele>2687.98</ele>
        <time>2019-05-23T08:22:34Z</time>
      </trkpt>
      <trkpt lat="45.00818" lon="6.53675">
        <ele>2687.98</ele>
        <time>2019-05-23T08:22:59Z</time>
      </trkpt>
      <trkpt lat="45.0082" lon="6.53679">
        <ele>2688.46</ele>
        <time>2019-05-23T08:23:27Z</time>
      </trkpt>
      <trkpt lat="45.00816" lon="6.53674">
        <ele>2689.91</ele>
        <time>2019-05-23T08:23:41Z</time>
      </trkpt>
      <trkpt lat="45.0081" lon="6.5367">
        <ele>2691.35</ele>
        <time>2019-05-23T08:23:55Z</time>
      </trkpt>
      <trkpt lat="45.00807" lon="6.53667">
        <ele>2692.31</ele>
        <time>2019-05-23T08:24:09Z</time>
      </trkpt>
      <trkpt lat="45.00805" lon="6.53664">
        <ele>2693.27</ele>
        <time>2019-05-23T08:24:23Z</time>
      </trkpt>
      <trkpt lat="45.00801" lon="6.53662">
        <ele>2694.23</ele>
        <time>2019-05-23T08:24:36Z</time>
      </trkpt>
      <trkpt lat="45.00798" lon="6.53659">
        <ele>2695.19</ele>
        <time>2019-05-23T08:24:49Z</time>
      </trkpt>
      <trkpt lat="45.00795" lon="6.53657">
        <ele>2696.15</ele>
        <time>2019-05-23T08:25:02Z</time>
      </trkpt>
      <trkpt lat="45.00794" lon="6.53654">
        <ele>2697.12</ele>
        <time>2019-05-23T08:25:15Z</time>
      </trkpt>
      <trkpt lat="45.00791" lon="6.53652">
        <ele>2698.08</ele>
        <time>2019-05-23T08:25:29Z</time>
      </trkpt>
      <trkpt lat="45.00788" lon="6.53647">
        <ele>2699.52</ele>
        <time>2019-05-23T08:25:45Z</time>
      </trkpt>
      <trkpt lat="45.00786" lon="6.53646">
        <ele>2700</ele>
        <time>2019-05-23T08:26:02Z</time>
      </trkpt>
      <trkpt lat="45.00786" lon="6.53646">
        <ele>2700.48</ele>
        <time>2019-05-23T08:26:23Z</time>
      </trkpt>
      <trkpt lat="45.00782" lon="6.53642">
        <ele>2701.44</ele>
        <time>2019-05-23T08:26:37Z</time>
      </trkpt>
      <trkpt lat="45.00779" lon="6.53638">
        <ele>2702.4</ele>
        <time>2019-05-23T08:26:50Z</time>
      </trkpt>
      <trkpt lat="45.00778" lon="6.53636">
        <ele>2702.88</ele>
        <time>2019-05-23T08:27:07Z</time>
      </trkpt>
      <trkpt lat="45.00782" lon="6.53639">
        <ele>2702.88</ele>
        <time>2019-05-23T08:27:27Z</time>
      </trkpt>
      <trkpt lat="45.00781" lon="6.53634">
        <ele>2704.33</ele>
        <time>2019-05-23T08:27:42Z</time>
      </trkpt>
      <trkpt lat="45.00772" lon="6.53629">
        <ele>2705.29</ele>
        <time>2019-05-23T08:27:56Z</time>
      </trkpt>
      <trkpt lat="45.00772" lon="6.53628">
        <ele>2705.29</ele>
        <time>2019-05-23T08:28:13Z</time>
      </trkpt>
      <trkpt lat="45.00768" lon="6.53623">
        <ele>2706.73</ele>
        <time>2019-05-23T08:28:27Z</time>
      </trkpt>
      <trkpt lat="45.00765" lon="6.53618">
        <ele>2707.69</ele>
        <time>2019-05-23T08:28:41Z</time>
      </trkpt>
      <trkpt lat="45.00762" lon="6.53614">
        <ele>2708.65</ele>
        <time>2019-05-23T08:28:55Z</time>
      </trkpt>
      <trkpt lat="45.0076" lon="6.53609">
        <ele>2709.61</ele>
        <time>2019-05-23T08:29:10Z</time>
      </trkpt>
      <trkpt lat="45.00758" lon="6.53606">
        <ele>2710.57</ele>
        <time>2019-05-23T08:29:22Z</time>
      </trkpt>
      <trkpt lat="45.00756" lon="6.53602">
        <ele>2711.54</ele>
        <time>2019-05-23T08:29:38Z</time>
      </trkpt>
      <trkpt lat="45.00749" lon="6.53606">
        <ele>2712.02</ele>
        <time>2019-05-23T08:29:52Z</time>
      </trkpt>
      <trkpt lat="45.00743" lon="6.53613">
        <ele>2712.02</ele>
        <time>2019-05-23T08:30:17Z</time>
      </trkpt>
      <trkpt lat="45.00734" lon="6.53622">
        <ele>2712.98</ele>
        <time>2019-05-23T08:30:30Z</time>
      </trkpt>
      <trkpt lat="45.00731" lon="6.53628">
        <ele>2714.42</ele>
        <time>2019-05-23T08:30:43Z</time>
      </trkpt>
      <trkpt lat="45.00663" lon="6.53622">
        <ele>2715.38</ele>
        <time>2019-05-23T08:30:56Z</time>
      </trkpt>
      <trkpt lat="45.00659" lon="6.53629">
        <ele>2716.34</ele>
        <time>2019-05-23T08:31:07Z</time>
      </trkpt>
      <trkpt lat="45.00659" lon="6.53633">
        <ele>2716.82</ele>
        <time>2019-05-23T08:31:19Z</time>
      </trkpt>
      <trkpt lat="45.00657" lon="6.53638">
        <ele>2717.78</ele>
        <time>2019-05-23T08:31:31Z</time>
      </trkpt>
      <trkpt lat="45.00658" lon="6.53642">
        <ele>2719.23</ele>
        <time>2019-05-23T08:31:46Z</time>
      </trkpt>
      <trkpt lat="45.0066" lon="6.53648">
        <ele>2720.19</ele>
        <time>2019-05-23T08:31:58Z</time>
      </trkpt>
      <trkpt lat="45.00659" lon="6.53642">
        <ele>2720.19</ele>
        <time>2019-05-23T08:32:14Z</time>
      </trkpt>
      <trkpt lat="45.00656" lon="6.53642">
        <ele>2720.67</ele>
        <time>2019-05-23T08:32:35Z</time>
      </trkpt>
      <trkpt lat="45.00654" lon="6.53637">
        <ele>2721.63</ele>
        <time>2019-05-23T08:32:48Z</time>
      </trkpt>
      <trkpt lat="45.00651" lon="6.53634">
        <ele>2723.07</ele>
        <time>2019-05-23T08:33:03Z</time>
      </trkpt>
      <trkpt lat="45.0065" lon="6.53629">
        <ele>2724.03</ele>
        <time>2019-05-23T08:33:17Z</time>
      </trkpt>
      <trkpt lat="45.00648" lon="6.53627">
        <ele>2724.99</ele>
        <time>2019-05-23T08:33:30Z</time>
      </trkpt>
      <trkpt lat="45.00645" lon="6.53623">
        <ele>2725.96</ele>
        <time>2019-05-23T08:33:45Z</time>
      </trkpt>
      <trkpt lat="45.00644" lon="6.53621">
        <ele>2726.92</ele>
        <time>2019-05-23T08:33:59Z</time>
      </trkpt>
      <trkpt lat="45.00643" lon="6.53617">
        <ele>2727.88</ele>
        <time>2019-05-23T08:34:17Z</time>
      </trkpt>
      <trkpt lat="45.00642" lon="6.53614">
        <ele>2728.84</ele>
        <time>2019-05-23T08:34:30Z</time>
      </trkpt>
      <trkpt lat="45.00642" lon="6.5361">
        <ele>2730.28</ele>
        <time>2019-05-23T08:34:45Z</time>
      </trkpt>
      <trkpt lat="45.00643" lon="6.53611">
        <ele>2730.28</ele>
        <time>2019-05-23T08:35:01Z</time>
      </trkpt>
      <trkpt lat="45.00642" lon="6.53604">
        <ele>2731.72</ele>
        <time>2019-05-23T08:35:14Z</time>
      </trkpt>
      <trkpt lat="45.00642" lon="6.53599">
        <ele>2732.68</ele>
        <time>2019-05-23T08:35:29Z</time>
      </trkpt>
      <trkpt lat="45.0064" lon="6.53603">
        <ele>2733.17</ele>
        <time>2019-05-23T08:35:44Z</time>
      </trkpt>
      <trkpt lat="45.00636" lon="6.53601">
        <ele>2732.68</ele>
        <time>2019-05-23T08:36:09Z</time>
      </trkpt>
      <trkpt lat="45.00634" lon="6.53607">
        <ele>2734.13</ele>
        <time>2019-05-23T08:36:21Z</time>
      </trkpt>
      <trkpt lat="45.00632" lon="6.53606">
        <ele>2735.09</ele>
        <time>2019-05-23T08:36:32Z</time>
      </trkpt>
      <trkpt lat="45.0063" lon="6.53615">
        <ele>2736.05</ele>
        <time>2019-05-23T08:36:47Z</time>
      </trkpt>
      <trkpt lat="45.0063" lon="6.53618">
        <ele>2737.01</ele>
        <time>2019-05-23T08:37:00Z</time>
      </trkpt>
      <trkpt lat="45.00631" lon="6.53623">
        <ele>2737.97</ele>
        <time>2019-05-23T08:37:14Z</time>
      </trkpt>
      <trkpt lat="45.00629" lon="6.53626">
        <ele>2739.41</ele>
        <time>2019-05-23T08:37:26Z</time>
      </trkpt>
      <trkpt lat="45.00628" lon="6.53631">
        <ele>2740.38</ele>
        <time>2019-05-23T08:37:41Z</time>
      </trkpt>
      <trkpt lat="45.00627" lon="6.53638">
        <ele>2741.82</ele>
        <time>2019-05-23T08:37:55Z</time>
      </trkpt>
      <trkpt lat="45.00625" lon="6.53642">
        <ele>2742.78</ele>
        <time>2019-05-23T08:38:13Z</time>
      </trkpt>
      <trkpt lat="45.00625" lon="6.53642">
        <ele>2743.26</ele>
        <time>2019-05-23T08:38:28Z</time>
      </trkpt>
      <trkpt lat="45.00627" lon="6.53641">
        <ele>2743.26</ele>
        <time>2019-05-23T08:38:49Z</time>
      </trkpt>
      <trkpt lat="45.00625" lon="6.53638">
        <ele>2744.22</ele>
        <time>2019-05-23T08:39:09Z</time>
      </trkpt>
      <trkpt lat="45.00621" lon="6.53633">
        <ele>2745.66</ele>
        <time>2019-05-23T08:39:23Z</time>
      </trkpt>
      <trkpt lat="45.00618" lon="6.53629">
        <ele>2746.62</ele>
        <time>2019-05-23T08:39:38Z</time>
      </trkpt>
      <trkpt lat="45.00616" lon="6.53624">
        <ele>2748.07</ele>
        <time>2019-05-23T08:39:53Z</time>
      </trkpt>
      <trkpt lat="45.00615" lon="6.53619">
        <ele>2749.51</ele>
        <time>2019-05-23T08:40:08Z</time>
      </trkpt>
      <trkpt lat="45.00614" lon="6.53622">
        <ele>2749.99</ele>
        <time>2019-05-23T08:40:24Z</time>
      </trkpt>
      <trkpt lat="45.00613" lon="6.53622">
        <ele>2749.51</ele>
        <time>2019-05-23T08:40:45Z</time>
      </trkpt>
      <trkpt lat="45.00612" lon="6.53626">
        <ele>2750.47</ele>
        <time>2019-05-23T08:41:01Z</time>
      </trkpt>
      <trkpt lat="45.0061" lon="6.53632">
        <ele>2751.91</ele>
        <time>2019-05-23T08:41:14Z</time>
      </trkpt>
      <trkpt lat="45.0061" lon="6.53633">
        <ele>2751.43</ele>
        <time>2019-05-23T08:41:30Z</time>
      </trkpt>
      <trkpt lat="45.00612" lon="6.53636">
        <ele>2752.87</ele>
        <time>2019-05-23T08:41:48Z</time>
      </trkpt>
      <trkpt lat="45.00607" lon="6.53643">
        <ele>2753.35</ele>
        <time>2019-05-23T08:42:15Z</time>
      </trkpt>
      <trkpt lat="45.00607" lon="6.53648">
        <ele>2754.31</ele>
        <time>2019-05-23T08:42:27Z</time>
      </trkpt>
      <trkpt lat="45.00607" lon="6.5365">
        <ele>2754.8</ele>
        <time>2019-05-23T08:42:39Z</time>
      </trkpt>
      <trkpt lat="45.00607" lon="6.53644">
        <ele>2755.76</ele>
        <time>2019-05-23T08:42:55Z</time>
      </trkpt>
      <trkpt lat="45.00604" lon="6.53641">
        <ele>2756.72</ele>
        <time>2019-05-23T08:43:08Z</time>
      </trkpt>
      <trkpt lat="45.00602" lon="6.53637">
        <ele>2758.16</ele>
        <time>2019-05-23T08:43:22Z</time>
      </trkpt>
      <trkpt lat="45.00601" lon="6.53634">
        <ele>2758.64</ele>
        <time>2019-05-23T08:43:36Z</time>
      </trkpt>
      <trkpt lat="45.00599" lon="6.53632">
        <ele>2759.12</ele>
        <time>2019-05-23T08:43:55Z</time>
      </trkpt>
      <trkpt lat="45.00597" lon="6.53629">
        <ele>2760.56</ele>
        <time>2019-05-23T08:44:08Z</time>
      </trkpt>
      <trkpt lat="45.00595" lon="6.53625">
        <ele>2761.52</ele>
        <time>2019-05-23T08:44:22Z</time>
      </trkpt>
      <trkpt lat="45.00591" lon="6.53624">
        <ele>2762.49</ele>
        <time>2019-05-23T08:44:35Z</time>
      </trkpt>
      <trkpt lat="45.00591" lon="6.53624">
        <ele>2760.08</ele>
        <time>2019-05-23T08:44:42Z</time>
      </trkpt>
      <trkpt lat="45.00591" lon="6.53624">
        <ele>2762.97</ele>
        <time>2019-05-23T08:44:47Z</time>
      </trkpt>
      <trkpt lat="45.0059" lon="6.53625">
        <ele>2763.45</ele>
        <time>2019-05-23T08:45:04Z</time>
      </trkpt>
      <trkpt lat="45.0059" lon="6.53626">
        <ele>2762.97</ele>
        <time>2019-05-23T08:45:32Z</time>
      </trkpt>
      <trkpt lat="45.00589" lon="6.53625">
        <ele>2763.45</ele>
        <time>2019-05-23T08:45:56Z</time>
      </trkpt>
      <trkpt lat="45.00587" lon="6.53629">
        <ele>2764.41</ele>
        <time>2019-05-23T08:46:19Z</time>
      </trkpt>
      <trkpt lat="45.00583" lon="6.53633">
        <ele>2766.81</ele>
        <time>2019-05-23T08:46:35Z</time>
      </trkpt>
      <trkpt lat="45.00581" lon="6.53635">
        <ele>2767.29</ele>
        <time>2019-05-23T08:46:49Z</time>
      </trkpt>
      <trkpt lat="45.00578" lon="6.53639">
        <ele>2768.73</ele>
        <time>2019-05-23T08:47:06Z</time>
      </trkpt>
      <trkpt lat="45.00576" lon="6.5364">
        <ele>2770.18</ele>
        <time>2019-05-23T08:47:21Z</time>
      </trkpt>
      <trkpt lat="45.00573" lon="6.53644">
        <ele>2771.14</ele>
        <time>2019-05-23T08:47:39Z</time>
      </trkpt>
      <trkpt lat="45.00572" lon="6.53647">
        <ele>2771.62</ele>
        <time>2019-05-23T08:47:52Z</time>
      </trkpt>
      <trkpt lat="45.00573" lon="6.53654">
        <ele>2772.1</ele>
        <time>2019-05-23T08:48:05Z</time>
      </trkpt>
      <trkpt lat="45.00574" lon="6.53657">
        <ele>2773.06</ele>
        <time>2019-05-23T08:48:20Z</time>
      </trkpt>
      <trkpt lat="45.00571" lon="6.53655">
        <ele>2774.02</ele>
        <time>2019-05-23T08:48:40Z</time>
      </trkpt>
      <trkpt lat="45.00569" lon="6.53659">
        <ele>2774.5</ele>
        <time>2019-05-23T08:48:54Z</time>
      </trkpt>
      <trkpt lat="45.00568" lon="6.53664">
        <ele>2775.94</ele>
        <time>2019-05-23T08:49:12Z</time>
      </trkpt>
      <trkpt lat="45.00567" lon="6.53665">
        <ele>2776.42</ele>
        <time>2019-05-23T08:49:32Z</time>
      </trkpt>
      <trkpt lat="45.00565" lon="6.53668">
        <ele>2778.35</ele>
        <time>2019-05-23T08:49:50Z</time>
      </trkpt>
      <trkpt lat="45.00569" lon="6.53667">
        <ele>2778.35</ele>
        <time>2019-05-23T08:50:04Z</time>
      </trkpt>
      <trkpt lat="45.00568" lon="6.53668">
        <ele>2778.35</ele>
        <time>2019-05-23T08:50:22Z</time>
      </trkpt>
      <trkpt lat="45.0057" lon="6.53669">
        <ele>2778.35</ele>
        <time>2019-05-23T08:50:49Z</time>
      </trkpt>
      <trkpt lat="45.00568" lon="6.53668">
        <ele>2777.87</ele>
        <time>2019-05-23T08:51:07Z</time>
      </trkpt>
      <trkpt lat="45.00568" lon="6.53665">
        <ele>2778.35</ele>
        <time>2019-05-23T08:51:41Z</time>
      </trkpt>
      <trkpt lat="45.00567" lon="6.53664">
        <ele>2777.87</ele>
        <time>2019-05-23T08:52:15Z</time>
      </trkpt>
      <trkpt lat="45.00569" lon="6.53667">
        <ele>2777.87</ele>
        <time>2019-05-23T08:52:37Z</time>
      </trkpt>
      <trkpt lat="45.00568" lon="6.53666">
        <ele>2777.87</ele>
        <time>2019-05-23T08:52:53Z</time>
      </trkpt>
      <trkpt lat="45.00569" lon="6.53668">
        <ele>2777.87</ele>
        <time>2019-05-23T08:53:12Z</time>
      </trkpt>
      <trkpt lat="45.0057" lon="6.53667">
        <ele>2777.87</ele>
        <time>2019-05-23T08:53:26Z</time>
      </trkpt>
      <trkpt lat="45.0057" lon="6.53668">
        <ele>2778.35</ele>
        <time>2019-05-23T08:53:40Z</time>
      </trkpt>
      <trkpt lat="45.00569" lon="6.53666">
        <ele>2777.87</ele>
        <time>2019-05-23T08:53:55Z</time>
      </trkpt>
      <trkpt lat="45.00569" lon="6.53667">
        <ele>2778.35</ele>
        <time>2019-05-23T08:54:13Z</time>
      </trkpt>
      <trkpt lat="45.00571" lon="6.53663">
        <ele>2778.35</ele>
        <time>2019-05-23T08:54:34Z</time>
      </trkpt>
      <trkpt lat="45.00573" lon="6.53668">
        <ele>2779.31</ele>
        <time>2019-05-23T08:54:51Z</time>
      </trkpt>
      <trkpt lat="45.00577" lon="6.53671">
        <ele>2781.23</ele>
        <time>2019-05-23T08:55:05Z</time>
      </trkpt>
      <trkpt lat="45.00579" lon="6.53674">
        <ele>2782.67</ele>
        <time>2019-05-23T08:55:20Z</time>
      </trkpt>
      <trkpt lat="45.00578" lon="6.53677">
        <ele>2784.12</ele>
        <time>2019-05-23T08:55:34Z</time>
      </trkpt>
      <trkpt lat="45.0058" lon="6.53679">
        <ele>2785.56</ele>
        <time>2019-05-23T08:55:48Z</time>
      </trkpt>
      <trkpt lat="45.00578" lon="6.5368">
        <ele>2786.52</ele>
        <time>2019-05-23T08:56:02Z</time>
      </trkpt>
      <trkpt lat="45.00577" lon="6.53681">
        <ele>2787</ele>
        <time>2019-05-23T08:56:14Z</time>
      </trkpt>
      <trkpt lat="45.00576" lon="6.53681">
        <ele>2787</ele>
        <time>2019-05-23T08:56:32Z</time>
      </trkpt>
      <trkpt lat="45.00577" lon="6.53682">
        <ele>2787.96</ele>
        <time>2019-05-23T08:56:48Z</time>
      </trkpt>
      <trkpt lat="45.00578" lon="6.53684">
        <ele>2788.92</ele>
        <time>2019-05-23T08:57:02Z</time>
      </trkpt>
      <trkpt lat="45.00579" lon="6.53688">
        <ele>2790.84</ele>
        <time>2019-05-23T08:57:22Z</time>
      </trkpt>
      <trkpt lat="45.0058" lon="6.53692">
        <ele>2791.81</ele>
        <time>2019-05-23T08:57:37Z</time>
      </trkpt>
      <trkpt lat="45.0058" lon="6.53693">
        <ele>2792.77</ele>
        <time>2019-05-23T08:57:59Z</time>
      </trkpt>
      <trkpt lat="45.00578" lon="6.53697">
        <ele>2794.21</ele>
        <time>2019-05-23T08:58:14Z</time>
      </trkpt>
      <trkpt lat="45.00577" lon="6.53699">
        <ele>2795.17</ele>
        <time>2019-05-23T08:58:26Z</time>
      </trkpt>
      <trkpt lat="45.00577" lon="6.53699">
        <ele>2795.65</ele>
        <time>2019-05-23T08:58:42Z</time>
      </trkpt>
      <trkpt lat="45.00575" lon="6.53701">
        <ele>2797.09</ele>
        <time>2019-05-23T08:58:59Z</time>
      </trkpt>
      <trkpt lat="45.00576" lon="6.53703">
        <ele>2798.54</ele>
        <time>2019-05-23T08:59:12Z</time>
      </trkpt>
      <trkpt lat="45.00575" lon="6.53707">
        <ele>2799.5</ele>
        <time>2019-05-23T08:59:26Z</time>
      </trkpt>
      <trkpt lat="45.00574" lon="6.53709">
        <ele>2800.94</ele>
        <time>2019-05-23T08:59:41Z</time>
      </trkpt>
      <trkpt lat="45.00575" lon="6.5371">
        <ele>2801.42</ele>
        <time>2019-05-23T09:00:01Z</time>
      </trkpt>
      <trkpt lat="45.00574" lon="6.53713">
        <ele>2802.86</ele>
        <time>2019-05-23T09:00:16Z</time>
      </trkpt>
      <trkpt lat="45.00572" lon="6.53713">
        <ele>2803.34</ele>
        <time>2019-05-23T09:00:30Z</time>
      </trkpt>
      <trkpt lat="45.00571" lon="6.53714">
        <ele>2803.82</ele>
        <time>2019-05-23T09:00:47Z</time>
      </trkpt>
      <trkpt lat="45.00573" lon="6.53715">
        <ele>2804.78</ele>
        <time>2019-05-23T09:01:01Z</time>
      </trkpt>
      <trkpt lat="45.00571" lon="6.53719">
        <ele>2805.75</ele>
        <time>2019-05-23T09:01:16Z</time>
      </trkpt>
      <trkpt lat="45.00573" lon="6.53723">
        <ele>2807.19</ele>
        <time>2019-05-23T09:01:31Z</time>
      </trkpt>
      <trkpt lat="45.00572" lon="6.53725">
        <ele>2808.15</ele>
        <time>2019-05-23T09:01:43Z</time>
      </trkpt>
      <trkpt lat="45.0057" lon="6.53727">
        <ele>2809.59</ele>
        <time>2019-05-23T09:01:58Z</time>
      </trkpt>
      <trkpt lat="45.00568" lon="6.53731">
        <ele>2811.03</ele>
        <time>2019-05-23T09:02:15Z</time>
      </trkpt>
      <trkpt lat="45.00566" lon="6.53732">
        <ele>2811.99</ele>
        <time>2019-05-23T09:02:30Z</time>
      </trkpt>
      <trkpt lat="45.00566" lon="6.53734">
        <ele>2812.96</ele>
        <time>2019-05-23T09:02:44Z</time>
      </trkpt>
      <trkpt lat="45.00565" lon="6.53736">
        <ele>2814.4</ele>
        <time>2019-05-23T09:02:57Z</time>
      </trkpt>
      <trkpt lat="45.00564" lon="6.53739">
        <ele>2814.88</ele>
        <time>2019-05-23T09:03:09Z</time>
      </trkpt>
      <trkpt lat="45.00566" lon="6.53743">
        <ele>2816.8</ele>
        <time>2019-05-23T09:03:24Z</time>
      </trkpt>
      <trkpt lat="45.00566" lon="6.53744">
        <ele>2815.84</ele>
        <time>2019-05-23T09:03:40Z</time>
      </trkpt>
      <trkpt lat="45.00567" lon="6.53747">
        <ele>2817.76</ele>
        <time>2019-05-23T09:03:59Z</time>
      </trkpt>
      <trkpt lat="45.00566" lon="6.53748">
        <ele>2817.76</ele>
        <time>2019-05-23T09:04:22Z</time>
      </trkpt>
      <trkpt lat="45.00568" lon="6.53751">
        <ele>2818.72</ele>
        <time>2019-05-23T09:04:39Z</time>
      </trkpt>
      <trkpt lat="45.0057" lon="6.53751">
        <ele>2819.68</ele>
        <time>2019-05-23T09:04:53Z</time>
      </trkpt>
      <trkpt lat="45.00571" lon="6.53752">
        <ele>2820.65</ele>
        <time>2019-05-23T09:05:09Z</time>
      </trkpt>
      <trkpt lat="45.00573" lon="6.53752">
        <ele>2821.13</ele>
        <time>2019-05-23T09:05:30Z</time>
      </trkpt>
      <trkpt lat="45.00572" lon="6.53752">
        <ele>2821.61</ele>
        <time>2019-05-23T09:05:52Z</time>
      </trkpt>
      <trkpt lat="45.00573" lon="6.53753">
        <ele>2821.61</ele>
        <time>2019-05-23T09:06:12Z</time>
      </trkpt>
      <trkpt lat="45.00573" lon="6.53753">
        <ele>2823.05</ele>
        <time>2019-05-23T09:06:29Z</time>
      </trkpt>
      <trkpt lat="45.00573" lon="6.53753">
        <ele>2823.05</ele>
        <time>2019-05-23T09:06:45Z</time>
      </trkpt>
      <trkpt lat="45.00575" lon="6.53754">
        <ele>2823.05</ele>
        <time>2019-05-23T09:07:07Z</time>
      </trkpt>
      <trkpt lat="45.00577" lon="6.53752">
        <ele>2824.01</ele>
        <time>2019-05-23T09:07:23Z</time>
      </trkpt>
      <trkpt lat="45.0058" lon="6.53752">
        <ele>2824.49</ele>
        <time>2019-05-23T09:07:37Z</time>
      </trkpt>
      <trkpt lat="45.00579" lon="6.53755">
        <ele>2824.97</ele>
        <time>2019-05-23T09:07:53Z</time>
      </trkpt>
      <trkpt lat="45.00579" lon="6.53757">
        <ele>2824.97</ele>
        <time>2019-05-23T09:08:24Z</time>
      </trkpt>
      <trkpt lat="45.00579" lon="6.53756">
        <ele>2824.49</ele>
        <time>2019-05-23T09:08:53Z</time>
      </trkpt>
      <trkpt lat="45.0058" lon="6.53756">
        <ele>2824.97</ele>
        <time>2019-05-23T09:09:13Z</time>
      </trkpt>
      <trkpt lat="45.0058" lon="6.53758">
        <ele>2824.97</ele>
        <time>2019-05-23T09:09:39Z</time>
      </trkpt>
      <trkpt lat="45.00579" lon="6.53754">
        <ele>2824.49</ele>
        <time>2019-05-23T09:09:55Z</time>
      </trkpt>
      <trkpt lat="45.00577" lon="6.53754">
        <ele>2823.53</ele>
        <time>2019-05-23T09:10:11Z</time>
      </trkpt>
      <trkpt lat="45.00577" lon="6.53753">
        <ele>2823.05</ele>
        <time>2019-05-23T09:10:33Z</time>
      </trkpt>
      <trkpt lat="45.00577" lon="6.53753">
        <ele>2823.53</ele>
        <time>2019-05-23T09:10:54Z</time>
      </trkpt>
      <trkpt lat="45.00578" lon="6.53754">
        <ele>2823.53</ele>
        <time>2019-05-23T09:11:10Z</time>
      </trkpt>
      <trkpt lat="45.00578" lon="6.53757">
        <ele>2824.01</ele>
        <time>2019-05-23T09:11:26Z</time>
      </trkpt>
      <trkpt lat="45.00578" lon="6.53757">
        <ele>2824.01</ele>
        <time>2019-05-23T09:11:48Z</time>
      </trkpt>
      <trkpt lat="45.00577" lon="6.53756">
        <ele>2824.01</ele>
        <time>2019-05-23T09:12:07Z</time>
      </trkpt>
      <trkpt lat="45.00576" lon="6.53754">
        <ele>2824.01</ele>
        <time>2019-05-23T09:12:34Z</time>
      </trkpt>
      <trkpt lat="45.00578" lon="6.53756">
        <ele>2824.97</ele>
        <time>2019-05-23T09:12:54Z</time>
      </trkpt>
      <trkpt lat="45.00579" lon="6.53754">
        <ele>2824.97</ele>
        <time>2019-05-23T09:13:18Z</time>
      </trkpt>
      <trkpt lat="45.00579" lon="6.53757">
        <ele>2824.97</ele>
        <time>2019-05-23T09:13:49Z</time>
      </trkpt>
      <trkpt lat="45.00578" lon="6.53759">
        <ele>2824.97</ele>
        <time>2019-05-23T09:14:16Z</time>
      </trkpt>
      <trkpt lat="45.00578" lon="6.53755">
        <ele>2824.97</ele>
        <time>2019-05-23T09:14:35Z</time>
      </trkpt>
      <trkpt lat="45.00577" lon="6.53756">
        <ele>2825.45</ele>
        <time>2019-05-23T09:15:02Z</time>
      </trkpt>
      <trkpt lat="45.00577" lon="6.53756">
        <ele>2825.45</ele>
        <time>2019-05-23T09:15:17Z</time>
      </trkpt>
      <trkpt lat="45.00577" lon="6.53755">
        <ele>2825.45</ele>
        <time>2019-05-23T09:15:37Z</time>
      </trkpt>
      <trkpt lat="45.0058" lon="6.53748">
        <ele>2824.97</ele>
        <time>2019-05-23T09:15:49Z</time>
      </trkpt>
      <trkpt lat="45.00579" lon="6.53749">
        <ele>2824.97</ele>
        <time>2019-05-23T09:16:09Z</time>
      </trkpt>
      <trkpt lat="45.00579" lon="6.53748">
        <ele>2824.97</ele>
        <time>2019-05-23T09:16:34Z</time>
      </trkpt>
      <trkpt lat="45.00579" lon="6.53748">
        <ele>2824.97</ele>
        <time>2019-05-23T09:16:48Z</time>
      </trkpt>
      <trkpt lat="45.00579" lon="6.53751">
        <ele>2824.97</ele>
        <time>2019-05-23T09:17:12Z</time>
      </trkpt>
      <trkpt lat="45.00581" lon="6.53752">
        <ele>2824.97</ele>
        <time>2019-05-23T09:17:35Z</time>
      </trkpt>
      <trkpt lat="45.0058" lon="6.53754">
        <ele>2824.97</ele>
        <time>2019-05-23T09:17:54Z</time>
      </trkpt>
      <trkpt lat="45.00581" lon="6.53754">
        <ele>2825.45</ele>
        <time>2019-05-23T09:18:15Z</time>
      </trkpt>
      <trkpt lat="45.00581" lon="6.53753">
        <ele>2825.45</ele>
        <time>2019-05-23T09:18:44Z</time>
      </trkpt>
      <trkpt lat="45.00581" lon="6.53754">
        <ele>2825.45</ele>
        <time>2019-05-23T09:19:04Z</time>
      </trkpt>
      <trkpt lat="45.0058" lon="6.53753">
        <ele>2825.45</ele>
        <time>2019-05-23T09:19:25Z</time>
      </trkpt>
      <trkpt lat="45.0058" lon="6.53754">
        <ele>2825.45</ele>
        <time>2019-05-23T09:19:46Z</time>
      </trkpt>
      <trkpt lat="45.00581" lon="6.53754">
        <ele>2825.45</ele>
        <time>2019-05-23T09:20:09Z</time>
      </trkpt>
      <trkpt lat="45.0058" lon="6.53755">
        <ele>2825.45</ele>
        <time>2019-05-23T09:20:30Z</time>
      </trkpt>
      <trkpt lat="45.0058" lon="6.53755">
        <ele>2825.45</ele>
        <time>2019-05-23T09:21:00Z</time>
      </trkpt>
      <trkpt lat="45.00579" lon="6.53754">
        <ele>2825.93</ele>
        <time>2019-05-23T09:21:22Z</time>
      </trkpt>
      <trkpt lat="45.00579" lon="6.53754">
        <ele>2825.93</ele>
        <time>2019-05-23T09:21:43Z</time>
      </trkpt>
      <trkpt lat="45.0058" lon="6.53756">
        <ele>2825.93</ele>
        <time>2019-05-23T09:22:11Z</time>
      </trkpt>
      <trkpt lat="45.00579" lon="6.53753">
        <ele>2825.93</ele>
        <time>2019-05-23T09:22:33Z</time>
      </trkpt>
      <trkpt lat="45.00578" lon="6.5375">
        <ele>2826.41</ele>
        <time>2019-05-23T09:22:57Z</time>
      </trkpt>
      <trkpt lat="45.00579" lon="6.53751">
        <ele>2826.41</ele>
        <time>2019-05-23T09:23:25Z</time>
      </trkpt>
      <trkpt lat="45.00578" lon="6.53749">
        <ele>2826.41</ele>
        <time>2019-05-23T09:23:50Z</time>
      </trkpt>
      <trkpt lat="45.00582" lon="6.53754">
        <ele>2826.41</ele>
        <time>2019-05-23T09:24:05Z</time>
      </trkpt>
      <trkpt lat="45.00583" lon="6.53755">
        <ele>2826.41</ele>
        <time>2019-05-23T09:24:32Z</time>
      </trkpt>
      <trkpt lat="45.0058" lon="6.53756">
        <ele>2826.41</ele>
        <time>2019-05-23T09:24:56Z</time>
      </trkpt>
      <trkpt lat="45.00579" lon="6.53754">
        <ele>2826.41</ele>
        <time>2019-05-23T09:25:19Z</time>
      </trkpt>
      <trkpt lat="45.00578" lon="6.53753">
        <ele>2825.93</ele>
        <time>2019-05-23T09:25:36Z</time>
      </trkpt>
      <trkpt lat="45.00579" lon="6.53753">
        <ele>2826.41</ele>
        <time>2019-05-23T09:25:56Z</time>
      </trkpt>
      <trkpt lat="45.0058" lon="6.53755">
        <ele>2826.41</ele>
        <time>2019-05-23T09:26:12Z</time>
      </trkpt>
      <trkpt lat="45.0058" lon="6.53755">
        <ele>2826.41</ele>
        <time>2019-05-23T09:26:39Z</time>
      </trkpt>
      <trkpt lat="45.0058" lon="6.53755">
        <ele>2826.41</ele>
        <time>2019-05-23T09:27:02Z</time>
      </trkpt>
      <trkpt lat="45.0058" lon="6.53754">
        <ele>2826.41</ele>
        <time>2019-05-23T09:27:25Z</time>
      </trkpt>
      <trkpt lat="45.00579" lon="6.53752">
        <ele>2826.41</ele>
        <time>2019-05-23T09:27:50Z</time>
      </trkpt>
      <trkpt lat="45.0058" lon="6.53752">
        <ele>2826.41</ele>
        <time>2019-05-23T09:28:08Z</time>
      </trkpt>
      <trkpt lat="45.0058" lon="6.53753">
        <ele>2826.41</ele>
        <time>2019-05-23T09:28:34Z</time>
      </trkpt>
      <trkpt lat="45.0058" lon="6.53754">
        <ele>2826.89</ele>
        <time>2019-05-23T09:28:55Z</time>
      </trkpt>
      <trkpt lat="45.00579" lon="6.53752">
        <ele>2826.41</ele>
        <time>2019-05-23T09:29:16Z</time>
      </trkpt>
      <trkpt lat="45.00579" lon="6.53754">
        <ele>2826.89</ele>
        <time>2019-05-23T09:29:46Z</time>
      </trkpt>
      <trkpt lat="45.00581" lon="6.53751">
        <ele>2826.41</ele>
        <time>2019-05-23T09:30:10Z</time>
      </trkpt>
      <trkpt lat="45.0058" lon="6.53752">
        <ele>2826.89</ele>
        <time>2019-05-23T09:30:31Z</time>
      </trkpt>
      <trkpt lat="45.0058" lon="6.53751">
        <ele>2826.41</ele>
        <time>2019-05-23T09:30:57Z</time>
      </trkpt>
      <trkpt lat="45.00579" lon="6.53751">
        <ele>2825.93</ele>
        <time>2019-05-23T09:31:11Z</time>
      </trkpt>
      <trkpt lat="45.00581" lon="6.5375">
        <ele>2825.93</ele>
        <time>2019-05-23T09:31:33Z</time>
      </trkpt>
      <trkpt lat="45.00579" lon="6.53751">
        <ele>2825.93</ele>
        <time>2019-05-23T09:31:55Z</time>
      </trkpt>
      <trkpt lat="45.00579" lon="6.53751">
        <ele>2825.93</ele>
        <time>2019-05-23T09:32:17Z</time>
      </trkpt>
      <trkpt lat="45.00579" lon="6.53751">
        <ele>2825.93</ele>
        <time>2019-05-23T09:32:37Z</time>
      </trkpt>
      <trkpt lat="45.00578" lon="6.53753">
        <ele>2825.93</ele>
        <time>2019-05-23T09:32:58Z</time>
      </trkpt>
      <trkpt lat="45.00577" lon="6.53753">
        <ele>2825.45</ele>
        <time>2019-05-23T09:33:12Z</time>
      </trkpt>
      <trkpt lat="45.00577" lon="6.53752">
        <ele>2825.45</ele>
        <time>2019-05-23T09:33:29Z</time>
      </trkpt>
      <trkpt lat="45.00576" lon="6.53752">
        <ele>2825.45</ele>
        <time>2019-05-23T09:33:53Z</time>
      </trkpt>
      <trkpt lat="45.00576" lon="6.53751">
        <ele>2824.97</ele>
        <time>2019-05-23T09:34:11Z</time>
      </trkpt>
      <trkpt lat="45.00575" lon="6.53752">
        <ele>2825.45</ele>
        <time>2019-05-23T09:34:42Z</time>
      </trkpt>
      <trkpt lat="45.00576" lon="6.53753">
        <ele>2825.45</ele>
        <time>2019-05-23T09:35:07Z</time>
      </trkpt>
      <trkpt lat="45.00576" lon="6.53754">
        <ele>2825.93</ele>
        <time>2019-05-23T09:35:26Z</time>
      </trkpt>
      <trkpt lat="45.00575" lon="6.53753">
        <ele>2825.93</ele>
        <time>2019-05-23T09:35:51Z</time>
      </trkpt>
      <trkpt lat="45.00575" lon="6.53752">
        <ele>2825.93</ele>
        <time>2019-05-23T09:36:29Z</time>
      </trkpt>
      <trkpt lat="45.00575" lon="6.53752">
        <ele>2825.93</ele>
        <time>2019-05-23T09:36:50Z</time>
      </trkpt>
      <trkpt lat="45.00577" lon="6.53752">
        <ele>2826.41</ele>
        <time>2019-05-23T09:37:08Z</time>
      </trkpt>
      <trkpt lat="45.00578" lon="6.53752">
        <ele>2826.89</ele>
        <time>2019-05-23T09:37:22Z</time>
      </trkpt>
      <trkpt lat="45.00577" lon="6.53754">
        <ele>2826.89</ele>
        <time>2019-05-23T09:37:49Z</time>
      </trkpt>
      <trkpt lat="45.00579" lon="6.53752">
        <ele>2826.41</ele>
        <time>2019-05-23T09:38:15Z</time>
      </trkpt>
      <trkpt lat="45.00578" lon="6.53751">
        <ele>2826.41</ele>
        <time>2019-05-23T09:38:31Z</time>
      </trkpt>
      <trkpt lat="45.00578" lon="6.53752">
        <ele>2825.93</ele>
        <time>2019-05-23T09:38:52Z</time>
      </trkpt>
      <trkpt lat="45.00578" lon="6.53752">
        <ele>2826.41</ele>
        <time>2019-05-23T09:39:09Z</time>
      </trkpt>
      <trkpt lat="45.00578" lon="6.53751">
        <ele>2825.93</ele>
        <time>2019-05-23T09:39:35Z</time>
      </trkpt>
      <trkpt lat="45.00578" lon="6.53752">
        <ele>2826.41</ele>
        <time>2019-05-23T09:39:58Z</time>
      </trkpt>
      <trkpt lat="45.00578" lon="6.53754">
        <ele>2825.93</ele>
        <time>2019-05-23T09:40:11Z</time>
      </trkpt>
      <trkpt lat="45.00577" lon="6.53756">
        <ele>2825.93</ele>
        <time>2019-05-23T09:40:23Z</time>
      </trkpt>
      <trkpt lat="45.00578" lon="6.53756">
        <ele>2826.41</ele>
        <time>2019-05-23T09:40:34Z</time>
      </trkpt>
      <trkpt lat="45.00576" lon="6.53755">
        <ele>2825.93</ele>
        <time>2019-05-23T09:40:52Z</time>
      </trkpt>
      <trkpt lat="45.00574" lon="6.53755">
        <ele>2824.97</ele>
        <time>2019-05-23T09:41:06Z</time>
      </trkpt>
      <trkpt lat="45.00573" lon="6.53755">
        <ele>2824.01</ele>
        <time>2019-05-23T09:41:16Z</time>
      </trkpt>
      <trkpt lat="45.00572" lon="6.53754">
        <ele>2823.05</ele>
        <time>2019-05-23T09:41:29Z</time>
      </trkpt>
      <trkpt lat="45.00572" lon="6.5375">
        <ele>2823.05</ele>
        <time>2019-05-23T09:41:44Z</time>
      </trkpt>
      <trkpt lat="45.00572" lon="6.5375">
        <ele>2822.57</ele>
        <time>2019-05-23T09:42:00Z</time>
      </trkpt>
      <trkpt lat="45.00572" lon="6.53752">
        <ele>2822.09</ele>
        <time>2019-05-23T09:42:16Z</time>
      </trkpt>
      <trkpt lat="45.00571" lon="6.5375">
        <ele>2821.61</ele>
        <time>2019-05-23T09:42:33Z</time>
      </trkpt>
      <trkpt lat="45.0057" lon="6.53749">
        <ele>2821.61</ele>
        <time>2019-05-23T09:42:50Z</time>
      </trkpt>
      <trkpt lat="45.00569" lon="6.53749">
        <ele>2821.13</ele>
        <time>2019-05-23T09:43:08Z</time>
      </trkpt>
      <trkpt lat="45.00568" lon="6.53746">
        <ele>2820.65</ele>
        <time>2019-05-23T09:43:22Z</time>
      </trkpt>
      <trkpt lat="45.00568" lon="6.53745">
        <ele>2819.68</ele>
        <time>2019-05-23T09:43:35Z</time>
      </trkpt>
      <trkpt lat="45.00569" lon="6.53743">
        <ele>2819.68</ele>
        <time>2019-05-23T09:43:47Z</time>
      </trkpt>
      <trkpt lat="45.00568" lon="6.53741">
        <ele>2819.68</ele>
        <time>2019-05-23T09:44:02Z</time>
      </trkpt>
      <trkpt lat="45.00568" lon="6.5374">
        <ele>2818.72</ele>
        <time>2019-05-23T09:44:17Z</time>
      </trkpt>
      <trkpt lat="45.00569" lon="6.53741">
        <ele>2818.72</ele>
        <time>2019-05-23T09:44:34Z</time>
      </trkpt>
      <trkpt lat="45.00568" lon="6.53739">
        <ele>2817.76</ele>
        <time>2019-05-23T09:44:49Z</time>
      </trkpt>
      <trkpt lat="45.00568" lon="6.5374">
        <ele>2818.24</ele>
        <time>2019-05-23T09:45:04Z</time>
      </trkpt>
      <trkpt lat="45.00568" lon="6.53739">
        <ele>2817.76</ele>
        <time>2019-05-23T09:45:25Z</time>
      </trkpt>
      <trkpt lat="45.00567" lon="6.53739">
        <ele>2817.76</ele>
        <time>2019-05-23T09:45:53Z</time>
      </trkpt>
      <trkpt lat="45.00567" lon="6.53739">
        <ele>2817.76</ele>
        <time>2019-05-23T09:46:17Z</time>
      </trkpt>
      <trkpt lat="45.00569" lon="6.53737">
        <ele>2818.72</ele>
        <time>2019-05-23T09:46:38Z</time>
      </trkpt>
      <trkpt lat="45.00568" lon="6.53737">
        <ele>2816.32</ele>
        <time>2019-05-23T09:46:52Z</time>
      </trkpt>
      <trkpt lat="45.00567" lon="6.53735">
        <ele>2815.36</ele>
        <time>2019-05-23T09:47:04Z</time>
      </trkpt>
      <trkpt lat="45.00566" lon="6.53737">
        <ele>2815.36</ele>
        <time>2019-05-23T09:47:27Z</time>
      </trkpt>
      <trkpt lat="45.00566" lon="6.53737">
        <ele>2815.36</ele>
        <time>2019-05-23T09:47:56Z</time>
      </trkpt>
      <trkpt lat="45.00567" lon="6.53734">
        <ele>2814.88</ele>
        <time>2019-05-23T09:48:19Z</time>
      </trkpt>
      <trkpt lat="45.00569" lon="6.53734">
        <ele>2814.4</ele>
        <time>2019-05-23T09:48:31Z</time>
      </trkpt>
      <trkpt lat="45.0057" lon="6.53735">
        <ele>2814.88</ele>
        <time>2019-05-23T09:49:02Z</time>
      </trkpt>
      <trkpt lat="45.0057" lon="6.53733">
        <ele>2814.4</ele>
        <time>2019-05-23T09:49:27Z</time>
      </trkpt>
      <trkpt lat="45.00569" lon="6.53733">
        <ele>2814.4</ele>
        <time>2019-05-23T09:49:46Z</time>
      </trkpt>
      <trkpt lat="45.00571" lon="6.53727">
        <ele>2812.96</ele>
        <time>2019-05-23T09:50:00Z</time>
      </trkpt>
      <trkpt lat="45.00571" lon="6.53727">
        <ele>2812.96</ele>
        <time>2019-05-23T09:50:18Z</time>
      </trkpt>
      <trkpt lat="45.0057" lon="6.53724">
        <ele>2811.99</ele>
        <time>2019-05-23T09:50:31Z</time>
      </trkpt>
      <trkpt lat="45.00571" lon="6.5372">
        <ele>2811.03</ele>
        <time>2019-05-23T09:50:42Z</time>
      </trkpt>
      <trkpt lat="45.00571" lon="6.53717">
        <ele>2809.11</ele>
        <time>2019-05-23T09:50:53Z</time>
      </trkpt>
      <trkpt lat="45.00572" lon="6.53716">
        <ele>2807.67</ele>
        <time>2019-05-23T09:51:05Z</time>
      </trkpt>
      <trkpt lat="45.00571" lon="6.53716">
        <ele>2807.67</ele>
        <time>2019-05-23T09:51:21Z</time>
      </trkpt>
      <trkpt lat="45.00572" lon="6.53712">
        <ele>2806.23</ele>
        <time>2019-05-23T09:51:34Z</time>
      </trkpt>
      <trkpt lat="45.00574" lon="6.53708">
        <ele>2806.23</ele>
        <time>2019-05-23T09:51:47Z</time>
      </trkpt>
      <trkpt lat="45.00576" lon="6.53709">
        <ele>2805.26</ele>
        <time>2019-05-23T09:52:01Z</time>
      </trkpt>
      <trkpt lat="45.00575" lon="6.5371">
        <ele>2804.3</ele>
        <time>2019-05-23T09:52:17Z</time>
      </trkpt>
      <trkpt lat="45.00575" lon="6.53706">
        <ele>2803.34</ele>
        <time>2019-05-23T09:52:33Z</time>
      </trkpt>
      <trkpt lat="45.00575" lon="6.53705">
        <ele>2801.9</ele>
        <time>2019-05-23T09:52:47Z</time>
      </trkpt>
      <trkpt lat="45.00576" lon="6.53701">
        <ele>2800.46</ele>
        <time>2019-05-23T09:53:01Z</time>
      </trkpt>
      <trkpt lat="45.00575" lon="6.53697">
        <ele>2799.02</ele>
        <time>2019-05-23T09:53:13Z</time>
      </trkpt>
      <trkpt lat="45.00577" lon="6.53698">
        <ele>2799.02</ele>
        <time>2019-05-23T09:53:35Z</time>
      </trkpt>
      <trkpt lat="45.00577" lon="6.53694">
        <ele>2797.09</ele>
        <time>2019-05-23T09:53:48Z</time>
      </trkpt>
      <trkpt lat="45.00579" lon="6.53691">
        <ele>2795.65</ele>
        <time>2019-05-23T09:54:02Z</time>
      </trkpt>
      <trkpt lat="45.00578" lon="6.53686">
        <ele>2792.77</ele>
        <time>2019-05-23T09:54:18Z</time>
      </trkpt>
      <trkpt lat="45.00578" lon="6.53683">
        <ele>2791.33</ele>
        <time>2019-05-23T09:54:32Z</time>
      </trkpt>
      <trkpt lat="45.00578" lon="6.53682">
        <ele>2790.36</ele>
        <time>2019-05-23T09:54:46Z</time>
      </trkpt>
      <trkpt lat="45.00579" lon="6.53679">
        <ele>2789.4</ele>
        <time>2019-05-23T09:55:02Z</time>
      </trkpt>
      <trkpt lat="45.00579" lon="6.5368">
        <ele>2788.44</ele>
        <time>2019-05-23T09:55:14Z</time>
      </trkpt>
      <trkpt lat="45.00578" lon="6.53677">
        <ele>2786.04</ele>
        <time>2019-05-23T09:55:28Z</time>
      </trkpt>
      <trkpt lat="45.00576" lon="6.53673">
        <ele>2783.63</ele>
        <time>2019-05-23T09:55:41Z</time>
      </trkpt>
      <trkpt lat="45.00573" lon="6.53669">
        <ele>2781.23</ele>
        <time>2019-05-23T09:55:57Z</time>
      </trkpt>
      <trkpt lat="45.00572" lon="6.53667">
        <ele>2780.75</ele>
        <time>2019-05-23T09:56:14Z</time>
      </trkpt>
      <trkpt lat="45.00571" lon="6.53657">
        <ele>2777.39</ele>
        <time>2019-05-23T09:56:29Z</time>
      </trkpt>
      <trkpt lat="45.00571" lon="6.53652">
        <ele>2776.91</ele>
        <time>2019-05-23T09:56:43Z</time>
      </trkpt>
      <trkpt lat="45.00571" lon="6.53653">
        <ele>2775.94</ele>
        <time>2019-05-23T09:57:00Z</time>
      </trkpt>
      <trkpt lat="45.00571" lon="6.53652">
        <ele>2775.94</ele>
        <time>2019-05-23T09:57:12Z</time>
      </trkpt>
      <trkpt lat="45.00572" lon="6.53657">
        <ele>2776.91</ele>
        <time>2019-05-23T09:57:29Z</time>
      </trkpt>
      <trkpt lat="45.00572" lon="6.53662">
        <ele>2777.87</ele>
        <time>2019-05-23T09:57:42Z</time>
      </trkpt>
      <trkpt lat="45.00573" lon="6.53663">
        <ele>2779.31</ele>
        <time>2019-05-23T09:57:53Z</time>
      </trkpt>
      <trkpt lat="45.00571" lon="6.53669">
        <ele>2780.75</ele>
        <time>2019-05-23T09:58:03Z</time>
      </trkpt>
      <trkpt lat="45.0057" lon="6.5367">
        <ele>2780.75</ele>
        <time>2019-05-23T09:58:06Z</time>
      </trkpt>
      <trkpt lat="45.00571" lon="6.5367">
        <ele>2781.23</ele>
        <time>2019-05-23T09:58:19Z</time>
      </trkpt>
      <trkpt lat="45.0057" lon="6.53669">
        <ele>2780.75</ele>
        <time>2019-05-23T09:58:41Z</time>
      </trkpt>
      <trkpt lat="45.0057" lon="6.53667">
        <ele>2781.23</ele>
        <time>2019-05-23T09:58:57Z</time>
      </trkpt>
      <trkpt lat="45.0057" lon="6.53668">
        <ele>2781.23</ele>
        <time>2019-05-23T09:59:23Z</time>
      </trkpt>
      <trkpt lat="45.0057" lon="6.53669">
        <ele>2781.23</ele>
        <time>2019-05-23T09:59:43Z</time>
      </trkpt>
      <trkpt lat="45.00569" lon="6.53669">
        <ele>2780.75</ele>
        <time>2019-05-23T10:00:03Z</time>
      </trkpt>
      <trkpt lat="45.00569" lon="6.53669">
        <ele>2780.75</ele>
        <time>2019-05-23T10:00:29Z</time>
      </trkpt>
      <trkpt lat="45.00571" lon="6.53669">
        <ele>2780.75</ele>
        <time>2019-05-23T10:00:54Z</time>
      </trkpt>
      <trkpt lat="45.0057" lon="6.5367">
        <ele>2780.75</ele>
        <time>2019-05-23T10:01:19Z</time>
      </trkpt>
      <trkpt lat="45.00571" lon="6.5367">
        <ele>2780.75</ele>
        <time>2019-05-23T10:01:49Z</time>
      </trkpt>
      <trkpt lat="45.00569" lon="6.53668">
        <ele>2780.27</ele>
        <time>2019-05-23T10:02:14Z</time>
      </trkpt>
      <trkpt lat="45.00571" lon="6.53667">
        <ele>2780.75</ele>
        <time>2019-05-23T10:02:50Z</time>
      </trkpt>
      <trkpt lat="45.0057" lon="6.5367">
        <ele>2780.75</ele>
        <time>2019-05-23T10:03:36Z</time>
      </trkpt>
      <trkpt lat="45.0057" lon="6.53668">
        <ele>2780.27</ele>
        <time>2019-05-23T10:04:32Z</time>
      </trkpt>
      <trkpt lat="45.0057" lon="6.53668">
        <ele>2780.27</ele>
        <time>2019-05-23T10:04:55Z</time>
      </trkpt>
      <trkpt lat="45.0057" lon="6.53667">
        <ele>2780.75</ele>
        <time>2019-05-23T10:05:41Z</time>
      </trkpt>
      <trkpt lat="45.00572" lon="6.53667">
        <ele>2780.27</ele>
        <time>2019-05-23T10:06:27Z</time>
      </trkpt>
      <trkpt lat="45.00571" lon="6.53668">
        <ele>2781.23</ele>
        <time>2019-05-23T10:07:13Z</time>
      </trkpt>
      <trkpt lat="45.0057" lon="6.53667">
        <ele>2780.75</ele>
        <time>2019-05-23T10:07:50Z</time>
      </trkpt>
      <trkpt lat="45.0057" lon="6.53668">
        <ele>2780.75</ele>
        <time>2019-05-23T10:08:11Z</time>
      </trkpt>
      <trkpt lat="45.0057" lon="6.5367">
        <ele>2782.19</ele>
        <time>2019-05-23T10:08:51Z</time>
      </trkpt>
      <trkpt lat="45.0057" lon="6.5367">
        <ele>2780.75</ele>
        <time>2019-05-23T10:08:53Z</time>
      </trkpt>
      <trkpt lat="45.0057" lon="6.53669">
        <ele>2780.75</ele>
        <time>2019-05-23T10:09:28Z</time>
      </trkpt>
      <trkpt lat="45.00569" lon="6.53669">
        <ele>2780.75</ele>
        <time>2019-05-23T10:10:02Z</time>
      </trkpt>
      <trkpt lat="45.00571" lon="6.53669">
        <ele>2780.75</ele>
        <time>2019-05-23T10:10:40Z</time>
      </trkpt>
      <trkpt lat="45.00571" lon="6.53668">
        <ele>2781.71</ele>
        <time>2019-05-23T10:11:11Z</time>
      </trkpt>
      <trkpt lat="45.00571" lon="6.53668">
        <ele>2782.19</ele>
        <time>2019-05-23T10:11:33Z</time>
      </trkpt>
      <trkpt lat="45.00568" lon="6.53668">
        <ele>2781.71</ele>
        <time>2019-05-23T10:11:46Z</time>
      </trkpt>
      <trkpt lat="45.0057" lon="6.53669">
        <ele>2781.23</ele>
        <time>2019-05-23T10:12:05Z</time>
      </trkpt>
      <trkpt lat="45.00568" lon="6.53668">
        <ele>2781.23</ele>
        <time>2019-05-23T10:12:26Z</time>
      </trkpt>
      <trkpt lat="45.00569" lon="6.5367">
        <ele>2781.71</ele>
        <time>2019-05-23T10:12:44Z</time>
      </trkpt>
      <trkpt lat="45.00568" lon="6.53669">
        <ele>2781.71</ele>
        <time>2019-05-23T10:12:45Z</time>
      </trkpt>
      <trkpt lat="45.00569" lon="6.53658">
        <ele>2777.87</ele>
        <time>2019-05-23T10:12:49Z</time>
      </trkpt>
      <trkpt lat="45.00573" lon="6.53655">
        <ele>2776.91</ele>
        <time>2019-05-23T10:13:00Z</time>
      </trkpt>
      <trkpt lat="45.00574" lon="6.53654">
        <ele>2776.91</ele>
        <time>2019-05-23T10:13:18Z</time>
      </trkpt>
      <trkpt lat="45.00578" lon="6.53646">
        <ele>2774.5</ele>
        <time>2019-05-23T10:13:25Z</time>
      </trkpt>
      <trkpt lat="45.00578" lon="6.53646">
        <ele>2774.5</ele>
        <time>2019-05-23T10:13:48Z</time>
      </trkpt>
      <trkpt lat="45.00579" lon="6.53646">
        <ele>2774.02</ele>
        <time>2019-05-23T10:14:05Z</time>
      </trkpt>
      <trkpt lat="45.00588" lon="6.53639">
        <ele>2771.14</ele>
        <time>2019-05-23T10:14:12Z</time>
      </trkpt>
      <trkpt lat="45.00588" lon="6.53637">
        <ele>2770.18</ele>
        <time>2019-05-23T10:14:14Z</time>
      </trkpt>
      <trkpt lat="45.00587" lon="6.53635">
        <ele>2770.18</ele>
        <time>2019-05-23T10:14:25Z</time>
      </trkpt>
      <trkpt lat="45.00594" lon="6.53632">
        <ele>2766.33</ele>
        <time>2019-05-23T10:14:31Z</time>
      </trkpt>
      <trkpt lat="45.00595" lon="6.53629">
        <ele>2764.89</ele>
        <time>2019-05-23T10:14:33Z</time>
      </trkpt>
      <trkpt lat="45.00596" lon="6.53628">
        <ele>2764.41</ele>
        <time>2019-05-23T10:14:35Z</time>
      </trkpt>
      <trkpt lat="45.00597" lon="6.5363">
        <ele>2763.45</ele>
        <time>2019-05-23T10:14:48Z</time>
      </trkpt>
      <trkpt lat="45.00598" lon="6.53632">
        <ele>2762.97</ele>
        <time>2019-05-23T10:15:12Z</time>
      </trkpt>
      <trkpt lat="45.00598" lon="6.53633">
        <ele>2763.45</ele>
        <time>2019-05-23T10:15:40Z</time>
      </trkpt>
      <trkpt lat="45.00598" lon="6.5363">
        <ele>2762.97</ele>
        <time>2019-05-23T10:16:16Z</time>
      </trkpt>
      <trkpt lat="45.00598" lon="6.5363">
        <ele>2762.97</ele>
        <time>2019-05-23T10:16:45Z</time>
      </trkpt>
      <trkpt lat="45.006" lon="6.53631">
        <ele>2762.97</ele>
        <time>2019-05-23T10:17:16Z</time>
      </trkpt>
      <trkpt lat="45.00599" lon="6.53631">
        <ele>2762</ele>
        <time>2019-05-23T10:17:53Z</time>
      </trkpt>
      <trkpt lat="45.00597" lon="6.53632">
        <ele>2762.97</ele>
        <time>2019-05-23T10:18:23Z</time>
      </trkpt>
      <trkpt lat="45.00597" lon="6.53633">
        <ele>2762.97</ele>
        <time>2019-05-23T10:18:25Z</time>
      </trkpt>
      <trkpt lat="45.00609" lon="6.53646">
        <ele>2759.6</ele>
        <time>2019-05-23T10:18:33Z</time>
      </trkpt>
      <trkpt lat="45.00609" lon="6.53643">
        <ele>2758.16</ele>
        <time>2019-05-23T10:18:35Z</time>
      </trkpt>
      <trkpt lat="45.0061" lon="6.5364">
        <ele>2757.2</ele>
        <time>2019-05-23T10:18:51Z</time>
      </trkpt>
      <trkpt lat="45.00609" lon="6.5364">
        <ele>2756.72</ele>
        <time>2019-05-23T10:19:16Z</time>
      </trkpt>
      <trkpt lat="45.00609" lon="6.53643">
        <ele>2756.72</ele>
        <time>2019-05-23T10:19:45Z</time>
      </trkpt>
      <trkpt lat="45.0061" lon="6.53642">
        <ele>2756.72</ele>
        <time>2019-05-23T10:20:10Z</time>
      </trkpt>
      <trkpt lat="45.00611" lon="6.53641">
        <ele>2756.72</ele>
        <time>2019-05-23T10:20:38Z</time>
      </trkpt>
      <trkpt lat="45.00609" lon="6.5364">
        <ele>2756.72</ele>
        <time>2019-05-23T10:21:02Z</time>
      </trkpt>
      <trkpt lat="45.0061" lon="6.5364">
        <ele>2756.72</ele>
        <time>2019-05-23T10:21:29Z</time>
      </trkpt>
      <trkpt lat="45.00611" lon="6.53637">
        <ele>2756.72</ele>
        <time>2019-05-23T10:21:51Z</time>
      </trkpt>
      <trkpt lat="45.00609" lon="6.53639">
        <ele>2756.72</ele>
        <time>2019-05-23T10:22:21Z</time>
      </trkpt>
      <trkpt lat="45.0061" lon="6.5364">
        <ele>2756.72</ele>
        <time>2019-05-23T10:22:46Z</time>
      </trkpt>
      <trkpt lat="45.00609" lon="6.53639">
        <ele>2756.72</ele>
        <time>2019-05-23T10:23:15Z</time>
      </trkpt>
      <trkpt lat="45.0061" lon="6.53639">
        <ele>2756.24</ele>
        <time>2019-05-23T10:23:41Z</time>
      </trkpt>
      <trkpt lat="45.00609" lon="6.53638">
        <ele>2756.72</ele>
        <time>2019-05-23T10:24:08Z</time>
      </trkpt>
      <trkpt lat="45.0061" lon="6.53639">
        <ele>2756.72</ele>
        <time>2019-05-23T10:24:36Z</time>
      </trkpt>
      <trkpt lat="45.0061" lon="6.53639">
        <ele>2756.72</ele>
        <time>2019-05-23T10:25:01Z</time>
      </trkpt>
      <trkpt lat="45.00611" lon="6.53637">
        <ele>2756.24</ele>
        <time>2019-05-23T10:25:17Z</time>
      </trkpt>
      <trkpt lat="45.0062" lon="6.53644">
        <ele>2751.43</ele>
        <time>2019-05-23T10:25:20Z</time>
      </trkpt>
      <trkpt lat="45.00626" lon="6.53642">
        <ele>2748.07</ele>
        <time>2019-05-23T10:25:22Z</time>
      </trkpt>
      <trkpt lat="45.0063" lon="6.53632">
        <ele>2744.22</ele>
        <time>2019-05-23T10:25:25Z</time>
      </trkpt>
      <trkpt lat="45.00636" lon="6.5364">
        <ele>2739.41</ele>
        <time>2019-05-23T10:25:27Z</time>
      </trkpt>
      <trkpt lat="45.00642" lon="6.53637">
        <ele>2734.61</ele>
        <time>2019-05-23T10:25:30Z</time>
      </trkpt>
      <trkpt lat="45.00643" lon="6.53631">
        <ele>2732.68</ele>
        <time>2019-05-23T10:25:31Z</time>
      </trkpt>
      <trkpt lat="45.00644" lon="6.53622">
        <ele>2726.92</ele>
        <time>2019-05-23T10:25:34Z</time>
      </trkpt>
      <trkpt lat="45.00658" lon="6.5364">
        <ele>2720.19</ele>
        <time>2019-05-23T10:25:38Z</time>
      </trkpt>
      <trkpt lat="45.00666" lon="6.53642">
        <ele>2715.86</ele>
        <time>2019-05-23T10:25:41Z</time>
      </trkpt>
      <trkpt lat="45.00666" lon="6.53638">
        <ele>2714.42</ele>
        <time>2019-05-23T10:25:42Z</time>
      </trkpt>
      <trkpt lat="45.00666" lon="6.53633">
        <ele>2712.5</ele>
        <time>2019-05-23T10:25:44Z</time>
      </trkpt>
      <trkpt lat="45.00677" lon="6.53637">
        <ele>2705.77</ele>
        <time>2019-05-23T10:25:48Z</time>
      </trkpt>
      <trkpt lat="45.0068" lon="6.53624">
        <ele>2702.88</ele>
        <time>2019-05-23T10:25:51Z</time>
      </trkpt>
      <trkpt lat="45.00688" lon="6.53628">
        <ele>2698.08</ele>
        <time>2019-05-23T10:25:54Z</time>
      </trkpt>
      <trkpt lat="45.0069" lon="6.53631">
        <ele>2697.12</ele>
        <time>2019-05-23T10:25:55Z</time>
      </trkpt>
      <trkpt lat="45.00694" lon="6.53639">
        <ele>2695.67</ele>
        <time>2019-05-23T10:25:57Z</time>
      </trkpt>
      <trkpt lat="45.007" lon="6.5363">
        <ele>2691.35</ele>
        <time>2019-05-23T10:26:01Z</time>
      </trkpt>
      <trkpt lat="45.00704" lon="6.53626">
        <ele>2687.98</ele>
        <time>2019-05-23T10:26:04Z</time>
      </trkpt>
      <trkpt lat="45.00708" lon="6.53629">
        <ele>2686.06</ele>
        <time>2019-05-23T10:26:05Z</time>
      </trkpt>
      <trkpt lat="45.00711" lon="6.53636">
        <ele>2683.66</ele>
        <time>2019-05-23T10:26:09Z</time>
      </trkpt>
      <trkpt lat="45.00717" lon="6.53641">
        <ele>2682.7</ele>
        <time>2019-05-23T10:26:30Z</time>
      </trkpt>
      <trkpt lat="45.00723" lon="6.53628">
        <ele>2677.89</ele>
        <time>2019-05-23T10:26:33Z</time>
      </trkpt>
      <trkpt lat="45.00725" lon="6.53614">
        <ele>2674.52</ele>
        <time>2019-05-23T10:26:36Z</time>
      </trkpt>
      <trkpt lat="45.0073" lon="6.53618">
        <ele>2670.68</ele>
        <time>2019-05-23T10:26:38Z</time>
      </trkpt>
      <trkpt lat="45.00733" lon="6.53623">
        <ele>2668.28</ele>
        <time>2019-05-23T10:26:39Z</time>
      </trkpt>
      <trkpt lat="45.00737" lon="6.53631">
        <ele>2665.39</ele>
        <time>2019-05-23T10:26:41Z</time>
      </trkpt>
      <trkpt lat="45.00742" lon="6.53621">
        <ele>2661.55</ele>
        <time>2019-05-23T10:26:44Z</time>
      </trkpt>
      <trkpt lat="45.0074" lon="6.53606">
        <ele>2659.62</ele>
        <time>2019-05-23T10:26:47Z</time>
      </trkpt>
      <trkpt lat="45.0074" lon="6.53599">
        <ele>2658.18</ele>
        <time>2019-05-23T10:26:49Z</time>
      </trkpt>
      <trkpt lat="45.00743" lon="6.53593">
        <ele>2653.86</ele>
        <time>2019-05-23T10:26:52Z</time>
      </trkpt>
      <trkpt lat="45.00745" lon="6.5359">
        <ele>2652.42</ele>
        <time>2019-05-23T10:26:53Z</time>
      </trkpt>
      <trkpt lat="45.00756" lon="6.53597">
        <ele>2647.61</ele>
        <time>2019-05-23T10:26:56Z</time>
      </trkpt>
      <trkpt lat="45.00757" lon="6.536">
        <ele>2647.13</ele>
        <time>2019-05-23T10:26:57Z</time>
      </trkpt>
      <trkpt lat="45.00769" lon="6.53594">
        <ele>2643.28</ele>
        <time>2019-05-23T10:27:02Z</time>
      </trkpt>
      <trkpt lat="45.00779" lon="6.53604">
        <ele>2638.48</ele>
        <time>2019-05-23T10:27:05Z</time>
      </trkpt>
      <trkpt lat="45.00782" lon="6.53613">
        <ele>2637.03</ele>
        <time>2019-05-23T10:27:07Z</time>
      </trkpt>
      <trkpt lat="45.00789" lon="6.53623">
        <ele>2635.11</ele>
        <time>2019-05-23T10:27:09Z</time>
      </trkpt>
      <trkpt lat="45.00804" lon="6.53654">
        <ele>2630.3</ele>
        <time>2019-05-23T10:27:13Z</time>
      </trkpt>
      <trkpt lat="45.0081" lon="6.53668">
        <ele>2629.34</ele>
        <time>2019-05-23T10:27:15Z</time>
      </trkpt>
      <trkpt lat="45.00813" lon="6.53675">
        <ele>2628.86</ele>
        <time>2019-05-23T10:27:16Z</time>
      </trkpt>
      <trkpt lat="45.00822" lon="6.53691">
        <ele>2627.42</ele>
        <time>2019-05-23T10:27:19Z</time>
      </trkpt>
      <trkpt lat="45.00836" lon="6.53713">
        <ele>2623.09</ele>
        <time>2019-05-23T10:27:22Z</time>
      </trkpt>
      <trkpt lat="45.00852" lon="6.53735">
        <ele>2619.73</ele>
        <time>2019-05-23T10:27:25Z</time>
      </trkpt>
      <trkpt lat="45.00886" lon="6.53763">
        <ele>2618.29</ele>
        <time>2019-05-23T10:27:33Z</time>
      </trkpt>
      <trkpt lat="45.00892" lon="6.53765">
        <ele>2617.33</ele>
        <time>2019-05-23T10:27:34Z</time>
      </trkpt>
      <trkpt lat="45.00903" lon="6.53769">
        <ele>2615.88</ele>
        <time>2019-05-23T10:27:36Z</time>
      </trkpt>
      <trkpt lat="45.00921" lon="6.53771">
        <ele>2615.4</ele>
        <time>2019-05-23T10:27:40Z</time>
      </trkpt>
      <trkpt lat="45.00931" lon="6.53764">
        <ele>2612.52</ele>
        <time>2019-05-23T10:27:46Z</time>
      </trkpt>
      <trkpt lat="45.00926" lon="6.53768">
        <ele>2612.52</ele>
        <time>2019-05-23T10:28:09Z</time>
      </trkpt>
      <trkpt lat="45.00925" lon="6.53772">
        <ele>2612.52</ele>
        <time>2019-05-23T10:28:34Z</time>
      </trkpt>
      <trkpt lat="45.00925" lon="6.53767">
        <ele>2612.52</ele>
        <time>2019-05-23T10:29:02Z</time>
      </trkpt>
      <trkpt lat="45.00925" lon="6.53767">
        <ele>2612.04</ele>
        <time>2019-05-23T10:29:16Z</time>
      </trkpt>
      <trkpt lat="45.00935" lon="6.53759">
        <ele>2607.23</ele>
        <time>2019-05-23T10:29:20Z</time>
      </trkpt>
      <trkpt lat="45.00946" lon="6.53759">
        <ele>2604.35</ele>
        <time>2019-05-23T10:29:22Z</time>
      </trkpt>
      <trkpt lat="45.00953" lon="6.53762">
        <ele>2602.91</ele>
        <time>2019-05-23T10:29:24Z</time>
      </trkpt>
      <trkpt lat="45.00962" lon="6.53748">
        <ele>2599.06</ele>
        <time>2019-05-23T10:29:28Z</time>
      </trkpt>
      <trkpt lat="45.0097" lon="6.53746">
        <ele>2594.25</ele>
        <time>2019-05-23T10:29:30Z</time>
      </trkpt>
      <trkpt lat="45.00987" lon="6.5375">
        <ele>2589.93</ele>
        <time>2019-05-23T10:29:33Z</time>
      </trkpt>
      <trkpt lat="45.01001" lon="6.53759">
        <ele>2586.08</ele>
        <time>2019-05-23T10:29:35Z</time>
      </trkpt>
      <trkpt lat="45.01022" lon="6.53766">
        <ele>2584.16</ele>
        <time>2019-05-23T10:29:38Z</time>
      </trkpt>
      <trkpt lat="45.01038" lon="6.53734">
        <ele>2581.28</ele>
        <time>2019-05-23T10:29:43Z</time>
      </trkpt>
      <trkpt lat="45.01048" lon="6.53729">
        <ele>2580.8</ele>
        <time>2019-05-23T10:29:46Z</time>
      </trkpt>
      <trkpt lat="45.01064" lon="6.53729">
        <ele>2577.91</ele>
        <time>2019-05-23T10:29:49Z</time>
      </trkpt>
      <trkpt lat="45.01081" lon="6.53722">
        <ele>2577.43</ele>
        <time>2019-05-23T10:29:53Z</time>
      </trkpt>
      <trkpt lat="45.01088" lon="6.53703">
        <ele>2573.11</ele>
        <time>2019-05-23T10:29:59Z</time>
      </trkpt>
      <trkpt lat="45.01097" lon="6.53685">
        <ele>2569.26</ele>
        <time>2019-05-23T10:30:03Z</time>
      </trkpt>
      <trkpt lat="45.01113" lon="6.53664">
        <ele>2565.9</ele>
        <time>2019-05-23T10:30:08Z</time>
      </trkpt>
      <trkpt lat="45.01123" lon="6.53654">
        <ele>2563.97</ele>
        <time>2019-05-23T10:30:11Z</time>
      </trkpt>
      <trkpt lat="45.01155" lon="6.53638">
        <ele>2560.61</ele>
        <time>2019-05-23T10:30:20Z</time>
      </trkpt>
      <trkpt lat="45.01189" lon="6.53631">
        <ele>2558.21</ele>
        <time>2019-05-23T10:30:30Z</time>
      </trkpt>
      <trkpt lat="45.01197" lon="6.53629">
        <ele>2556.76</ele>
        <time>2019-05-23T10:30:32Z</time>
      </trkpt>
      <trkpt lat="45.01222" lon="6.53637">
        <ele>2554.84</ele>
        <time>2019-05-23T10:30:38Z</time>
      </trkpt>
      <trkpt lat="45.01247" lon="6.5363">
        <ele>2551</ele>
        <time>2019-05-23T10:30:43Z</time>
      </trkpt>
      <trkpt lat="45.01256" lon="6.53621">
        <ele>2550.51</ele>
        <time>2019-05-23T10:30:45Z</time>
      </trkpt>
      <trkpt lat="45.01285" lon="6.53597">
        <ele>2547.15</ele>
        <time>2019-05-23T10:30:52Z</time>
      </trkpt>
      <trkpt lat="45.01308" lon="6.53582">
        <ele>2543.31</ele>
        <time>2019-05-23T10:30:56Z</time>
      </trkpt>
      <trkpt lat="45.01326" lon="6.53572">
        <ele>2541.86</ele>
        <time>2019-05-23T10:30:59Z</time>
      </trkpt>
      <trkpt lat="45.01352" lon="6.53555">
        <ele>2538.5</ele>
        <time>2019-05-23T10:31:04Z</time>
      </trkpt>
      <trkpt lat="45.01373" lon="6.53542">
        <ele>2536.1</ele>
        <time>2019-05-23T10:31:08Z</time>
      </trkpt>
      <trkpt lat="45.01401" lon="6.53523">
        <ele>2532.73</ele>
        <time>2019-05-23T10:31:13Z</time>
      </trkpt>
      <trkpt lat="45.01422" lon="6.53508">
        <ele>2529.37</ele>
        <time>2019-05-23T10:31:17Z</time>
      </trkpt>
      <trkpt lat="45.01435" lon="6.53509">
        <ele>2530.33</ele>
        <time>2019-05-23T10:31:21Z</time>
      </trkpt>
      <trkpt lat="45.01438" lon="6.53512">
        <ele>2528.89</ele>
        <time>2019-05-23T10:31:35Z</time>
      </trkpt>
      <trkpt lat="45.01438" lon="6.53529">
        <ele>2528.89</ele>
        <time>2019-05-23T10:31:54Z</time>
      </trkpt>
      <trkpt lat="45.01435" lon="6.53525">
        <ele>2527.92</ele>
        <time>2019-05-23T10:32:07Z</time>
      </trkpt>
      <trkpt lat="45.01438" lon="6.53526">
        <ele>2527.92</ele>
        <time>2019-05-23T10:32:27Z</time>
      </trkpt>
      <trkpt lat="45.01436" lon="6.53524">
        <ele>2527.92</ele>
        <time>2019-05-23T10:32:48Z</time>
      </trkpt>
      <trkpt lat="45.01435" lon="6.53524">
        <ele>2527.44</ele>
        <time>2019-05-23T10:33:11Z</time>
      </trkpt>
      <trkpt lat="45.01435" lon="6.53525">
        <ele>2527.44</ele>
        <time>2019-05-23T10:33:32Z</time>
      </trkpt>
      <trkpt lat="45.01435" lon="6.53524">
        <ele>2527.44</ele>
        <time>2019-05-23T10:33:54Z</time>
      </trkpt>
      <trkpt lat="45.01435" lon="6.53524">
        <ele>2527.44</ele>
        <time>2019-05-23T10:34:13Z</time>
      </trkpt>
      <trkpt lat="45.01432" lon="6.53522">
        <ele>2527.44</ele>
        <time>2019-05-23T10:34:28Z</time>
      </trkpt>
      <trkpt lat="45.01428" lon="6.53519">
        <ele>2527.44</ele>
        <time>2019-05-23T10:34:35Z</time>
      </trkpt>
      <trkpt lat="45.01422" lon="6.53514">
        <ele>2526.96</ele>
        <time>2019-05-23T10:34:48Z</time>
      </trkpt>
      <trkpt lat="45.0143" lon="6.53516">
        <ele>2526.48</ele>
        <time>2019-05-23T10:34:56Z</time>
      </trkpt>
      <trkpt lat="45.01447" lon="6.53514">
        <ele>2523.12</ele>
        <time>2019-05-23T10:35:03Z</time>
      </trkpt>
      <trkpt lat="45.01447" lon="6.53514">
        <ele>2523.12</ele>
        <time>2019-05-23T10:35:04Z</time>
      </trkpt>
      <trkpt lat="45.01445" lon="6.53515">
        <ele>2523.12</ele>
        <time>2019-05-23T10:35:23Z</time>
      </trkpt>
      <trkpt lat="45.01446" lon="6.53517">
        <ele>2523.12</ele>
        <time>2019-05-23T10:35:35Z</time>
      </trkpt>
      <trkpt lat="45.01477" lon="6.53533">
        <ele>2519.75</ele>
        <time>2019-05-23T10:35:44Z</time>
      </trkpt>
      <trkpt lat="45.01493" lon="6.53552">
        <ele>2516.39</ele>
        <time>2019-05-23T10:35:51Z</time>
      </trkpt>
      <trkpt lat="45.01496" lon="6.53556">
        <ele>2514.95</ele>
        <time>2019-05-23T10:35:52Z</time>
      </trkpt>
      <trkpt lat="45.01501" lon="6.53556">
        <ele>2513.5</ele>
        <time>2019-05-23T10:35:53Z</time>
      </trkpt>
      <trkpt lat="45.01504" lon="6.53543">
        <ele>2512.54</ele>
        <time>2019-05-23T10:35:55Z</time>
      </trkpt>
      <trkpt lat="45.01509" lon="6.53541">
        <ele>2510.14</ele>
        <time>2019-05-23T10:35:57Z</time>
      </trkpt>
      <trkpt lat="45.01513" lon="6.53526">
        <ele>2503.41</ele>
        <time>2019-05-23T10:36:00Z</time>
      </trkpt>
      <trkpt lat="45.01516" lon="6.53525">
        <ele>2501.01</ele>
        <time>2019-05-23T10:36:01Z</time>
      </trkpt>
      <trkpt lat="45.01519" lon="6.53521">
        <ele>2499.57</ele>
        <time>2019-05-23T10:36:02Z</time>
      </trkpt>
      <trkpt lat="45.0152" lon="6.535">
        <ele>2494.76</ele>
        <time>2019-05-23T10:36:06Z</time>
      </trkpt>
      <trkpt lat="45.01525" lon="6.53497">
        <ele>2492.36</ele>
        <time>2019-05-23T10:36:07Z</time>
      </trkpt>
      <trkpt lat="45.01531" lon="6.53495">
        <ele>2485.63</ele>
        <time>2019-05-23T10:36:08Z</time>
      </trkpt>
      <trkpt lat="45.01555" lon="6.53508">
        <ele>2486.11</ele>
        <time>2019-05-23T10:36:12Z</time>
      </trkpt>
      <trkpt lat="45.01559" lon="6.535">
        <ele>2485.15</ele>
        <time>2019-05-23T10:36:14Z</time>
      </trkpt>
      <trkpt lat="45.01552" lon="6.53496">
        <ele>2484.18</ele>
        <time>2019-05-23T10:36:23Z</time>
      </trkpt>
      <trkpt lat="45.01551" lon="6.53495">
        <ele>2484.18</ele>
        <time>2019-05-23T10:36:29Z</time>
      </trkpt>
      <trkpt lat="45.01559" lon="6.53483">
        <ele>2480.34</ele>
        <time>2019-05-23T10:36:33Z</time>
      </trkpt>
      <trkpt lat="45.01567" lon="6.53486">
        <ele>2478.9</ele>
        <time>2019-05-23T10:36:35Z</time>
      </trkpt>
      <trkpt lat="45.01573" lon="6.53467">
        <ele>2474.09</ele>
        <time>2019-05-23T10:36:41Z</time>
      </trkpt>
      <trkpt lat="45.01578" lon="6.53463">
        <ele>2472.17</ele>
        <time>2019-05-23T10:36:42Z</time>
      </trkpt>
      <trkpt lat="45.01609" lon="6.53483">
        <ele>2467.36</ele>
        <time>2019-05-23T10:36:48Z</time>
      </trkpt>
      <trkpt lat="45.01612" lon="6.53486">
        <ele>2468.32</ele>
        <time>2019-05-23T10:36:57Z</time>
      </trkpt>
      <trkpt lat="45.01613" lon="6.53484">
        <ele>2468.32</ele>
        <time>2019-05-23T10:37:08Z</time>
      </trkpt>
      <trkpt lat="45.01611" lon="6.53462">
        <ele>2464.96</ele>
        <time>2019-05-23T10:37:12Z</time>
      </trkpt>
      <trkpt lat="45.01623" lon="6.53445">
        <ele>2461.11</ele>
        <time>2019-05-23T10:37:16Z</time>
      </trkpt>
      <trkpt lat="45.01625" lon="6.53411">
        <ele>2457.27</ele>
        <time>2019-05-23T10:37:21Z</time>
      </trkpt>
      <trkpt lat="45.01643" lon="6.53424">
        <ele>2451.98</ele>
        <time>2019-05-23T10:37:25Z</time>
      </trkpt>
      <trkpt lat="45.01649" lon="6.53435">
        <ele>2451.02</ele>
        <time>2019-05-23T10:37:27Z</time>
      </trkpt>
      <trkpt lat="45.01664" lon="6.53464">
        <ele>2448.13</ele>
        <time>2019-05-23T10:37:36Z</time>
      </trkpt>
      <trkpt lat="45.01669" lon="6.53476">
        <ele>2446.21</ele>
        <time>2019-05-23T10:37:40Z</time>
      </trkpt>
      <trkpt lat="45.01681" lon="6.53473">
        <ele>2441.41</ele>
        <time>2019-05-23T10:37:45Z</time>
      </trkpt>
      <trkpt lat="45.01687" lon="6.53485">
        <ele>2437.08</ele>
        <time>2019-05-23T10:37:47Z</time>
      </trkpt>
      <trkpt lat="45.01688" lon="6.53491">
        <ele>2437.08</ele>
        <time>2019-05-23T10:37:48Z</time>
      </trkpt>
      <trkpt lat="45.01695" lon="6.53477">
        <ele>2434.2</ele>
        <time>2019-05-23T10:37:52Z</time>
      </trkpt>
      <trkpt lat="45.01703" lon="6.53485">
        <ele>2430.35</ele>
        <time>2019-05-23T10:37:55Z</time>
      </trkpt>
      <trkpt lat="45.01707" lon="6.53477">
        <ele>2426.5</ele>
        <time>2019-05-23T10:37:59Z</time>
      </trkpt>
      <trkpt lat="45.01707" lon="6.53457">
        <ele>2423.14</ele>
        <time>2019-05-23T10:38:06Z</time>
      </trkpt>
      <trkpt lat="45.01708" lon="6.53449">
        <ele>2422.18</ele>
        <time>2019-05-23T10:38:10Z</time>
      </trkpt>
      <trkpt lat="45.01707" lon="6.53444">
        <ele>2421.22</ele>
        <time>2019-05-23T10:38:20Z</time>
      </trkpt>
      <trkpt lat="45.01708" lon="6.53443">
        <ele>2421.22</ele>
        <time>2019-05-23T10:38:23Z</time>
      </trkpt>
      <trkpt lat="45.01707" lon="6.53438">
        <ele>2420.26</ele>
        <time>2019-05-23T10:38:36Z</time>
      </trkpt>
      <trkpt lat="45.01706" lon="6.53433">
        <ele>2419.78</ele>
        <time>2019-05-23T10:38:48Z</time>
      </trkpt>
      <trkpt lat="45.01705" lon="6.5342">
        <ele>2418.33</ele>
        <time>2019-05-23T10:38:59Z</time>
      </trkpt>
      <trkpt lat="45.01705" lon="6.53418">
        <ele>2417.85</ele>
        <time>2019-05-23T10:39:08Z</time>
      </trkpt>
      <trkpt lat="45.01709" lon="6.53393">
        <ele>2414.49</ele>
        <time>2019-05-23T10:39:12Z</time>
      </trkpt>
      <trkpt lat="45.01711" lon="6.53385">
        <ele>2413.05</ele>
        <time>2019-05-23T10:39:13Z</time>
      </trkpt>
      <trkpt lat="45.01733" lon="6.5338">
        <ele>2408.72</ele>
        <time>2019-05-23T10:39:19Z</time>
      </trkpt>
      <trkpt lat="45.01736" lon="6.53387">
        <ele>2405.84</ele>
        <time>2019-05-23T10:39:21Z</time>
      </trkpt>
      <trkpt lat="45.01742" lon="6.5339">
        <ele>2402.47</ele>
        <time>2019-05-23T10:39:24Z</time>
      </trkpt>
      <trkpt lat="45.01743" lon="6.53388">
        <ele>2402.47</ele>
        <time>2019-05-23T10:39:25Z</time>
      </trkpt>
      <trkpt lat="45.0174" lon="6.53387">
        <ele>2402.95</ele>
        <time>2019-05-23T10:39:43Z</time>
      </trkpt>
      <trkpt lat="45.01741" lon="6.53389">
        <ele>2402.95</ele>
        <time>2019-05-23T10:40:07Z</time>
      </trkpt>
      <trkpt lat="45.01743" lon="6.53387">
        <ele>2402.47</ele>
        <time>2019-05-23T10:40:20Z</time>
      </trkpt>
      <trkpt lat="45.01743" lon="6.53387">
        <ele>2401.99</ele>
        <time>2019-05-23T10:40:47Z</time>
      </trkpt>
      <trkpt lat="45.01742" lon="6.53387">
        <ele>2401.99</ele>
        <time>2019-05-23T10:41:13Z</time>
      </trkpt>
      <trkpt lat="45.01742" lon="6.53404">
        <ele>2398.15</ele>
        <time>2019-05-23T10:41:17Z</time>
      </trkpt>
      <trkpt lat="45.01743" lon="6.53429">
        <ele>2394.3</ele>
        <time>2019-05-23T10:41:20Z</time>
      </trkpt>
      <trkpt lat="45.01746" lon="6.53437">
        <ele>2394.3</ele>
        <time>2019-05-23T10:41:21Z</time>
      </trkpt>
      <trkpt lat="45.01753" lon="6.53452">
        <ele>2390.94</ele>
        <time>2019-05-23T10:41:23Z</time>
      </trkpt>
      <trkpt lat="45.0177" lon="6.53471">
        <ele>2386.61</ele>
        <time>2019-05-23T10:41:28Z</time>
      </trkpt>
      <trkpt lat="45.01777" lon="6.53467">
        <ele>2383.25</ele>
        <time>2019-05-23T10:41:30Z</time>
      </trkpt>
      <trkpt lat="45.01787" lon="6.53459">
        <ele>2377</ele>
        <time>2019-05-23T10:41:33Z</time>
      </trkpt>
      <trkpt lat="45.01792" lon="6.53448">
        <ele>2372.67</ele>
        <time>2019-05-23T10:41:35Z</time>
      </trkpt>
      <trkpt lat="45.01804" lon="6.53439">
        <ele>2367.86</ele>
        <time>2019-05-23T10:41:38Z</time>
      </trkpt>
      <trkpt lat="45.01811" lon="6.53423">
        <ele>2365.46</ele>
        <time>2019-05-23T10:41:40Z</time>
      </trkpt>
      <trkpt lat="45.01821" lon="6.53406">
        <ele>2363.54</ele>
        <time>2019-05-23T10:41:44Z</time>
      </trkpt>
      <trkpt lat="45.01824" lon="6.534">
        <ele>2362.1</ele>
        <time>2019-05-23T10:41:46Z</time>
      </trkpt>
      <trkpt lat="45.01837" lon="6.53401">
        <ele>2356.81</ele>
        <time>2019-05-23T10:41:49Z</time>
      </trkpt>
      <trkpt lat="45.01847" lon="6.534">
        <ele>2352.48</ele>
        <time>2019-05-23T10:41:51Z</time>
      </trkpt>
      <trkpt lat="45.01851" lon="6.534">
        <ele>2350.08</ele>
        <time>2019-05-23T10:41:52Z</time>
      </trkpt>
      <trkpt lat="45.01858" lon="6.53396">
        <ele>2344.31</ele>
        <time>2019-05-23T10:41:56Z</time>
      </trkpt>
      <trkpt lat="45.01858" lon="6.534">
        <ele>2342.87</ele>
        <time>2019-05-23T10:41:59Z</time>
      </trkpt>
      <trkpt lat="45.01862" lon="6.5341">
        <ele>2341.91</ele>
        <time>2019-05-23T10:42:09Z</time>
      </trkpt>
      <trkpt lat="45.01882" lon="6.53441">
        <ele>2337.1</ele>
        <time>2019-05-23T10:42:15Z</time>
      </trkpt>
      <trkpt lat="45.01903" lon="6.53451">
        <ele>2332.3</ele>
        <time>2019-05-23T10:42:18Z</time>
      </trkpt>
      <trkpt lat="45.01914" lon="6.53471">
        <ele>2328.93</ele>
        <time>2019-05-23T10:42:21Z</time>
      </trkpt>
      <trkpt lat="45.01916" lon="6.53476">
        <ele>2328.93</ele>
        <time>2019-05-23T10:42:22Z</time>
      </trkpt>
      <trkpt lat="45.01925" lon="6.5348">
        <ele>2327.97</ele>
        <time>2019-05-23T10:42:24Z</time>
      </trkpt>
      <trkpt lat="45.0195" lon="6.53482">
        <ele>2321.72</ele>
        <time>2019-05-23T10:42:27Z</time>
      </trkpt>
      <trkpt lat="45.01968" lon="6.53485">
        <ele>2318.36</ele>
        <time>2019-05-23T10:42:29Z</time>
      </trkpt>
      <trkpt lat="45.01977" lon="6.53486">
        <ele>2317.4</ele>
        <time>2019-05-23T10:42:30Z</time>
      </trkpt>
      <trkpt lat="45.01997" lon="6.53497">
        <ele>2314.99</ele>
        <time>2019-05-23T10:42:33Z</time>
      </trkpt>
      <trkpt lat="45.02013" lon="6.53515">
        <ele>2315.47</ele>
        <time>2019-05-23T10:42:41Z</time>
      </trkpt>
      <trkpt lat="45.02016" lon="6.53512">
        <ele>2315.95</ele>
        <time>2019-05-23T10:42:55Z</time>
      </trkpt>
      <trkpt lat="45.02017" lon="6.53505">
        <ele>2315.95</ele>
        <time>2019-05-23T10:43:09Z</time>
      </trkpt>
      <trkpt lat="45.02015" lon="6.53505">
        <ele>2315.95</ele>
        <time>2019-05-23T10:43:26Z</time>
      </trkpt>
      <trkpt lat="45.02016" lon="6.53503">
        <ele>2315.95</ele>
        <time>2019-05-23T10:43:33Z</time>
      </trkpt>
      <trkpt lat="45.02026" lon="6.53497">
        <ele>2315.47</ele>
        <time>2019-05-23T10:43:43Z</time>
      </trkpt>
      <trkpt lat="45.0203" lon="6.53494">
        <ele>2314.99</ele>
        <time>2019-05-23T10:43:47Z</time>
      </trkpt>
      <trkpt lat="45.0205" lon="6.53489">
        <ele>2313.07</ele>
        <time>2019-05-23T10:43:56Z</time>
      </trkpt>
      <trkpt lat="45.02077" lon="6.53485">
        <ele>2311.15</ele>
        <time>2019-05-23T10:44:12Z</time>
      </trkpt>
      <trkpt lat="45.0208" lon="6.53486">
        <ele>2311.15</ele>
        <time>2019-05-23T10:44:13Z</time>
      </trkpt>
      <trkpt lat="45.02098" lon="6.53493">
        <ele>2310.19</ele>
        <time>2019-05-23T10:44:24Z</time>
      </trkpt>
      <trkpt lat="45.02115" lon="6.53503">
        <ele>2308.74</ele>
        <time>2019-05-23T10:44:34Z</time>
      </trkpt>
      <trkpt lat="45.02123" lon="6.53511">
        <ele>2308.26</ele>
        <time>2019-05-23T10:44:50Z</time>
      </trkpt>
      <trkpt lat="45.02125" lon="6.53513">
        <ele>2308.26</ele>
        <time>2019-05-23T10:45:09Z</time>
      </trkpt>
      <trkpt lat="45.02126" lon="6.53516">
        <ele>2308.26</ele>
        <time>2019-05-23T10:45:26Z</time>
      </trkpt>
      <trkpt lat="45.02126" lon="6.53516">
        <ele>2308.26</ele>
        <time>2019-05-23T10:45:49Z</time>
      </trkpt>
      <trkpt lat="45.02128" lon="6.53518">
        <ele>2308.26</ele>
        <time>2019-05-23T10:46:05Z</time>
      </trkpt>
      <trkpt lat="45.02128" lon="6.53521">
        <ele>2307.78</ele>
        <time>2019-05-23T10:46:13Z</time>
      </trkpt>
      <trkpt lat="45.02132" lon="6.53533">
        <ele>2305.86</ele>
        <time>2019-05-23T10:46:19Z</time>
      </trkpt>
      <trkpt lat="45.02135" lon="6.53553">
        <ele>2303.46</ele>
        <time>2019-05-23T10:46:30Z</time>
      </trkpt>
      <trkpt lat="45.02137" lon="6.53556">
        <ele>2302.49</ele>
        <time>2019-05-23T10:46:31Z</time>
      </trkpt>
      <trkpt lat="45.02151" lon="6.53556">
        <ele>2297.21</ele>
        <time>2019-05-23T10:46:35Z</time>
      </trkpt>
      <trkpt lat="45.02155" lon="6.53567">
        <ele>2293.36</ele>
        <time>2019-05-23T10:46:37Z</time>
      </trkpt>
      <trkpt lat="45.02168" lon="6.53565">
        <ele>2289.52</ele>
        <time>2019-05-23T10:46:40Z</time>
      </trkpt>
      <trkpt lat="45.02179" lon="6.53566">
        <ele>2286.63</ele>
        <time>2019-05-23T10:46:42Z</time>
      </trkpt>
      <trkpt lat="45.02209" lon="6.53581">
        <ele>2280.87</ele>
        <time>2019-05-23T10:46:46Z</time>
      </trkpt>
      <trkpt lat="45.02227" lon="6.53588">
        <ele>2279.42</ele>
        <time>2019-05-23T10:46:49Z</time>
      </trkpt>
      <trkpt lat="45.02256" lon="6.53605">
        <ele>2276.54</ele>
        <time>2019-05-23T10:46:57Z</time>
      </trkpt>
      <trkpt lat="45.02264" lon="6.53608">
        <ele>2275.58</ele>
        <time>2019-05-23T10:47:00Z</time>
      </trkpt>
      <trkpt lat="45.02281" lon="6.53606">
        <ele>2274.14</ele>
        <time>2019-05-23T10:47:13Z</time>
      </trkpt>
      <trkpt lat="45.02301" lon="6.53599">
        <ele>2271.73</ele>
        <time>2019-05-23T10:47:18Z</time>
      </trkpt>
      <trkpt lat="45.02318" lon="6.53588">
        <ele>2269.81</ele>
        <time>2019-05-23T10:47:22Z</time>
      </trkpt>
      <trkpt lat="45.02352" lon="6.53556">
        <ele>2265.96</ele>
        <time>2019-05-23T10:47:34Z</time>
      </trkpt>
      <trkpt lat="45.02363" lon="6.53555">
        <ele>2265.96</ele>
        <time>2019-05-23T10:47:44Z</time>
      </trkpt>
      <trkpt lat="45.02361" lon="6.53559">
        <ele>2265.48</ele>
        <time>2019-05-23T10:48:09Z</time>
      </trkpt>
      <trkpt lat="45.02363" lon="6.53558">
        <ele>2265</ele>
        <time>2019-05-23T10:48:15Z</time>
      </trkpt>
      <trkpt lat="45.02374" lon="6.53552">
        <ele>2263.56</ele>
        <time>2019-05-23T10:48:20Z</time>
      </trkpt>
      <trkpt lat="45.0241" lon="6.53547">
        <ele>2260.68</ele>
        <time>2019-05-23T10:48:29Z</time>
      </trkpt>
      <trkpt lat="45.02413" lon="6.53547">
        <ele>2260.2</ele>
        <time>2019-05-23T10:48:30Z</time>
      </trkpt>
      <trkpt lat="45.02416" lon="6.53553">
        <ele>2260.2</ele>
        <time>2019-05-23T10:48:41Z</time>
      </trkpt>
      <trkpt lat="45.0242" lon="6.53555">
        <ele>2260.2</ele>
        <time>2019-05-23T10:48:59Z</time>
      </trkpt>
      <trkpt lat="45.02426" lon="6.53564">
        <ele>2258.75</ele>
        <time>2019-05-23T10:49:04Z</time>
      </trkpt>
      <trkpt lat="45.02431" lon="6.53577">
        <ele>2256.83</ele>
        <time>2019-05-23T10:49:06Z</time>
      </trkpt>
      <trkpt lat="45.02438" lon="6.53586">
        <ele>2255.39</ele>
        <time>2019-05-23T10:49:08Z</time>
      </trkpt>
      <trkpt lat="45.02465" lon="6.53591">
        <ele>2251.54</ele>
        <time>2019-05-23T10:49:14Z</time>
      </trkpt>
      <trkpt lat="45.02471" lon="6.53594">
        <ele>2250.58</ele>
        <time>2019-05-23T10:49:16Z</time>
      </trkpt>
      <trkpt lat="45.02467" lon="6.53594">
        <ele>2250.58</ele>
        <time>2019-05-23T10:49:26Z</time>
      </trkpt>
      <trkpt lat="45.02466" lon="6.53595">
        <ele>2250.58</ele>
        <time>2019-05-23T10:49:52Z</time>
      </trkpt>
      <trkpt lat="45.02465" lon="6.53594">
        <ele>2250.58</ele>
        <time>2019-05-23T10:50:15Z</time>
      </trkpt>
      <trkpt lat="45.02465" lon="6.53596">
        <ele>2250.58</ele>
        <time>2019-05-23T10:50:41Z</time>
      </trkpt>
      <trkpt lat="45.02464" lon="6.53597">
        <ele>2250.58</ele>
        <time>2019-05-23T10:51:00Z</time>
      </trkpt>
      <trkpt lat="45.02463" lon="6.53596">
        <ele>2250.1</ele>
        <time>2019-05-23T10:51:22Z</time>
      </trkpt>
      <trkpt lat="45.02463" lon="6.53596">
        <ele>2249.62</ele>
        <time>2019-05-23T10:51:36Z</time>
      </trkpt>
      <trkpt lat="45.02464" lon="6.536">
        <ele>2249.62</ele>
        <time>2019-05-23T10:51:53Z</time>
      </trkpt>
      <trkpt lat="45.02479" lon="6.53603">
        <ele>2248.18</ele>
        <time>2019-05-23T10:52:06Z</time>
      </trkpt>
      <trkpt lat="45.02491" lon="6.53592">
        <ele>2243.37</ele>
        <time>2019-05-23T10:52:09Z</time>
      </trkpt>
      <trkpt lat="45.02501" lon="6.53595">
        <ele>2240.49</ele>
        <time>2019-05-23T10:52:13Z</time>
      </trkpt>
      <trkpt lat="45.0252" lon="6.53602">
        <ele>2234.72</ele>
        <time>2019-05-23T10:52:19Z</time>
      </trkpt>
      <trkpt lat="45.02525" lon="6.53612">
        <ele>2234.24</ele>
        <time>2019-05-23T10:52:30Z</time>
      </trkpt>
      <trkpt lat="45.0252" lon="6.53617">
        <ele>2233.76</ele>
        <time>2019-05-23T10:52:51Z</time>
      </trkpt>
      <trkpt lat="45.02523" lon="6.53614">
        <ele>2233.76</ele>
        <time>2019-05-23T10:52:57Z</time>
      </trkpt>
      <trkpt lat="45.02533" lon="6.53608">
        <ele>2229.92</ele>
        <time>2019-05-23T10:53:02Z</time>
      </trkpt>
      <trkpt lat="45.02532" lon="6.53598">
        <ele>2227.51</ele>
        <time>2019-05-23T10:53:04Z</time>
      </trkpt>
      <trkpt lat="45.0254" lon="6.53592">
        <ele>2222.71</ele>
        <time>2019-05-23T10:53:07Z</time>
      </trkpt>
      <trkpt lat="45.02546" lon="6.53593">
        <ele>2220.3</ele>
        <time>2019-05-23T10:53:08Z</time>
      </trkpt>
      <trkpt lat="45.02574" lon="6.53608">
        <ele>2215.01</ele>
        <time>2019-05-23T10:53:12Z</time>
      </trkpt>
      <trkpt lat="45.02616" lon="6.5363">
        <ele>2210.69</ele>
        <time>2019-05-23T10:53:19Z</time>
      </trkpt>
      <trkpt lat="45.02651" lon="6.53638">
        <ele>2208.77</ele>
        <time>2019-05-23T10:53:30Z</time>
      </trkpt>
      <trkpt lat="45.02654" lon="6.53637">
        <ele>2207.81</ele>
        <time>2019-05-23T10:53:32Z</time>
      </trkpt>
      <trkpt lat="45.02655" lon="6.53618">
        <ele>2203.48</ele>
        <time>2019-05-23T10:53:37Z</time>
      </trkpt>
      <trkpt lat="45.02659" lon="6.53616">
        <ele>2201.56</ele>
        <time>2019-05-23T10:53:38Z</time>
      </trkpt>
      <trkpt lat="45.0267" lon="6.53614">
        <ele>2198.67</ele>
        <time>2019-05-23T10:53:40Z</time>
      </trkpt>
      <trkpt lat="45.02704" lon="6.53623">
        <ele>2193.87</ele>
        <time>2019-05-23T10:53:50Z</time>
      </trkpt>
      <trkpt lat="45.02719" lon="6.53632">
        <ele>2190.98</ele>
        <time>2019-05-23T10:53:54Z</time>
      </trkpt>
      <trkpt lat="45.02722" lon="6.53611">
        <ele>2187.62</ele>
        <time>2019-05-23T10:53:58Z</time>
      </trkpt>
      <trkpt lat="45.02732" lon="6.5361">
        <ele>2183.77</ele>
        <time>2019-05-23T10:54:01Z</time>
      </trkpt>
      <trkpt lat="45.02749" lon="6.53616">
        <ele>2180.41</ele>
        <time>2019-05-23T10:54:05Z</time>
      </trkpt>
      <trkpt lat="45.02758" lon="6.53617">
        <ele>2178.97</ele>
        <time>2019-05-23T10:54:11Z</time>
      </trkpt>
      <trkpt lat="45.02762" lon="6.53618">
        <ele>2177.52</ele>
        <time>2019-05-23T10:54:14Z</time>
      </trkpt>
      <trkpt lat="45.02772" lon="6.53619">
        <ele>2174.16</ele>
        <time>2019-05-23T10:54:18Z</time>
      </trkpt>
      <trkpt lat="45.02778" lon="6.53623">
        <ele>2174.16</ele>
        <time>2019-05-23T10:54:30Z</time>
      </trkpt>
      <trkpt lat="45.02775" lon="6.53627">
        <ele>2173.2</ele>
        <time>2019-05-23T10:54:56Z</time>
      </trkpt>
      <trkpt lat="45.02786" lon="6.53627">
        <ele>2172.24</ele>
        <time>2019-05-23T10:55:14Z</time>
      </trkpt>
      <trkpt lat="45.0279" lon="6.5362">
        <ele>2170.31</ele>
        <time>2019-05-23T10:55:18Z</time>
      </trkpt>
      <trkpt lat="45.02797" lon="6.53617">
        <ele>2167.91</ele>
        <time>2019-05-23T10:55:20Z</time>
      </trkpt>
      <trkpt lat="45.02827" lon="6.53624">
        <ele>2162.62</ele>
        <time>2019-05-23T10:55:26Z</time>
      </trkpt>
      <trkpt lat="45.02853" lon="6.53633">
        <ele>2159.26</ele>
        <time>2019-05-23T10:55:31Z</time>
      </trkpt>
      <trkpt lat="45.02864" lon="6.53643">
        <ele>2159.26</ele>
        <time>2019-05-23T10:55:39Z</time>
      </trkpt>
      <trkpt lat="45.02864" lon="6.53643">
        <ele>2158.78</ele>
        <time>2019-05-23T10:55:44Z</time>
      </trkpt>
      <trkpt lat="45.02875" lon="6.53649">
        <ele>2156.86</ele>
        <time>2019-05-23T10:55:49Z</time>
      </trkpt>
      <trkpt lat="45.02884" lon="6.53656">
        <ele>2157.34</ele>
        <time>2019-05-23T10:56:04Z</time>
      </trkpt>
      <trkpt lat="45.02887" lon="6.53664">
        <ele>2156.86</ele>
        <time>2019-05-23T10:56:21Z</time>
      </trkpt>
      <trkpt lat="45.02888" lon="6.53667">
        <ele>2157.34</ele>
        <time>2019-05-23T10:56:36Z</time>
      </trkpt>
      <trkpt lat="45.02895" lon="6.5367">
        <ele>2157.34</ele>
        <time>2019-05-23T10:56:54Z</time>
      </trkpt>
      <trkpt lat="45.029" lon="6.53678">
        <ele>2156.86</ele>
        <time>2019-05-23T10:57:02Z</time>
      </trkpt>
      <trkpt lat="45.02905" lon="6.5368">
        <ele>2155.89</ele>
        <time>2019-05-23T10:57:04Z</time>
      </trkpt>
      <trkpt lat="45.02919" lon="6.53692">
        <ele>2153.49</ele>
        <time>2019-05-23T10:57:09Z</time>
      </trkpt>
      <trkpt lat="45.02936" lon="6.53705">
        <ele>2151.09</ele>
        <time>2019-05-23T10:57:19Z</time>
      </trkpt>
      <trkpt lat="45.02939" lon="6.53714">
        <ele>2150.13</ele>
        <time>2019-05-23T10:57:32Z</time>
      </trkpt>
      <trkpt lat="45.02945" lon="6.53717">
        <ele>2150.13</ele>
        <time>2019-05-23T10:57:47Z</time>
      </trkpt>
      <trkpt lat="45.02957" lon="6.53726">
        <ele>2147.24</ele>
        <time>2019-05-23T10:57:52Z</time>
      </trkpt>
      <trkpt lat="45.02962" lon="6.53728">
        <ele>2147.24</ele>
        <time>2019-05-23T10:57:54Z</time>
      </trkpt>
      <trkpt lat="45.02982" lon="6.53739">
        <ele>2143.88</ele>
        <time>2019-05-23T10:57:59Z</time>
      </trkpt>
      <trkpt lat="45.02994" lon="6.53752">
        <ele>2143.4</ele>
        <time>2019-05-23T10:58:08Z</time>
      </trkpt>
      <trkpt lat="45.03002" lon="6.53767">
        <ele>2142.92</ele>
        <time>2019-05-23T10:58:18Z</time>
      </trkpt>
      <trkpt lat="45.03004" lon="6.53784">
        <ele>2142.92</ele>
        <time>2019-05-23T10:58:31Z</time>
      </trkpt>
      <trkpt lat="45.03005" lon="6.53792">
        <ele>2143.4</ele>
        <time>2019-05-23T10:58:44Z</time>
      </trkpt>
      <trkpt lat="45.03008" lon="6.53799">
        <ele>2143.4</ele>
        <time>2019-05-23T10:59:00Z</time>
      </trkpt>
      <trkpt lat="45.03015" lon="6.53803">
        <ele>2143.4</ele>
        <time>2019-05-23T10:59:15Z</time>
      </trkpt>
      <trkpt lat="45.03021" lon="6.53811">
        <ele>2143.4</ele>
        <time>2019-05-23T10:59:32Z</time>
      </trkpt>
      <trkpt lat="45.03025" lon="6.53817">
        <ele>2143.4</ele>
        <time>2019-05-23T10:59:47Z</time>
      </trkpt>
      <trkpt lat="45.03024" lon="6.53822">
        <ele>2142.92</ele>
        <time>2019-05-23T11:00:02Z</time>
      </trkpt>
      <trkpt lat="45.03016" lon="6.53825">
        <ele>2141.47</ele>
        <time>2019-05-23T11:00:17Z</time>
      </trkpt>
      <trkpt lat="45.03016" lon="6.53826">
        <ele>2141.47</ele>
        <time>2019-05-23T11:00:18Z</time>
      </trkpt>
      <trkpt lat="45.03009" lon="6.53851">
        <ele>2138.59</ele>
        <time>2019-05-23T11:00:28Z</time>
      </trkpt>
      <trkpt lat="45.03007" lon="6.53853">
        <ele>2138.11</ele>
        <time>2019-05-23T11:00:31Z</time>
      </trkpt>
      <trkpt lat="45.03002" lon="6.53877">
        <ele>2134.26</ele>
        <time>2019-05-23T11:00:37Z</time>
      </trkpt>
      <trkpt lat="45.02998" lon="6.53892">
        <ele>2130.9</ele>
        <time>2019-05-23T11:00:40Z</time>
      </trkpt>
      <trkpt lat="45.02995" lon="6.53895">
        <ele>2130.42</ele>
        <time>2019-05-23T11:00:48Z</time>
      </trkpt>
      <trkpt lat="45.02995" lon="6.53912">
        <ele>2127.05</ele>
        <time>2019-05-23T11:00:52Z</time>
      </trkpt>
      <trkpt lat="45.02994" lon="6.53917">
        <ele>2126.09</ele>
        <time>2019-05-23T11:00:53Z</time>
      </trkpt>
      <trkpt lat="45.02987" lon="6.53941">
        <ele>2121.77</ele>
        <time>2019-05-23T11:00:58Z</time>
      </trkpt>
      <trkpt lat="45.02985" lon="6.53947">
        <ele>2121.29</ele>
        <time>2019-05-23T11:01:00Z</time>
      </trkpt>
      <trkpt lat="45.02984" lon="6.53967">
        <ele>2117.92</ele>
        <time>2019-05-23T11:01:06Z</time>
      </trkpt>
      <trkpt lat="45.02982" lon="6.53973">
        <ele>2116.96</ele>
        <time>2019-05-23T11:01:08Z</time>
      </trkpt>
      <trkpt lat="45.02981" lon="6.53974">
        <ele>2116.96</ele>
        <time>2019-05-23T11:01:14Z</time>
      </trkpt>
      <trkpt lat="45.02984" lon="6.53985">
        <ele>2113.12</ele>
        <time>2019-05-23T11:01:19Z</time>
      </trkpt>
      <trkpt lat="45.02988" lon="6.53982">
        <ele>2112.15</ele>
        <time>2019-05-23T11:01:21Z</time>
      </trkpt>
      <trkpt lat="45.02991" lon="6.53978">
        <ele>2112.15</ele>
        <time>2019-05-23T11:01:32Z</time>
      </trkpt>
      <trkpt lat="45.02991" lon="6.53975">
        <ele>2112.15</ele>
        <time>2019-05-23T11:01:51Z</time>
      </trkpt>
      <trkpt lat="45.02993" lon="6.53978">
        <ele>2112.15</ele>
        <time>2019-05-23T11:02:12Z</time>
      </trkpt>
      <trkpt lat="45.02998" lon="6.53981">
        <ele>2111.67</ele>
        <time>2019-05-23T11:02:41Z</time>
      </trkpt>
      <trkpt lat="45.02996" lon="6.53983">
        <ele>2111.19</ele>
        <time>2019-05-23T11:03:04Z</time>
      </trkpt>
      <trkpt lat="45.02992" lon="6.5398">
        <ele>2111.67</ele>
        <time>2019-05-23T11:03:19Z</time>
      </trkpt>
      <trkpt lat="45.02986" lon="6.54012">
        <ele>2109.27</ele>
        <time>2019-05-23T11:03:35Z</time>
      </trkpt>
      <trkpt lat="45.02979" lon="6.54035">
        <ele>2107.83</ele>
        <time>2019-05-23T11:03:47Z</time>
      </trkpt>
      <trkpt lat="45.02978" lon="6.5404">
        <ele>2107.83</ele>
        <time>2019-05-23T11:03:53Z</time>
      </trkpt>
      <trkpt lat="45.02983" lon="6.54052">
        <ele>2103.98</ele>
        <time>2019-05-23T11:03:59Z</time>
      </trkpt>
      <trkpt lat="45.02985" lon="6.54063">
        <ele>2101.58</ele>
        <time>2019-05-23T11:04:07Z</time>
      </trkpt>
      <trkpt lat="45.02985" lon="6.54067">
        <ele>2101.58</ele>
        <time>2019-05-23T11:04:23Z</time>
      </trkpt>
      <trkpt lat="45.02988" lon="6.54065">
        <ele>2101.58</ele>
        <time>2019-05-23T11:04:38Z</time>
      </trkpt>
      <trkpt lat="45.02988" lon="6.54066">
        <ele>2100.62</ele>
        <time>2019-05-23T11:04:58Z</time>
      </trkpt>
      <trkpt lat="45.02989" lon="6.54068">
        <ele>2100.62</ele>
        <time>2019-05-23T11:05:14Z</time>
      </trkpt>
      <trkpt lat="45.02991" lon="6.54062">
        <ele>2100.14</ele>
        <time>2019-05-23T11:05:29Z</time>
      </trkpt>
      <trkpt lat="45.02989" lon="6.54064">
        <ele>2099.66</ele>
        <time>2019-05-23T11:05:48Z</time>
      </trkpt>
      <trkpt lat="45.0299" lon="6.54066">
        <ele>2099.66</ele>
        <time>2019-05-23T11:06:06Z</time>
      </trkpt>
      <trkpt lat="45.02991" lon="6.54067">
        <ele>2099.66</ele>
        <time>2019-05-23T11:06:34Z</time>
      </trkpt>
      <trkpt lat="45.02993" lon="6.54064">
        <ele>2099.66</ele>
        <time>2019-05-23T11:07:04Z</time>
      </trkpt>
      <trkpt lat="45.02987" lon="6.54064">
        <ele>2099.66</ele>
        <time>2019-05-23T11:07:33Z</time>
      </trkpt>
      <trkpt lat="45.0299" lon="6.54062">
        <ele>2099.18</ele>
        <time>2019-05-23T11:08:01Z</time>
      </trkpt>
      <trkpt lat="45.02991" lon="6.54065">
        <ele>2099.66</ele>
        <time>2019-05-23T11:08:28Z</time>
      </trkpt>
      <trkpt lat="45.0299" lon="6.54058">
        <ele>2099.66</ele>
        <time>2019-05-23T11:08:45Z</time>
      </trkpt>
      <trkpt lat="45.02991" lon="6.54056">
        <ele>2099.18</ele>
        <time>2019-05-23T11:09:09Z</time>
      </trkpt>
      <trkpt lat="45.02989" lon="6.54055">
        <ele>2099.66</ele>
        <time>2019-05-23T11:09:39Z</time>
      </trkpt>
      <trkpt lat="45.0299" lon="6.54056">
        <ele>2099.66</ele>
        <time>2019-05-23T11:10:03Z</time>
      </trkpt>
      <trkpt lat="45.02994" lon="6.54062">
        <ele>2099.66</ele>
        <time>2019-05-23T11:10:22Z</time>
      </trkpt>
      <trkpt lat="45.02997" lon="6.54059">
        <ele>2099.66</ele>
        <time>2019-05-23T11:10:39Z</time>
      </trkpt>
      <trkpt lat="45.02997" lon="6.54059">
        <ele>2099.66</ele>
        <time>2019-05-23T11:11:05Z</time>
      </trkpt>
      <trkpt lat="45.02999" lon="6.54059">
        <ele>2099.66</ele>
        <time>2019-05-23T11:11:31Z</time>
      </trkpt>
      <trkpt lat="45.02995" lon="6.54062">
        <ele>2099.66</ele>
        <time>2019-05-23T11:11:58Z</time>
      </trkpt>
      <trkpt lat="45.02992" lon="6.54067">
        <ele>2100.14</ele>
        <time>2019-05-23T11:12:21Z</time>
      </trkpt>
      <trkpt lat="45.02987" lon="6.54067">
        <ele>2099.66</ele>
        <time>2019-05-23T11:12:46Z</time>
      </trkpt>
      <trkpt lat="45.02986" lon="6.5407">
        <ele>2099.66</ele>
        <time>2019-05-23T11:13:09Z</time>
      </trkpt>
      <trkpt lat="45.02995" lon="6.54061">
        <ele>2100.14</ele>
        <time>2019-05-23T11:13:34Z</time>
      </trkpt>
      <trkpt lat="45.02992" lon="6.54061">
        <ele>2100.14</ele>
        <time>2019-05-23T11:14:07Z</time>
      </trkpt>
      <trkpt lat="45.02991" lon="6.54064">
        <ele>2100.14</ele>
        <time>2019-05-23T11:14:23Z</time>
      </trkpt>
      <trkpt lat="45.02992" lon="6.54068">
        <ele>2100.14</ele>
        <time>2019-05-23T11:14:44Z</time>
      </trkpt>
      <trkpt lat="45.02992" lon="6.54065">
        <ele>2100.14</ele>
        <time>2019-05-23T11:15:07Z</time>
      </trkpt>
      <trkpt lat="45.02995" lon="6.54062">
        <ele>2100.14</ele>
        <time>2019-05-23T11:15:30Z</time>
      </trkpt>
      <trkpt lat="45.02994" lon="6.5407">
        <ele>2100.14</ele>
        <time>2019-05-23T11:15:56Z</time>
      </trkpt>
      <trkpt lat="45.02995" lon="6.54068">
        <ele>2100.14</ele>
        <time>2019-05-23T11:16:19Z</time>
      </trkpt>
      <trkpt lat="45.02995" lon="6.54066">
        <ele>2100.62</ele>
        <time>2019-05-23T11:16:40Z</time>
      </trkpt>
      <trkpt lat="45.02996" lon="6.54068">
        <ele>2100.62</ele>
        <time>2019-05-23T11:17:08Z</time>
      </trkpt>
      <trkpt lat="45.03002" lon="6.54064">
        <ele>2101.1</ele>
        <time>2019-05-23T11:17:34Z</time>
      </trkpt>
      <trkpt lat="45.03" lon="6.54065">
        <ele>2101.1</ele>
        <time>2019-05-23T11:18:01Z</time>
      </trkpt>
      <trkpt lat="45.02998" lon="6.54061">
        <ele>2102.54</ele>
        <time>2019-05-23T11:18:22Z</time>
      </trkpt>
      <trkpt lat="45.03009" lon="6.54061">
        <ele>2102.06</ele>
        <time>2019-05-23T11:18:46Z</time>
      </trkpt>
      <trkpt lat="45.03005" lon="6.54066">
        <ele>2102.06</ele>
        <time>2019-05-23T11:19:09Z</time>
      </trkpt>
      <trkpt lat="45.02999" lon="6.54062">
        <ele>2102.06</ele>
        <time>2019-05-23T11:19:32Z</time>
      </trkpt>
      <trkpt lat="45.02998" lon="6.54069">
        <ele>2103.5</ele>
        <time>2019-05-23T11:19:52Z</time>
      </trkpt>
      <trkpt lat="45.02993" lon="6.54077">
        <ele>2103.02</ele>
        <time>2019-05-23T11:20:03Z</time>
      </trkpt>
      <trkpt lat="45.02988" lon="6.54084">
        <ele>2103.02</ele>
        <time>2019-05-23T11:20:14Z</time>
      </trkpt>
      <trkpt lat="45.02983" lon="6.54089">
        <ele>2102.54</ele>
        <time>2019-05-23T11:20:27Z</time>
      </trkpt>
      <trkpt lat="45.02972" lon="6.54101">
        <ele>2100.62</ele>
        <time>2019-05-23T11:20:42Z</time>
      </trkpt>
      <trkpt lat="45.02963" lon="6.54109">
        <ele>2099.18</ele>
        <time>2019-05-23T11:20:57Z</time>
      </trkpt>
      <trkpt lat="45.02959" lon="6.54127">
        <ele>2097.25</ele>
        <time>2019-05-23T11:21:14Z</time>
      </trkpt>
      <trkpt lat="45.02952" lon="6.54146">
        <ele>2095.81</ele>
        <time>2019-05-23T11:21:31Z</time>
      </trkpt>
      <trkpt lat="45.0295" lon="6.54156">
        <ele>2094.37</ele>
        <time>2019-05-23T11:21:43Z</time>
      </trkpt>
      <trkpt lat="45.02947" lon="6.54169">
        <ele>2093.89</ele>
        <time>2019-05-23T11:21:56Z</time>
      </trkpt>
      <trkpt lat="45.02948" lon="6.5418">
        <ele>2091.97</ele>
        <time>2019-05-23T11:22:09Z</time>
      </trkpt>
      <trkpt lat="45.02946" lon="6.54195">
        <ele>2091.97</ele>
        <time>2019-05-23T11:22:25Z</time>
      </trkpt>
      <trkpt lat="45.02946" lon="6.54199">
        <ele>2090.04</ele>
        <time>2019-05-23T11:22:28Z</time>
      </trkpt>
      <trkpt lat="45.02944" lon="6.5421">
        <ele>2088.6</ele>
        <time>2019-05-23T11:22:43Z</time>
      </trkpt>
      <trkpt lat="45.02939" lon="6.54225">
        <ele>2087.16</ele>
        <time>2019-05-23T11:22:57Z</time>
      </trkpt>
      <trkpt lat="45.02936" lon="6.54244">
        <ele>2084.28</ele>
        <time>2019-05-23T11:23:14Z</time>
      </trkpt>
      <trkpt lat="45.02935" lon="6.54243">
        <ele>2083.31</ele>
        <time>2019-05-23T11:23:29Z</time>
      </trkpt>
      <trkpt lat="45.02935" lon="6.54236">
        <ele>2083.31</ele>
        <time>2019-05-23T11:23:47Z</time>
      </trkpt>
      <trkpt lat="45.02937" lon="6.54259">
        <ele>2080.91</ele>
        <time>2019-05-23T11:24:06Z</time>
      </trkpt>
      <trkpt lat="45.02939" lon="6.54271">
        <ele>2078.51</ele>
        <time>2019-05-23T11:24:19Z</time>
      </trkpt>
      <trkpt lat="45.02943" lon="6.54281">
        <ele>2076.59</ele>
        <time>2019-05-23T11:24:29Z</time>
      </trkpt>
      <trkpt lat="45.02945" lon="6.54292">
        <ele>2074.66</ele>
        <time>2019-05-23T11:24:42Z</time>
      </trkpt>
      <trkpt lat="45.02945" lon="6.54306">
        <ele>2071.78</ele>
        <time>2019-05-23T11:24:56Z</time>
      </trkpt>
      <trkpt lat="45.02947" lon="6.5432">
        <ele>2069.86</ele>
        <time>2019-05-23T11:25:11Z</time>
      </trkpt>
      <trkpt lat="45.02943" lon="6.54336">
        <ele>2066.49</ele>
        <time>2019-05-23T11:25:27Z</time>
      </trkpt>
      <trkpt lat="45.02944" lon="6.5434">
        <ele>2066.01</ele>
        <time>2019-05-23T11:25:30Z</time>
      </trkpt>
      <trkpt lat="45.02942" lon="6.54355">
        <ele>2062.65</ele>
        <time>2019-05-23T11:25:45Z</time>
      </trkpt>
      <trkpt lat="45.02932" lon="6.54365">
        <ele>2059.76</ele>
        <time>2019-05-23T11:26:01Z</time>
      </trkpt>
      <trkpt lat="45.0293" lon="6.54374">
        <ele>2057.36</ele>
        <time>2019-05-23T11:26:14Z</time>
      </trkpt>
      <trkpt lat="45.02927" lon="6.54383">
        <ele>2054.47</ele>
        <time>2019-05-23T11:26:28Z</time>
      </trkpt>
      <trkpt lat="45.02927" lon="6.54395">
        <ele>2052.07</ele>
        <time>2019-05-23T11:26:42Z</time>
      </trkpt>
      <trkpt lat="45.02926" lon="6.54404">
        <ele>2050.15</ele>
        <time>2019-05-23T11:26:54Z</time>
      </trkpt>
      <trkpt lat="45.02923" lon="6.54414">
        <ele>2047.26</ele>
        <time>2019-05-23T11:27:10Z</time>
      </trkpt>
      <trkpt lat="45.02916" lon="6.54421">
        <ele>2044.86</ele>
        <time>2019-05-23T11:27:24Z</time>
      </trkpt>
      <trkpt lat="45.02919" lon="6.54428">
        <ele>2043.42</ele>
        <time>2019-05-23T11:27:38Z</time>
      </trkpt>
      <trkpt lat="45.02915" lon="6.54437">
        <ele>2041.02</ele>
        <time>2019-05-23T11:27:51Z</time>
      </trkpt>
      <trkpt lat="45.02907" lon="6.54448">
        <ele>2039.09</ele>
        <time>2019-05-23T11:28:04Z</time>
      </trkpt>
      <trkpt lat="45.02903" lon="6.54462">
        <ele>2036.69</ele>
        <time>2019-05-23T11:28:18Z</time>
      </trkpt>
      <trkpt lat="45.02903" lon="6.54464">
        <ele>2034.29</ele>
        <time>2019-05-23T11:28:36Z</time>
      </trkpt>
      <trkpt lat="45.02903" lon="6.54465">
        <ele>2034.29</ele>
        <time>2019-05-23T11:29:05Z</time>
      </trkpt>
      <trkpt lat="45.029" lon="6.54467">
        <ele>2034.29</ele>
        <time>2019-05-23T11:29:41Z</time>
      </trkpt>
      <trkpt lat="45.0289" lon="6.54468">
        <ele>2034.29</ele>
        <time>2019-05-23T11:30:06Z</time>
      </trkpt>
      <trkpt lat="45.02898" lon="6.54466">
        <ele>2034.29</ele>
        <time>2019-05-23T11:30:34Z</time>
      </trkpt>
      <trkpt lat="45.02899" lon="6.54466">
        <ele>2033.81</ele>
        <time>2019-05-23T11:31:08Z</time>
      </trkpt>
      <trkpt lat="45.029" lon="6.54466">
        <ele>2034.29</ele>
        <time>2019-05-23T11:31:36Z</time>
      </trkpt>
      <trkpt lat="45.02895" lon="6.54485">
        <ele>2032.84</ele>
        <time>2019-05-23T11:31:52Z</time>
      </trkpt>
      <trkpt lat="45.02892" lon="6.54508">
        <ele>2029</ele>
        <time>2019-05-23T11:32:13Z</time>
      </trkpt>
      <trkpt lat="45.02885" lon="6.54523">
        <ele>2027.08</ele>
        <time>2019-05-23T11:32:29Z</time>
      </trkpt>
      <trkpt lat="45.02884" lon="6.54526">
        <ele>2027.08</ele>
        <time>2019-05-23T11:32:34Z</time>
      </trkpt>
      <trkpt lat="45.02887" lon="6.5454">
        <ele>2024.19</ele>
        <time>2019-05-23T11:32:51Z</time>
      </trkpt>
      <trkpt lat="45.02885" lon="6.54549">
        <ele>2024.19</ele>
        <time>2019-05-23T11:33:05Z</time>
      </trkpt>
      <trkpt lat="45.02886" lon="6.54555">
        <ele>2022.75</ele>
        <time>2019-05-23T11:33:23Z</time>
      </trkpt>
      <trkpt lat="45.02877" lon="6.54558">
        <ele>2020.83</ele>
        <time>2019-05-23T11:33:42Z</time>
      </trkpt>
      <trkpt lat="45.02866" lon="6.54562">
        <ele>2019.39</ele>
        <time>2019-05-23T11:33:53Z</time>
      </trkpt>
      <trkpt lat="45.0286" lon="6.5458">
        <ele>2016.02</ele>
        <time>2019-05-23T11:34:08Z</time>
      </trkpt>
      <trkpt lat="45.02857" lon="6.54595">
        <ele>2012.66</ele>
        <time>2019-05-23T11:34:21Z</time>
      </trkpt>
      <trkpt lat="45.02867" lon="6.54608">
        <ele>2010.25</ele>
        <time>2019-05-23T11:34:35Z</time>
      </trkpt>
      <trkpt lat="45.02867" lon="6.54621">
        <ele>2006.89</ele>
        <time>2019-05-23T11:34:47Z</time>
      </trkpt>
      <trkpt lat="45.02863" lon="6.54627">
        <ele>2004.01</ele>
        <time>2019-05-23T11:35:00Z</time>
      </trkpt>
      <trkpt lat="45.02861" lon="6.54628">
        <ele>2004.01</ele>
        <time>2019-05-23T11:35:02Z</time>
      </trkpt>
      <trkpt lat="45.02859" lon="6.5463">
        <ele>2002.56</ele>
        <time>2019-05-23T11:35:05Z</time>
      </trkpt>
      <trkpt lat="45.0286" lon="6.54639">
        <ele>1999.68</ele>
        <time>2019-05-23T11:35:18Z</time>
      </trkpt>
      <trkpt lat="45.02861" lon="6.54647">
        <ele>1996.8</ele>
        <time>2019-05-23T11:35:29Z</time>
      </trkpt>
      <trkpt lat="45.02861" lon="6.54652">
        <ele>1995.35</ele>
        <time>2019-05-23T11:35:34Z</time>
      </trkpt>
      <trkpt lat="45.02871" lon="6.54656">
        <ele>1992.47</ele>
        <time>2019-05-23T11:35:49Z</time>
      </trkpt>
      <trkpt lat="45.02878" lon="6.54664">
        <ele>1990.07</ele>
        <time>2019-05-23T11:36:00Z</time>
      </trkpt>
      <trkpt lat="45.02885" lon="6.54675">
        <ele>1986.7</ele>
        <time>2019-05-23T11:36:12Z</time>
      </trkpt>
      <trkpt lat="45.02893" lon="6.54686">
        <ele>1984.3</ele>
        <time>2019-05-23T11:36:27Z</time>
      </trkpt>
      <trkpt lat="45.02904" lon="6.54691">
        <ele>1981.41</ele>
        <time>2019-05-23T11:36:41Z</time>
      </trkpt>
      <trkpt lat="45.02912" lon="6.54694">
        <ele>1978.53</ele>
        <time>2019-05-23T11:36:54Z</time>
      </trkpt>
      <trkpt lat="45.02924" lon="6.54706">
        <ele>1976.13</ele>
        <time>2019-05-23T11:37:09Z</time>
      </trkpt>
      <trkpt lat="45.02938" lon="6.54705">
        <ele>1974.2</ele>
        <time>2019-05-23T11:37:26Z</time>
      </trkpt>
      <trkpt lat="45.0294" lon="6.54706">
        <ele>1973.72</ele>
        <time>2019-05-23T11:37:29Z</time>
      </trkpt>
      <trkpt lat="45.02956" lon="6.54699">
        <ele>1970.84</ele>
        <time>2019-05-23T11:37:48Z</time>
      </trkpt>
      <trkpt lat="45.02973" lon="6.54697">
        <ele>1968.44</ele>
        <time>2019-05-23T11:38:06Z</time>
      </trkpt>
      <trkpt lat="45.02986" lon="6.54697">
        <ele>1967.48</ele>
        <time>2019-05-23T11:38:21Z</time>
      </trkpt>
      <trkpt lat="45.03002" lon="6.54699">
        <ele>1965.55</ele>
        <time>2019-05-23T11:38:40Z</time>
      </trkpt>
      <trkpt lat="45.03004" lon="6.54696">
        <ele>1964.11</ele>
        <time>2019-05-23T11:39:00Z</time>
      </trkpt>
      <trkpt lat="45.03003" lon="6.5469">
        <ele>1964.59</ele>
        <time>2019-05-23T11:39:38Z</time>
      </trkpt>
      <trkpt lat="45.02993" lon="6.5469">
        <ele>1964.11</ele>
        <time>2019-05-23T11:40:13Z</time>
      </trkpt>
      <trkpt lat="45.02997" lon="6.54693">
        <ele>1964.11</ele>
        <time>2019-05-23T11:40:46Z</time>
      </trkpt>
      <trkpt lat="45.02994" lon="6.54692">
        <ele>1963.63</ele>
        <time>2019-05-23T11:41:25Z</time>
      </trkpt>
      <trkpt lat="45.02997" lon="6.5469">
        <ele>1964.11</ele>
        <time>2019-05-23T11:41:57Z</time>
      </trkpt>
      <trkpt lat="45.02995" lon="6.54689">
        <ele>1964.11</ele>
        <time>2019-05-23T11:42:33Z</time>
      </trkpt>
      <trkpt lat="45.02996" lon="6.5469">
        <ele>1964.11</ele>
        <time>2019-05-23T11:43:11Z</time>
      </trkpt>
      <trkpt lat="45.03" lon="6.54697">
        <ele>1963.63</ele>
        <time>2019-05-23T11:43:29Z</time>
      </trkpt>
      <trkpt lat="45.03009" lon="6.54692">
        <ele>1961.23</ele>
        <time>2019-05-23T11:43:47Z</time>
      </trkpt>
      <trkpt lat="45.0302" lon="6.54676">
        <ele>1957.86</ele>
        <time>2019-05-23T11:44:07Z</time>
      </trkpt>
      <trkpt lat="45.03026" lon="6.54669">
        <ele>1954.98</ele>
        <time>2019-05-23T11:44:22Z</time>
      </trkpt>
      <trkpt lat="45.03034" lon="6.54661">
        <ele>1952.57</ele>
        <time>2019-05-23T11:44:40Z</time>
      </trkpt>
      <trkpt lat="45.03042" lon="6.54651">
        <ele>1949.69</ele>
        <time>2019-05-23T11:44:56Z</time>
      </trkpt>
      <trkpt lat="45.03052" lon="6.54639">
        <ele>1948.25</ele>
        <time>2019-05-23T11:45:12Z</time>
      </trkpt>
      <trkpt lat="45.03063" lon="6.54626">
        <ele>1948.25</ele>
        <time>2019-05-23T11:45:29Z</time>
      </trkpt>
      <trkpt lat="45.03076" lon="6.54619">
        <ele>1949.21</ele>
        <time>2019-05-23T11:45:47Z</time>
      </trkpt>
      <trkpt lat="45.03081" lon="6.54617">
        <ele>1948.25</ele>
        <time>2019-05-23T11:46:01Z</time>
      </trkpt>
      <trkpt lat="45.03088" lon="6.54614">
        <ele>1945.85</ele>
        <time>2019-05-23T11:46:21Z</time>
      </trkpt>
      <trkpt lat="45.0309" lon="6.54602">
        <ele>1943.92</ele>
        <time>2019-05-23T11:46:35Z</time>
      </trkpt>
      <trkpt lat="45.031" lon="6.546">
        <ele>1941.04</ele>
        <time>2019-05-23T11:46:52Z</time>
      </trkpt>
      <trkpt lat="45.03104" lon="6.54599">
        <ele>1938.64</ele>
        <time>2019-05-23T11:47:07Z</time>
      </trkpt>
      <trkpt lat="45.03114" lon="6.54604">
        <ele>1936.23</ele>
        <time>2019-05-23T11:47:23Z</time>
      </trkpt>
      <trkpt lat="45.0312" lon="6.54604">
        <ele>1935.27</ele>
        <time>2019-05-23T11:47:36Z</time>
      </trkpt>
      <trkpt lat="45.03133" lon="6.546">
        <ele>1933.83</ele>
        <time>2019-05-23T11:47:51Z</time>
      </trkpt>
      <trkpt lat="45.03142" lon="6.54597">
        <ele>1932.87</ele>
        <time>2019-05-23T11:48:07Z</time>
      </trkpt>
      <trkpt lat="45.03137" lon="6.54602">
        <ele>1932.39</ele>
        <time>2019-05-23T11:48:36Z</time>
      </trkpt>
      <trkpt lat="45.03144" lon="6.54602">
        <ele>1931.91</ele>
        <time>2019-05-23T11:49:03Z</time>
      </trkpt>
      <trkpt lat="45.03144" lon="6.54604">
        <ele>1932.39</ele>
        <time>2019-05-23T11:49:26Z</time>
      </trkpt>
      <trkpt lat="45.03149" lon="6.54595">
        <ele>1931.91</ele>
        <time>2019-05-23T11:49:53Z</time>
      </trkpt>
      <trkpt lat="45.0316" lon="6.54593">
        <ele>1930.95</ele>
        <time>2019-05-23T11:50:09Z</time>
      </trkpt>
      <trkpt lat="45.03169" lon="6.54592">
        <ele>1929.98</ele>
        <time>2019-05-23T11:50:23Z</time>
      </trkpt>
      <trkpt lat="45.03178" lon="6.54588">
        <ele>1928.06</ele>
        <time>2019-05-23T11:50:39Z</time>
      </trkpt>
      <trkpt lat="45.03181" lon="6.54583">
        <ele>1927.1</ele>
        <time>2019-05-23T11:50:45Z</time>
      </trkpt>
      <trkpt lat="45.0319" lon="6.54572">
        <ele>1924.22</ele>
        <time>2019-05-23T11:51:01Z</time>
      </trkpt>
      <trkpt lat="45.03197" lon="6.54561">
        <ele>1922.77</ele>
        <time>2019-05-23T11:51:14Z</time>
      </trkpt>
      <trkpt lat="45.03209" lon="6.5455">
        <ele>1920.37</ele>
        <time>2019-05-23T11:51:31Z</time>
      </trkpt>
      <trkpt lat="45.03225" lon="6.54553">
        <ele>1918.93</ele>
        <time>2019-05-23T11:51:47Z</time>
      </trkpt>
      <trkpt lat="45.03234" lon="6.54558">
        <ele>1916.53</ele>
        <time>2019-05-23T11:52:05Z</time>
      </trkpt>
      <trkpt lat="45.03245" lon="6.54552">
        <ele>1914.12</ele>
        <time>2019-05-23T11:52:20Z</time>
      </trkpt>
      <trkpt lat="45.03256" lon="6.5454">
        <ele>1911.72</ele>
        <time>2019-05-23T11:52:35Z</time>
      </trkpt>
      <trkpt lat="45.03265" lon="6.54532">
        <ele>1908.83</ele>
        <time>2019-05-23T11:52:49Z</time>
      </trkpt>
      <trkpt lat="45.03273" lon="6.54534">
        <ele>1905.95</ele>
        <time>2019-05-23T11:53:03Z</time>
      </trkpt>
      <trkpt lat="45.0328" lon="6.54522">
        <ele>1903.55</ele>
        <time>2019-05-23T11:53:17Z</time>
      </trkpt>
      <trkpt lat="45.03294" lon="6.54514">
        <ele>1901.14</ele>
        <time>2019-05-23T11:53:32Z</time>
      </trkpt>
      <trkpt lat="45.03301" lon="6.54503">
        <ele>1898.74</ele>
        <time>2019-05-23T11:53:47Z</time>
      </trkpt>
      <trkpt lat="45.03312" lon="6.54499">
        <ele>1895.86</ele>
        <time>2019-05-23T11:54:03Z</time>
      </trkpt>
      <trkpt lat="45.03322" lon="6.5449">
        <ele>1893.93</ele>
        <time>2019-05-23T11:54:19Z</time>
      </trkpt>
      <trkpt lat="45.03333" lon="6.5449">
        <ele>1891.05</ele>
        <time>2019-05-23T11:54:34Z</time>
      </trkpt>
      <trkpt lat="45.03337" lon="6.54479">
        <ele>1888.65</ele>
        <time>2019-05-23T11:54:49Z</time>
      </trkpt>
      <trkpt lat="45.03343" lon="6.5447">
        <ele>1886.72</ele>
        <time>2019-05-23T11:55:02Z</time>
      </trkpt>
      <trkpt lat="45.03354" lon="6.54463">
        <ele>1884.8</ele>
        <time>2019-05-23T11:55:15Z</time>
      </trkpt>
      <trkpt lat="45.03362" lon="6.5446">
        <ele>1883.36</ele>
        <time>2019-05-23T11:55:26Z</time>
      </trkpt>
      <trkpt lat="45.03366" lon="6.5445">
        <ele>1882.4</ele>
        <time>2019-05-23T11:55:36Z</time>
      </trkpt>
      <trkpt lat="45.03376" lon="6.54435">
        <ele>1880.96</ele>
        <time>2019-05-23T11:55:53Z</time>
      </trkpt>
      <trkpt lat="45.03386" lon="6.54424">
        <ele>1880.48</ele>
        <time>2019-05-23T11:56:05Z</time>
      </trkpt>
      <trkpt lat="45.03397" lon="6.54437">
        <ele>1879.51</ele>
        <time>2019-05-23T11:56:19Z</time>
      </trkpt>
      <trkpt lat="45.034" lon="6.54445">
        <ele>1879.03</ele>
        <time>2019-05-23T11:56:26Z</time>
      </trkpt>
      <trkpt lat="45.03398" lon="6.54455">
        <ele>1878.55</ele>
        <time>2019-05-23T11:56:33Z</time>
      </trkpt>
      <trkpt lat="45.03394" lon="6.54464">
        <ele>1878.07</ele>
        <time>2019-05-23T11:56:40Z</time>
      </trkpt>
      <trkpt lat="45.03394" lon="6.54489">
        <ele>1876.63</ele>
        <time>2019-05-23T11:56:57Z</time>
      </trkpt>
      <trkpt lat="45.03395" lon="6.54508">
        <ele>1876.15</ele>
        <time>2019-05-23T11:57:11Z</time>
      </trkpt>
      <trkpt lat="45.03397" lon="6.54523">
        <ele>1876.15</ele>
        <time>2019-05-23T11:57:21Z</time>
      </trkpt>
      <trkpt lat="45.03401" lon="6.54525">
        <ele>1876.15</ele>
        <time>2019-05-23T11:57:31Z</time>
      </trkpt>
      <trkpt lat="45.03412" lon="6.54515">
        <ele>1876.15</ele>
        <time>2019-05-23T11:57:47Z</time>
      </trkpt>
      <trkpt lat="45.03425" lon="6.54511">
        <ele>1876.15</ele>
        <time>2019-05-23T11:58:04Z</time>
      </trkpt>
      <trkpt lat="45.03437" lon="6.54511">
        <ele>1875.67</ele>
        <time>2019-05-23T11:58:18Z</time>
      </trkpt>
      <trkpt lat="45.03439" lon="6.54504">
        <ele>1875.67</ele>
        <time>2019-05-23T11:58:34Z</time>
      </trkpt>
      <trkpt lat="45.03437" lon="6.54505">
        <ele>1874.23</ele>
        <time>2019-05-23T11:58:53Z</time>
      </trkpt>
      <trkpt lat="45.03437" lon="6.54508">
        <ele>1874.23</ele>
        <time>2019-05-23T11:59:22Z</time>
      </trkpt>
      <trkpt lat="45.03438" lon="6.54507">
        <ele>1873.75</ele>
        <time>2019-05-23T11:59:49Z</time>
      </trkpt>
      <trkpt lat="45.03437" lon="6.54508">
        <ele>1873.75</ele>
        <time>2019-05-23T12:00:05Z</time>
      </trkpt>
      <trkpt lat="45.03435" lon="6.54509">
        <ele>1873.75</ele>
        <time>2019-05-23T12:00:27Z</time>
      </trkpt>
      <trkpt lat="45.03432" lon="6.54507">
        <ele>1873.75</ele>
        <time>2019-05-23T12:00:40Z</time>
      </trkpt>
      <trkpt lat="45.03427" lon="6.54509">
        <ele>1873.75</ele>
        <time>2019-05-23T12:01:02Z</time>
      </trkpt>
      <trkpt lat="45.03427" lon="6.54509">
        <ele>1873.27</ele>
        <time>2019-05-23T12:01:19Z</time>
      </trkpt>
      <trkpt lat="45.03428" lon="6.5451">
        <ele>1873.75</ele>
        <time>2019-05-23T12:01:38Z</time>
      </trkpt>
      <trkpt lat="45.03428" lon="6.54509">
        <ele>1873.75</ele>
        <time>2019-05-23T12:01:54Z</time>
      </trkpt>
      <trkpt lat="45.03431" lon="6.54508">
        <ele>1873.75</ele>
        <time>2019-05-23T12:02:08Z</time>
      </trkpt>
      <trkpt lat="45.03434" lon="6.54511">
        <ele>1873.75</ele>
        <time>2019-05-23T12:02:23Z</time>
      </trkpt>
      <trkpt lat="45.03437" lon="6.54514">
        <ele>1873.75</ele>
        <time>2019-05-23T12:02:40Z</time>
      </trkpt>
      <trkpt lat="45.0343" lon="6.54512">
        <ele>1873.75</ele>
        <time>2019-05-23T12:03:08Z</time>
      </trkpt>
      <trkpt lat="45.03436" lon="6.54513">
        <ele>1873.75</ele>
        <time>2019-05-23T12:03:37Z</time>
      </trkpt>
      <trkpt lat="45.03442" lon="6.54513">
        <ele>1873.75</ele>
        <time>2019-05-23T12:04:06Z</time>
      </trkpt>
      <trkpt lat="45.03438" lon="6.54511">
        <ele>1873.75</ele>
        <time>2019-05-23T12:04:37Z</time>
      </trkpt>
      <trkpt lat="45.03439" lon="6.5451">
        <ele>1874.23</ele>
        <time>2019-05-23T12:05:04Z</time>
      </trkpt>
      <trkpt lat="45.03447" lon="6.54514">
        <ele>1873.75</ele>
        <time>2019-05-23T12:05:37Z</time>
      </trkpt>
      <trkpt lat="45.03436" lon="6.54513">
        <ele>1873.75</ele>
        <time>2019-05-23T12:06:07Z</time>
      </trkpt>
      <trkpt lat="45.03433" lon="6.54512">
        <ele>1873.27</ele>
        <time>2019-05-23T12:06:38Z</time>
      </trkpt>
      <trkpt lat="45.03432" lon="6.54508">
        <ele>1873.27</ele>
        <time>2019-05-23T12:07:10Z</time>
      </trkpt>
      <trkpt lat="45.03434" lon="6.54507">
        <ele>1873.27</ele>
        <time>2019-05-23T12:07:37Z</time>
      </trkpt>
      <trkpt lat="45.03439" lon="6.54508">
        <ele>1873.27</ele>
        <time>2019-05-23T12:08:09Z</time>
      </trkpt>
      <trkpt lat="45.03436" lon="6.54511">
        <ele>1872.79</ele>
        <time>2019-05-23T12:08:45Z</time>
      </trkpt>
      <trkpt lat="45.03438" lon="6.54511">
        <ele>1872.79</ele>
        <time>2019-05-23T12:09:18Z</time>
      </trkpt>
      <trkpt lat="45.03429" lon="6.54508">
        <ele>1872.79</ele>
        <time>2019-05-23T12:09:52Z</time>
      </trkpt>
      <trkpt lat="45.03436" lon="6.54511">
        <ele>1873.27</ele>
        <time>2019-05-23T12:10:23Z</time>
      </trkpt>
      <trkpt lat="45.03446" lon="6.5451">
        <ele>1873.27</ele>
        <time>2019-05-23T12:11:03Z</time>
      </trkpt>
      <trkpt lat="45.03445" lon="6.54514">
        <ele>1872.79</ele>
        <time>2019-05-23T12:11:41Z</time>
      </trkpt>
      <trkpt lat="45.03439" lon="6.54511">
        <ele>1872.79</ele>
        <time>2019-05-23T12:12:17Z</time>
      </trkpt>
      <trkpt lat="45.0343" lon="6.54506">
        <ele>1872.79</ele>
        <time>2019-05-23T12:12:48Z</time>
      </trkpt>
      <trkpt lat="45.03439" lon="6.54509">
        <ele>1872.79</ele>
        <time>2019-05-23T12:13:18Z</time>
      </trkpt>
      <trkpt lat="45.03438" lon="6.5451">
        <ele>1872.79</ele>
        <time>2019-05-23T12:13:48Z</time>
      </trkpt>
      <trkpt lat="45.03434" lon="6.54506">
        <ele>1873.75</ele>
        <time>2019-05-23T12:14:10Z</time>
      </trkpt>
      <trkpt lat="45.03439" lon="6.54509">
        <ele>1873.27</ele>
        <time>2019-05-23T12:14:37Z</time>
      </trkpt>
      <trkpt lat="45.03429" lon="6.54503">
        <ele>1873.27</ele>
        <time>2019-05-23T12:15:14Z</time>
      </trkpt>
      <trkpt lat="45.03434" lon="6.54507">
        <ele>1872.79</ele>
        <time>2019-05-23T12:15:43Z</time>
      </trkpt>
      <trkpt lat="45.03439" lon="6.54511">
        <ele>1872.79</ele>
        <time>2019-05-23T12:16:11Z</time>
      </trkpt>
      <trkpt lat="45.03434" lon="6.54511">
        <ele>1872.79</ele>
        <time>2019-05-23T12:16:47Z</time>
      </trkpt>
      <trkpt lat="45.03439" lon="6.54515">
        <ele>1872.79</ele>
        <time>2019-05-23T12:17:21Z</time>
      </trkpt>
      <trkpt lat="45.03431" lon="6.54509">
        <ele>1872.79</ele>
        <time>2019-05-23T12:17:59Z</time>
      </trkpt>
      <trkpt lat="45.03431" lon="6.54512">
        <ele>1872.79</ele>
        <time>2019-05-23T12:18:30Z</time>
      </trkpt>
      <trkpt lat="45.03434" lon="6.54509">
        <ele>1876.15</ele>
        <time>2019-05-23T12:18:59Z</time>
      </trkpt>
      <trkpt lat="45.03439" lon="6.54507">
        <ele>1873.27</ele>
        <time>2019-05-23T12:19:29Z</time>
      </trkpt>
      <trkpt lat="45.03437" lon="6.54501">
        <ele>1873.27</ele>
        <time>2019-05-23T12:20:01Z</time>
      </trkpt>
      <trkpt lat="45.03439" lon="6.545">
        <ele>1873.27</ele>
        <time>2019-05-23T12:20:37Z</time>
      </trkpt>
      <trkpt lat="45.03437" lon="6.545">
        <ele>1872.79</ele>
        <time>2019-05-23T12:21:12Z</time>
      </trkpt>
      <trkpt lat="45.0344" lon="6.54501">
        <ele>1871.82</ele>
        <time>2019-05-23T12:21:45Z</time>
      </trkpt>
      <trkpt lat="45.03443" lon="6.54502">
        <ele>1871.82</ele>
        <time>2019-05-23T12:22:21Z</time>
      </trkpt>
      <trkpt lat="45.03442" lon="6.54506">
        <ele>1871.82</ele>
        <time>2019-05-23T12:22:28Z</time>
      </trkpt>
      <trkpt lat="45.03423" lon="6.54514">
        <ele>1871.82</ele>
        <time>2019-05-23T12:22:38Z</time>
      </trkpt>
    </trkseg>
  </trk>
</gpx>